ftp/pub/palmer/observations_modified/2015/November/AR151123_BASE.txt

Download

Sample DateTime	Unit Id	WS Avg 2min	WD Avg 2min	WGS 10min	WGD 10min	Air Temp	Rel Humidity	Dew Point	Pyranometer	Quantum	Air Pressure	Snow Level	Rainfall	PW Current	Visibility	CBase 1	CBase 2	CBase 3	Vert Vis
2015/11/23 00:00:00	BASE	4.43	247	5.86	254	-3.0	87	-4.8	0	0	982.7	NA	0.0000		9999	2000	0	0	0
2015/11/23 00:01:00	BASE	4.38	247	5.86	254	-3.0	87	-4.8	0	0	982.7	NA	0.0000		9999	2030	0	0	0
2015/11/23 00:02:00	BASE	4.35	251	5.86	254	-3.0	87	-4.8	0	0	982.8	NA	0.0000		9999	1800	0	0	0
2015/11/23 00:03:00	BASE	4.23	253	5.86	254	-3.0	87	-4.8	0	0	982.8	NA	0.0000		9999	1800	0	0	0
2015/11/23 00:04:00	BASE	4.37	250	5.50	256	-3.0	87	-4.8	0	0	982.9	NA	0.0000		9999	1800	0	0	0
2015/11/23 00:05:00	BASE	4.78	248	5.71	261	-3.0	87	-4.8	0	0	982.9	NA	0.0000		9999	1670	0	0	0
2015/11/23 00:06:00	BASE	4.94	248	5.71	261	-3.0	87	-4.9	0	0	982.8	NA	0.0000		9999	1640	0	0	0
2015/11/23 00:07:00	BASE	4.80	252	5.71	261	-3.0	86	-4.9	0	0	982.9	NA	0.0000		9999	1610	0	0	0
2015/11/23 00:08:00	BASE	4.73	249	5.71	261	-3.0	86	-5.0	0	0	982.9	NA	0.0000		9999	1540	0	0	0
2015/11/23 00:09:00	BASE	4.47	243	5.71	261	-3.0	86	-5.1	0	0	982.8	NA	0.0000		9999	1610	0	0	0
2015/11/23 00:10:00	BASE	4.61	243	5.76	263	-3.0	85	-5.1	0	0	982.8	NA	0.0000		9999	1670	0	0	0
2015/11/23 00:11:00	BASE	5.02	253	5.76	263	-3.0	85	-5.2	0	0	982.8	NA	0.0000		9999	1740	0	0	0
2015/11/23 00:12:00	BASE	5.10	243	5.92	256	-3.0	85	-5.2	0	0	982.8	NA	0.0000		9999	1840	0	0	0
2015/11/23 00:13:00	BASE	4.80	243	5.92	256	-3.0	85	-5.2	0	0	982.8	NA	0.0000		9999	1800	0	0	0
2015/11/23 00:14:00	BASE	4.62	248	5.92	256	-3.0	85	-5.1	0	0	982.9	NA	0.0000		9999	1740	0	0	0
2015/11/23 00:15:00	BASE	4.66	245	5.92	256	-3.0	85	-5.1	0	0	982.9	NA	0.0000		9999	1740	0	0	0
2015/11/23 00:16:00	BASE	4.50	245	5.92	256	-3.0	86	-5.1	0	0	982.8	NA	0.0000		9999	1800	0	0	0
2015/11/23 00:17:00	BASE	4.51	248	5.92	256	-3.0	86	-5.1	0	0	982.8	NA	0.0000		9999	1770	0	0	0
2015/11/23 00:18:00	BASE	4.25	249	5.92	256	-3.0	86	-5.1	0	0	982.8	NA	0.0000		9999	1770	0	0	0
2015/11/23 00:19:00	BASE	3.84	246	5.92	256	-3.0	86	-5.1	0	0	982.8	NA	0.0000		9999	1180	1570	0	0
2015/11/23 00:20:00	BASE	3.78	246	5.92	256	-3.0	86	-5.1	0	0	982.8	NA	0.0000		9999	1670	0	0	0
2015/11/23 00:21:00	BASE	4.07	258	5.92	256	-3.0	85	-5.1	0	0	982.8	NA	0.0000		9999	1740	0	0	0
2015/11/23 00:22:00	BASE	4.63	252	5.50	257	-3.0	85	-5.1	0	0	982.8	NA	0.0000		9999	1670	0	0	0
2015/11/23 00:23:00	BASE	4.69	251	5.50	257	-3.1	85	-5.2	0	0	982.8	NA	0.0000		9999	1670	0	0	0
2015/11/23 00:24:00	BASE	4.73	251	5.66	270	-3.1	85	-5.3	0	0	982.8	NA	0.0000		9999	1670	0	0	0
2015/11/23 00:25:00	BASE	4.86	260	5.66	270	-3.1	84	-5.4	0	0	982.8	NA	0.0000		9999	1640	0	0	0
2015/11/23 00:26:00	BASE	4.62	258	5.66	270	-3.1	84	-5.4	0	0	982.7	NA	0.0000		9999	1740	0	0	0
2015/11/23 00:27:00	BASE	4.56	258	5.66	270	-3.1	84	-5.4	0	0	982.7	NA	0.0000		9999	1670	0	0	0
2015/11/23 00:28:00	BASE	4.53	255	5.66	270	-3.1	84	-5.4	0	0	982.7	NA	0.0000		9999	1710	0	0	0
2015/11/23 00:29:00	BASE	4.75	255	5.66	270	-3.1	84	-5.4	0	0	982.7	NA	0.0000		9999	1800	0	0	0
2015/11/23 00:30:00	BASE	5.11	263	5.66	270	-3.2	84	-5.4	0	0	982.7	NA	0.0000		9999	1770	0	0	0
2015/11/23 00:31:00	BASE	4.97	262	5.71	273	-3.2	84	-5.5	0	0	982.7	NA	0.0000		9999	1800	0	0	0
2015/11/23 00:32:00	BASE	4.91	259	5.71	273	-3.2	84	-5.5	0	0	982.7	NA	0.0000		9999	1800	0	0	0
2015/11/23 00:33:00	BASE	4.92	256	5.71	273	-3.2	84	-5.6	0	0	982.7	NA	0.0000		9999	1770	0	0	0
2015/11/23 00:34:00	BASE	4.71	248	5.71	273	-3.2	84	-5.6	0	0	982.7	NA	0.0000		9999	1740	0	0	0
2015/11/23 00:35:00	BASE	4.55	248	5.71	273	-3.2	83	-5.6	0	0	982.7	NA	0.0000		9999	1770	0	0	0
2015/11/23 00:36:00	BASE	4.58	254	5.71	273	-3.2	83	-5.6	0	0	982.7	NA	0.0000		9999	1740	0	0	0
2015/11/23 00:37:00	BASE	4.45	254	5.71	273	-3.2	83	-5.7	0	0	982.7	NA	0.0000		9999	1770	0	0	0
2015/11/23 00:38:00	BASE	4.15	254	5.71	273	-3.2	83	-5.7	0	0	982.7	NA	0.0000		9999	1770	0	0	0
2015/11/23 00:39:00	BASE	3.98	256	5.71	273	-3.2	82	-5.8	0	0	982.7	NA	0.0000		9999	1770	0	0	0
2015/11/23 00:40:00	BASE	3.80	259	5.71	273	-3.2	82	-5.8	0	0	982.7	NA	0.0000		9999	1770	0	0	0
2015/11/23 00:41:00	BASE	3.87	261	5.45	264	-3.2	82	-5.9	0	0	982.7	NA	0.0000		9999	1740	0	0	0
2015/11/23 00:42:00	BASE	3.75	252	5.30	267	-3.3	82	-5.9	0	0	982.8	NA	0.0000		9999	1710	0	0	0
2015/11/23 00:43:00	BASE	3.33	250	5.30	267	-3.3	82	-5.9	0	0	982.7	NA	0.0000		9999	1710	0	0	0
2015/11/23 00:44:00	BASE	3.12	250	5.30	267	-3.3	82	-5.9	0	0	982.7	NA	0.0000		9999	1710	6200	0	0
2015/11/23 00:45:00	BASE	3.15	254	5.30	267	-3.3	82	-5.9	0	0	982.7	NA	0.0000		9999	1740	6140	0	0
2015/11/23 00:46:00	BASE	3.47	258	4.84	264	-3.3	82	-6.0	0	0	982.7	NA	0.0000		9999	1870	6100	0	0
2015/11/23 00:47:00	BASE	4.00	258	5.04	268	-3.3	82	-6.0	0	0	982.7	NA	0.0000		9999	1770	0	0	0
2015/11/23 00:48:00	BASE	4.40	262	5.20	270	-3.3	82	-5.9	0	0	982.7	NA	0.0000		9999	1540	0	0	0
2015/11/23 00:49:00	BASE	4.21	262	5.20	270	-3.3	82	-5.9	0	0	982.7	NA	0.0000		9999	1410	0	0	0
2015/11/23 00:50:00	BASE	3.48	250	5.20	270	-3.3	82	-6.0	0	0	982.7	NA	0.0000		9999	1710	0	0	0
2015/11/23 00:51:00	BASE	2.96	250	5.20	270	-3.3	82	-6.0	0	0	982.7	NA	0.0000		9999	1670	6200	0	0
2015/11/23 00:52:00	BASE	3.14	271	5.20	270	-3.3	82	-6.0	0	0	982.7	NA	0.0000		9999	1740	6100	0	0
2015/11/23 00:53:00	BASE	3.83	286	5.20	270	-3.3	82	-6.0	0	0	982.7	NA	0.0000		9999	1800	6100	0	0
2015/11/23 00:54:00	BASE	4.50	279	5.20	270	-3.4	82	-6.1	0	0	982.7	NA	0.0000		9999	1640	6070	0	0
2015/11/23 00:55:00	BASE	4.59	278	5.20	270	-3.4	82	-6.1	0	0	982.6	NA	0.0000		9999	1480	0	0	0
2015/11/23 00:56:00	BASE	4.04	278	5.20	270	-3.5	82	-6.1	0	0	982.6	NA	0.0000		9999	1570	6070	0	0
2015/11/23 00:57:00	BASE	3.58	279	5.20	270	-3.5	82	-6.1	0	0	982.6	NA	0.0000		9999	1570	6040	0	0
2015/11/23 00:58:00	BASE	3.71	280	5.04	281	-3.5	82	-6.0	0	0	982.6	NA	0.0000		9999	1670	6140	0	0
2015/11/23 00:59:00	BASE	4.39	291	5.14	293	-3.5	83	-6.0	0	0	982.6	NA	0.0000		9999	1710	6140	0	0
2015/11/23 01:00:00	BASE	4.61	288	5.14	293	-3.5	83	-6.0	0	0	982.6	NA	0.0000		9999	1610	0	0	0
2015/11/23 01:01:00	BASE	4.49	288	5.14	293	-3.5	83	-6.0	0	0	982.6	NA	0.0000		9999	1640	6100	0	0
2015/11/23 01:02:00	BASE	4.43	289	5.14	293	-3.6	83	-6.1	0	0	982.6	NA	0.0000		9999	1540	6070	0	0
2015/11/23 01:03:00	BASE	4.78	289	5.56	298	-3.6	83	-6.1	0	0	982.6	NA	0.0000		9999	6070	0	0	0
2015/11/23 01:04:01	BASE	4.99	291	5.56	298	-3.6	83	-6.2	0	0	982.6	NA	0.0000		9999	6070	0	0	0
2015/11/23 01:05:00	BASE	4.61	296	5.56	298	-3.7	82	-6.3	0	0	982.6	NA	0.0000		9999	6100	0	0	0
2015/11/23 01:06:00	BASE	4.56	300	5.56	298	-3.7	82	-6.4	0	0	982.6	NA	0.0000		9999	6100	0	0	0
2015/11/23 01:07:00	BASE	4.65	297	5.56	298	-3.8	82	-6.4	0	0	982.6	NA	0.0000		9999	6070	0	0	0
2015/11/23 01:08:00	BASE	4.73	295	5.56	298	-3.8	81	-6.5	0	0	982.5	NA	0.0000		9999	6070	0	0	0
2015/11/23 01:09:00	BASE	4.92	291	5.56	298	-3.9	81	-6.6	0	0	982.5	NA	0.0000		9999	6070	0	0	0
2015/11/23 01:10:00	BASE	4.87	291	5.56	298	-3.9	82	-6.6	0	0	982.6	NA	0.0000		9999	6040	13810	0	0
2015/11/23 01:11:00	BASE	4.67	291	5.56	298	-4.0	82	-6.6	0	0	982.6	NA	0.0000		9999	6000	0	0	0
2015/11/23 01:12:00	BASE	4.76	294	5.56	298	-4.0	83	-6.5	0	0	982.6	NA	0.0000		9999	6040	0	0	0
2015/11/23 01:13:00	BASE	4.83	294	5.35	291	-4.0	83	-6.5	0	0	982.5	NA	0.0000		9999	6000	0	0	0
2015/11/23 01:14:00	BASE	4.78	298	5.35	291	-4.0	83	-6.4	0	0	982.5	NA	0.0000		9999	6070	0	0	0
2015/11/23 01:15:00	BASE	4.68	299	5.35	291	-4.0	83	-6.5	0	0	982.4	NA	0.0000		9999	6070	0	0	0
2015/11/23 01:16:00	BASE	4.53	304	5.35	291	-4.1	83	-6.5	0	0	982.4	NA	0.0000		9999	6070	14040	0	0
2015/11/23 01:17:00	BASE	4.52	305	5.35	291	-4.1	83	-6.5	0	0	982.4	NA	0.0000		9999	6040	13980	0	0
2015/11/23 01:18:00	BASE	4.68	303	5.35	291	-4.1	83	-6.6	0	0	982.4	NA	0.0000		9999	6070	13980	0	0
2015/11/23 01:19:00	BASE	4.90	303	5.20	310	-4.1	83	-6.6	0	0	982.4	NA	0.0000		9999	6070	13980	0	0
2015/11/23 01:20:00	BASE	5.07	304	5.35	305	-4.1	83	-6.6	0	0	982.4	NA	0.0000		9999	6070	13940	0	0
2015/11/23 01:21:00	BASE	5.13	303	5.35	306	-4.1	82	-6.6	0	0	982.4	NA	0.0000		9999	6070	13910	0	0
2015/11/23 01:22:00	BASE	4.92	300	5.35	306	-4.0	82	-6.6	0	0	982.3	NA	0.0000		9999	6070	13910	0	0
2015/11/23 01:23:00	BASE	4.73	300	5.35	306	-4.0	83	-6.5	0	0	982.3	NA	0.0000		9999	13940	0	0	0
2015/11/23 01:24:00	BASE	4.60	302	5.35	306	-4.0	83	-6.5	0	0	982.3	NA	0.0000		9999	6100	0	0	0
2015/11/23 01:25:00	BASE	4.50	304	5.35	306	-4.0	83	-6.5	0	0	982.3	NA	0.0000		9999	0	0	0	0
2015/11/23 01:26:00	BASE	4.39	304	5.35	306	-4.0	83	-6.5	0	0	982.3	NA	0.0000		9999	0	0	0	0
2015/11/23 01:27:00	BASE	4.27	307	5.35	306	-4.1	83	-6.6	0	0	982.3	NA	0.0000		9999	0	0	0	0
2015/11/23 01:28:00	BASE	4.40	306	5.35	306	-4.2	83	-6.6	0	0	982.3	NA	0.0000		9999	6040	0	0	0
2015/11/23 01:29:00	BASE	4.62	305	5.35	306	-4.3	83	-6.7	0	0	982.3	NA	0.0000		9999	6040	0	0	0
2015/11/23 01:30:00	BASE	4.82	305	5.35	306	-4.4	84	-6.7	0	0	982.3	NA	0.0000		9999	6040	0	0	0
2015/11/23 01:31:00	BASE	4.78	308	5.04	311	-4.5	84	-6.8	0	0	982.3	NA	0.0000		9999	6070	0	0	0
2015/11/23 01:32:00	BASE	3.95	310	5.04	311	-4.6	84	-6.9	0	0	982.3	NA	0.0000		9999	6040	0	0	0
2015/11/23 01:33:00	BASE	3.35	322	5.04	311	-4.7	85	-6.9	0	0	982.3	NA	0.0000		9999	6000	14040	0	0
2015/11/23 01:34:00	BASE	3.43	322	5.04	311	-4.8	85	-6.9	0	0	982.3	NA	0.0000		9999	6000	14010	0	0
2015/11/23 01:35:00	BASE	3.25	326	5.04	311	-4.8	86	-6.8	0	0	982.3	NA	0.0000		9999	13980	0	0	0
2015/11/23 01:36:00	BASE	3.22	333	5.04	311	-4.8	86	-6.8	0	0	982.3	NA	0.0000		9999	6040	14010	0	0
2015/11/23 01:37:00	BASE	3.64	329	5.04	311	-4.8	86	-6.8	0	0	982.3	NA	0.0000		9999	5970	13980	0	0
2015/11/23 01:38:00	BASE	3.97	328	5.04	311	-4.7	86	-6.7	0	0	982.3	NA	0.0000		9999	5940	14010	0	0
2015/11/23 01:39:00	BASE	4.14	326	5.04	311	-4.6	85	-6.7	0	0	982.3	NA	0.0000		9999	5970	14010	0	0
2015/11/23 01:40:00	BASE	4.32	324	4.89	314	-4.6	85	-6.7	0	0	982.3	NA	0.0000		9999	6000	13980	0	0
2015/11/23 01:41:00	BASE	4.34	323	4.58	326	-4.5	85	-6.7	0	0	982.3	NA	0.0000		9999	5940	13940	0	0
2015/11/23 01:42:00	BASE	4.19	323	4.58	326	-4.5	84	-6.8	0	0	982.3	NA	0.0000		9999	5940	14010	0	0
2015/11/23 01:43:00	BASE	3.99	321	4.58	326	-4.6	84	-6.9	0	0	982.3	NA	0.0000		9999	5940	13980	0	0
2015/11/23 01:44:00	BASE	3.88	321	4.58	326	-4.7	84	-6.9	0	0	982.3	NA	0.0000		9999	6000	13980	0	0
2015/11/23 01:45:00	BASE	3.86	321	4.58	329	-4.8	84	-7.0	0	0	982.3	NA	0.0000		9999	5970	13980	0	0
2015/11/23 01:46:00	BASE	4.09	326	4.63	335	-4.8	85	-7.0	0	0	982.3	NA	0.0000		9999	5940	14080	0	0
2015/11/23 01:47:00	BASE	4.17	326	4.63	335	-4.9	85	-7.0	0	0	982.3	NA	0.0000		9999	5940	0	0	0
2015/11/23 01:48:00	BASE	3.84	327	4.63	335	-4.8	85	-7.0	0	0	982.3	NA	0.0000		9999	5940	0	0	0
2015/11/23 01:49:00	BASE	3.73	328	4.63	335	-4.8	85	-7.0	0	0	982.3	NA	0.0000		9999	5940	0	0	0
2015/11/23 01:50:00	BASE	3.82	326	4.63	335	-4.8	84	-7.0	0	0	982.2	NA	0.0000		9999	5940	0	0	0
2015/11/23 01:51:00	BASE	3.83	326	4.63	335	-4.7	84	-7.0	0	0	982.2	NA	0.0000		9999	5940	0	0	0
2015/11/23 01:52:00	BASE	3.79	331	4.63	335	-4.7	84	-7.0	0	0	982.2	NA	0.0000		9999	5910	0	0	0
2015/11/23 01:53:00	BASE	3.77	331	4.63	335	-4.7	84	-7.0	0	0	982.2	NA	0.0000		9999	5910	0	0	0
2015/11/23 01:54:00	BASE	3.81	331	4.63	335	-4.6	83	-7.0	0	0	982.2	NA	0.0000		9999	5940	14080	0	0
2015/11/23 01:55:00	BASE	3.94	329	4.63	335	-4.6	83	-7.0	0	0	982.1	NA	0.0000		9999	5940	0	0	0
2015/11/23 01:56:00	BASE	4.11	320	4.58	333	-4.6	83	-7.0	0	0	982.1	NA	0.0000		9999	5910	0	0	0
2015/11/23 01:57:00	BASE	4.07	320	4.58	333	-4.5	83	-7.0	0	0	982.1	NA	0.0000		9999	5910	0	0	0
2015/11/23 01:58:00	BASE	4.11	328	4.68	337	-4.5	83	-7.0	0	0	982.1	NA	0.0000		9999	5940	14140	0	0
2015/11/23 01:59:01	BASE	4.23	328	4.68	337	-4.5	83	-7.0	0	0	982.1	NA	0.0000		9999	5940	0	0	0
2015/11/23 02:00:00	BASE	4.16	331	4.68	337	-4.5	82	-7.0	0	0	982.1	NA	0.0000		9999	5970	14170	0	0
2015/11/23 02:01:00	BASE	4.25	329	4.78	333	-4.5	82	-7.1	0	0	982.1	NA	0.0000		9999	5910	14210	0	0
2015/11/23 02:02:00	BASE	4.30	329	4.78	333	-4.5	82	-7.1	0	0	982.0	NA	0.0000		9999	5940	13980	0	0
2015/11/23 02:03:00	BASE	4.39	336	5.14	346	-4.5	81	-7.2	0	0	982.0	NA	0.0000		9999	14080	0	0	0
2015/11/23 02:04:00	BASE	4.77	339	5.45	351	-4.5	81	-7.2	0	0	982.0	NA	0.0000		9999	12630	0	0	0
2015/11/23 02:05:00	BASE	4.95	336	5.45	351	-4.5	81	-7.2	0	0	982.0	NA	0.0000		9999	14010	0	0	0
2015/11/23 02:06:00	BASE	5.08	335	5.61	343	-4.5	81	-7.2	0	0	981.9	NA	0.0000		9999	14080	0	0	0
2015/11/23 02:07:00	BASE	5.19	332	5.61	343	-4.5	81	-7.2	0	0	981.8	NA	0.0000		9999	13160	14310	0	0
2015/11/23 02:08:00	BASE	5.25	332	5.61	343	-4.5	81	-7.2	0	0	981.8	NA	0.0000		9999	11880	14310	0	0
2015/11/23 02:09:00	BASE	5.36	330	5.92	346	-4.5	81	-7.2	0	0	981.8	NA	0.0000		9999	11750	12890	14270	0
2015/11/23 02:10:00	BASE	5.40	330	5.92	346	-4.4	81	-7.2	0	0	981.7	NA	0.0000		9999	10140	12400	12860	0
2015/11/23 02:11:00	BASE	5.43	335	5.92	346	-4.4	81	-7.2	0	0	981.7	NA	0.0000		9999	11190	12400	12960	0
2015/11/23 02:12:00	BASE	5.66	341	6.17	345	-4.4	81	-7.2	0	0	981.7	NA	0.0000		9999	10070	10890	12430	0
2015/11/23 02:13:00	BASE	5.92	340	6.28	346	-4.4	80	-7.3	0	0	981.7	NA	0.0000		9999	10040	10760	12270	0
2015/11/23 02:14:00	BASE	5.76	335	6.28	346	-4.4	80	-7.2	0	0	981.7	NA	0.0000		9999	9970	10730	11910	0
2015/11/23 02:15:00	BASE	5.68	335	6.28	346	-4.3	80	-7.2	0	0	981.7	NA	0.0000		9999	9940	10790	11750	0
2015/11/23 02:16:00	BASE	5.80	337	6.28	346	-4.3	80	-7.2	0	0	981.7	NA	0.0000		9999	9940	10760	0	0
2015/11/23 02:17:00	BASE	5.64	337	6.28	346	-4.3	80	-7.2	0	0	981.6	NA	0.0000		9999	9940	10830	12340	0
2015/11/23 02:18:00	BASE	5.78	340	6.33	348	-4.3	80	-7.2	0	0	981.6	NA	0.0000		9999	10830	12470	0	0
2015/11/23 02:19:00	BASE	6.09	340	6.69	351	-4.3	80	-7.3	0	0	981.6	NA	0.0000		9999	10830	12400	0	0
2015/11/23 02:20:00	BASE	5.91	302	6.69	351	-4.3	80	-7.3	0	0	981.6	NA	0.0000		9999	10990	0	0	0
2015/11/23 02:21:00	BASE	5.81	302	6.69	351	-4.4	79	-7.4	0	0	981.6	NA	0.0000		9999	10890	12530	0	0
2015/11/23 02:22:00	BASE	5.76	341	6.69	351	-4.4	79	-7.5	0	0	981.6	NA	0.0000		9999	10790	0	0	0
2015/11/23 02:23:00	BASE	5.81	337	6.69	351	-4.5	79	-7.6	0	0	981.6	NA	0.0000		9999	10760	12570	0	0
2015/11/23 02:24:00	BASE	6.03	337	6.74	339	-4.5	79	-7.7	0	0	981.6	NA	0.0000		9999	11060	0	0	0
2015/11/23 02:25:00	BASE	5.86	328	6.74	339	-4.5	78	-7.7	0	0	981.6	NA	0.0000		9999	12040	0	0	0
2015/11/23 02:26:00	BASE	5.86	328	6.74	337	-4.4	77	-7.8	0	0	981.6	NA	0.0000		9999	11980	0	0	0
2015/11/23 02:27:00	BASE	6.08	332	6.74	337	-4.3	76	-7.9	0	0	981.6	NA	0.0000		9999	11750	0	0	0
2015/11/23 02:28:00	BASE	5.90	329	6.74	337	-4.2	75	-8.0	0	0	981.6	NA	0.0000		9999	11350	0	0	0
2015/11/23 02:29:00	BASE	5.86	329	6.74	337	-4.1	74	-8.1	0	0	981.6	NA	0.0000		9999	11550	0	0	0
2015/11/23 02:30:00	BASE	6.08	338	6.74	337	-4.1	73	-8.2	0	0	981.6	NA	0.0000		9999	0	0	0	0
2015/11/23 02:31:00	BASE	5.85	333	6.74	337	-4.1	73	-8.2	0	0	981.6	NA	0.0000		9999	0	0	0	0
2015/11/23 02:32:00	BASE	5.72	311	7.00	344	-4.1	73	-8.3	0	0	981.5	NA	0.0000		9999	0	0	0	0
2015/11/23 02:33:00	BASE	5.85	311	7.00	344	-4.1	73	-8.3	0	0	981.5	NA	0.0000		9999	0	0	0	0
2015/11/23 02:34:00	BASE	5.97	192	7.00	344	-4.1	72	-8.3	0	0	981.5	NA	0.0000		9999	0	0	0	0
2015/11/23 02:35:00	BASE	5.93	192	7.00	344	-4.1	72	-8.4	0	0	981.5	NA	0.0000		9999	0	0	0	0
2015/11/23 02:36:00	BASE	5.76	273	7.00	344	-4.0	71	-8.5	0	0	981.5	NA	0.0000		9999	0	0	0	0
2015/11/23 02:37:00	BASE	5.63	261	7.00	344	-4.0	71	-8.5	0	0	981.5	NA	0.0000		9999	0	0	0	0
2015/11/23 02:38:00	BASE	5.48	261	7.00	344	-4.1	71	-8.6	0	0	981.5	NA	0.0000		9999	0	0	0	0
2015/11/23 02:39:00	BASE	5.76	287	7.00	344	-4.1	71	-8.6	0	0	981.5	NA	0.0000		9999	0	0	0	0
2015/11/23 02:40:00	BASE	6.11	287	7.00	344	-4.1	71	-8.7	0	0	981.5	NA	0.0000		9999	0	0	0	0
2015/11/23 02:41:00	BASE	6.00	287	7.00	344	-4.2	70	-8.8	0	0	981.5	NA	0.0000		9999	0	0	0	0
2015/11/23 02:42:00	BASE	5.65	287	6.89	352	-4.2	70	-8.9	0	0	981.5	NA	0.0000		9999	0	0	0	0
2015/11/23 02:43:00	BASE	5.59	326	6.89	352	-4.2	69	-8.9	0	0	981.4	NA	0.0000		9999	0	0	0	0
2015/11/23 02:44:00	BASE	6.02	341	6.84	352	-4.1	68	-9.1	0	0	981.4	NA	0.0000		9999	0	0	0	0
2015/11/23 02:45:00	BASE	6.24	341	7.15	349	-4.1	68	-9.2	0	0	981.4	NA	0.0000		9999	0	0	0	0
2015/11/23 02:46:00	BASE	6.08	187	7.15	349	-4.1	67	-9.4	0	0	981.4	NA	0.0000		9999	0	0	0	0
2015/11/23 02:47:00	BASE	5.97	187	7.15	349	-4.1	66	-9.5	0	0	981.4	NA	0.0000		9999	0	0	0	0
2015/11/23 02:48:00	BASE	5.81	275	7.15	349	-4.1	65	-9.6	0	0	981.3	NA	0.0000		9999	0	0	0	0
2015/11/23 02:49:00	BASE	5.89	241	7.15	349	-4.1	65	-9.7	0	0	981.2	NA	0.0000		9999	0	0	0	0
2015/11/23 02:50:00	BASE	6.14	200	7.15	349	-4.1	64	-9.8	0	0	981.3	NA	0.0000		9999	0	0	0	0
2015/11/23 02:51:00	BASE	5.93	200	7.15	349	-4.1	64	-9.9	0	0	981.3	NA	0.0000		9999	0	0	0	0
2015/11/23 02:52:00	BASE	5.83	212	7.15	349	-4.1	64	-9.9	0	0	981.3	NA	0.0000		9999	0	0	0	0
2015/11/23 02:53:00	BASE	5.95	308	7.15	349	-4.1	64	-10.0	0	0	981.3	NA	0.0000		9999	0	0	0	0
2015/11/23 02:54:00	BASE	5.80	292	7.15	349	-4.2	64	-10.0	0	0	981.3	NA	0.0000		9999	0	0	0	0
2015/11/23 02:55:00	BASE	5.42	292	6.53	354	-4.2	64	-10.1	0	0	981.2	NA	0.0000		9999	12140	0	0	0
2015/11/23 02:56:00	BASE	5.31	324	6.53	354	-4.3	64	-10.1	0	0	981.2	NA	0.0000		9999	12240	0	0	0
2015/11/23 02:57:00	BASE	5.39	324	6.53	354	-4.3	64	-10.2	0	0	981.2	NA	0.0000		9999	0	0	0	0
2015/11/23 02:58:00	BASE	5.46	353	6.53	354	-4.4	64	-10.1	0	0	981.2	NA	0.0000		9999	0	0	0	0
2015/11/23 02:59:00	BASE	5.56	350	6.53	354	-4.3	64	-10.2	0	0	981.2	NA	0.0000		9999	0	0	0	0
2015/11/23 03:00:00	BASE	5.29	337	6.48	354	-4.3	63	-10.2	0	0	981.2	NA	0.0000		9999	12340	0	0	0
2015/11/23 03:01:00	BASE	4.89	337	6.48	354	-4.3	63	-10.3	0	0	981.2	NA	0.0000		9999	12600	0	0	0
2015/11/23 03:02:00	BASE	4.84	341	6.48	354	-4.2	62	-10.4	0	0	981.2	NA	0.0000		9999	12730	0	0	0
2015/11/23 03:03:00	BASE	4.89	276	6.48	354	-4.1	61	-10.5	0	0	981.2	NA	0.0000		9999	12660	0	0	0
2015/11/23 03:04:00	BASE	5.02	276	6.12	3	-4.1	61	-10.6	0	0	981.2	NA	0.0000		9999	12830	0	0	0
2015/11/23 03:05:00	BASE	4.92	281	6.07	360	-4.0	60	-10.7	0	0	981.2	NA	0.0000		9999	13090	0	0	0
2015/11/23 03:06:00	BASE	4.55	337	6.07	360	-3.9	59	-10.7	0	0	981.2	NA	0.0000		9999	13190	0	0	0
2015/11/23 03:07:00	BASE	4.63	243	6.07	360	-3.9	59	-10.7	0	0	981.2	NA	0.0000		9999	13120	0	0	0
2015/11/23 03:08:00	BASE	5.01	243	6.17	360	-3.9	60	-10.7	0	0	981.2	NA	0.0000		9999	12990	0	0	0
2015/11/23 03:09:00	BASE	5.48	345	6.17	360	-3.9	59	-10.7	0	0	981.1	NA	0.0000		9999	12960	0	0	0
2015/11/23 03:10:00	BASE	5.81	352	6.53	360	-3.9	59	-10.8	0	0	981.0	NA	0.0000		9999	12890	0	0	0
2015/11/23 03:11:00	BASE	5.76	352	6.53	360	-3.8	58	-10.8	0	0	981.0	NA	0.0000		9999	12500	0	0	0
2015/11/23 03:12:00	BASE	5.54	349	6.53	360	-3.7	57	-11.0	0	0	981.0	NA	0.0000		9999	12300	0	0	0
2015/11/23 03:13:00	BASE	5.39	349	6.53	360	-3.7	56	-11.1	0	0	981.0	NA	0.0000		9999	11940	0	0	0
2015/11/23 03:14:00	BASE	5.41	326	6.53	360	-3.7	56	-11.2	0	0	981.0	NA	0.0000		9999	11520	0	0	0
2015/11/23 03:15:00	BASE	5.55	326	6.53	360	-3.7	56	-11.3	0	0	981.0	NA	0.0000		9999	9150	0	0	0
2015/11/23 03:16:00	BASE	5.61	344	6.53	360	-3.7	55	-11.3	0	0	981.0	NA	0.0000		9999	10140	0	0	0
2015/11/23 03:17:00	BASE	5.68	331	6.53	360	-3.7	55	-11.3	0	0	980.9	NA	0.0000		9999	9380	0	0	0
2015/11/23 03:18:00	BASE	5.77	188	6.53	360	-3.7	56	-11.3	0	0	980.9	NA	0.0000		9999	9380	0	0	0
2015/11/23 03:19:00	BASE	5.55	188	6.53	360	-3.7	56	-11.3	0	0	980.9	NA	0.0000		9999	9150	0	0	0
2015/11/23 03:20:00	BASE	5.39	348	6.48	360	-3.8	56	-11.2	0	0	980.9	NA	0.0000		9999	8600	0	0	0
2015/11/23 03:21:00	BASE	5.46	354	6.48	360	-3.8	57	-11.1	0	0	980.9	NA	0.0000		9999	8460	0	0	0
2015/11/23 03:22:00	BASE	5.56	355	6.48	360	-3.8	57	-11.1	0	0	980.9	NA	0.0000		9999	8370	0	0	0
2015/11/23 03:23:00	BASE	5.86	360	6.58	360	-3.8	57	-11.1	0	0	980.8	NA	0.0000		9999	8270	0	0	0
2015/11/23 03:24:00	BASE	6.18	354	6.64	354	-3.7	57	-11.1	0	0	980.8	NA	0.0000		9999	8240	0	0	0
2015/11/23 03:25:00	BASE	6.30	338	6.64	2	-3.6	56	-11.2	0	0	980.8	NA	0.0000		9999	8070	0	0	0
2015/11/23 03:26:00	BASE	6.21	338	6.84	1	-3.5	55	-11.3	0	0	980.8	NA	0.0000		9999	8040	0	0	0
2015/11/23 03:27:00	BASE	6.04	360	6.84	1	-3.5	55	-11.3	0	0	980.8	NA	0.0000		9999	8040	0	0	0
2015/11/23 03:28:00	BASE	6.18	331	7.10	1	-3.5	55	-11.3	0	0	980.8	NA	0.0000		9999	7870	0	0	0
2015/11/23 03:29:00	BASE	6.19	288	7.10	1	-3.4	54	-11.4	0	0	980.8	NA	0.0000		9999	7870	0	0	0
2015/11/23 03:30:00	BASE	6.16	268	7.10	1	-3.4	54	-11.4	0	0	980.7	NA	0.0000		9999	7810	0	0	0
2015/11/23 03:31:00	BASE	6.05	246	7.10	1	-3.4	54	-11.3	0	0	980.7	NA	0.0000		9999	7780	0	0	0
2015/11/23 03:32:00	BASE	5.89	246	7.10	1	-3.4	54	-11.3	0	0	980.7	NA	0.0000		9999	7780	0	0	0
2015/11/23 03:33:00	BASE	6.28	1	7.31	17	-3.3	54	-11.3	0	0	980.7	NA	0.0000		9999	7740	0	0	0
2015/11/23 03:34:00	BASE	6.64	7	7.31	17	-3.4	54	-11.3	0	0	980.7	NA	0.0000		9999	7680	0	0	0
2015/11/23 03:35:00	BASE	6.43	4	7.31	17	-3.4	55	-11.2	0	0	980.7	NA	0.0000		9999	7710	0	0	0
2015/11/23 03:36:00	BASE	6.19	2	7.31	17	-3.4	55	-11.1	0	0	980.7	NA	0.0000		9999	7580	0	0	0
2015/11/23 03:37:00	BASE	6.10	360	7.31	17	-3.5	56	-11.1	0	0	980.7	NA	0.0000		9999	7640	0	0	0
2015/11/23 03:38:00	BASE	5.57	360	7.31	17	-3.5	56	-11.1	0	0	980.7	NA	0.0000		9999	7710	0	0	0
2015/11/23 03:39:00	BASE	4.81	1	7.31	17	-3.5	56	-11.0	0	0	980.7	NA	0.0000		9999	7810	0	0	0
2015/11/23 03:40:00	BASE	4.57	1	7.31	17	-3.5	56	-11.0	0	0	980.6	NA	0.0000		9999	7810	0	0	0
2015/11/23 03:41:00	BASE	5.08	360	7.31	17	-3.5	56	-10.9	0	0	980.6	NA	0.0000		9999	7710	0	0	0
2015/11/23 03:42:00	BASE	5.82	360	7.46	142	-3.5	56	-10.9	0	0	980.5	NA	0.0000		9999	7640	0	0	0
2015/11/23 03:43:00	BASE	6.22	360	7.46	142	-3.5	57	-10.9	0	0	980.4	NA	0.0000		9999	7840	0	0	0
2015/11/23 03:44:00	BASE	6.37	360	7.46	142	-3.4	56	-10.9	0	0	980.4	NA	0.0000		9999	7870	0	0	0
2015/11/23 03:45:00	BASE	6.38	360	7.46	142	-3.4	56	-11.0	0	0	980.4	NA	0.0000		9999	8010	0	0	0
2015/11/23 03:46:00	BASE	6.02	354	7.46	142	-3.3	55	-11.0	0	0	980.4	NA	0.0000		9999	8100	0	0	0
2015/11/23 03:47:00	BASE	5.65	354	7.46	142	-3.3	56	-11.0	0	0	980.4	NA	0.0000		9999	8170	0	0	0
2015/11/23 03:48:00	BASE	5.81	287	7.46	142	-3.4	56	-10.9	0	0	980.3	NA	0.0000		9999	8170	0	0	0
2015/11/23 03:49:00	BASE	6.23	287	7.46	142	-3.4	57	-10.8	0	0	980.3	NA	0.0000		9999	8010	0	0	0
2015/11/23 03:50:00	BASE	6.54	360	7.46	142	-3.4	57	-10.7	0	0	980.3	NA	0.0000		9999	7940	0	0	0
2015/11/23 03:51:00	BASE	6.68	335	7.46	142	-3.4	57	-10.7	0	0	980.2	NA	0.0000		9999	7840	0	0	0
2015/11/23 03:52:00	BASE	6.80	335	7.41	1	-3.4	57	-10.6	0	0	980.3	NA	0.0000		9999	7840	0	0	0
2015/11/23 03:53:00	BASE	6.99	352	7.61	360	-3.3	57	-10.7	0	0	980.2	NA	0.0000		9999	7810	0	0	0
2015/11/23 03:54:00	BASE	7.04	352	7.61	360	-3.3	56	-10.8	0	0	980.3	NA	0.0000		9999	7840	0	0	0
2015/11/23 03:55:00	BASE	6.85	354	7.61	360	-3.3	56	-10.8	0	0	980.3	NA	0.0000		9999	7870	0	0	0
2015/11/23 03:56:00	BASE	6.56	354	7.61	360	-3.2	56	-10.8	0	0	980.3	NA	0.0000		9999	7870	0	0	0
2015/11/23 03:57:00	BASE	6.45	328	7.61	360	-3.3	56	-10.8	0	0	980.2	NA	0.0000		9999	7810	0	0	0
2015/11/23 03:58:00	BASE	6.36	328	7.61	360	-3.3	56	-10.8	0	0	980.3	NA	0.0000		9999	7780	0	0	0
2015/11/23 03:59:00	BASE	6.10	354	7.61	360	-3.3	56	-10.8	0	0	980.3	NA	0.0000		9999	7780	0	0	0
2015/11/23 04:00:00	BASE	6.07	360	7.61	360	-3.3	57	-10.7	0	0	980.3	NA	0.0000		9999	7780	0	0	0
2015/11/23 04:01:00	BASE	6.00	345	7.61	360	-3.3	57	-10.7	0	0	980.3	NA	0.0000		9999	7910	0	0	0
2015/11/23 04:02:00	BASE	5.65	345	7.61	360	-3.3	57	-10.7	0	0	980.3	NA	0.0000		9999	7940	0	0	0
2015/11/23 04:03:00	BASE	5.67	354	7.31	360	-3.3	57	-10.7	0	0	980.3	NA	0.0000		9999	8040	0	0	0
2015/11/23 04:04:00	BASE	5.61	354	7.31	360	-3.4	57	-10.6	0	0	980.3	NA	0.0000		9999	8070	0	0	0
2015/11/23 04:05:00	BASE	5.34	360	7.25	360	-3.3	57	-10.6	0	0	980.3	NA	0.0000		9999	8070	0	0	0
2015/11/23 04:06:00	BASE	5.45	1	6.84	2	-3.3	57	-10.7	0	0	980.3	NA	0.0000		9999	8100	0	0	0
2015/11/23 04:07:00	BASE	5.49	1	6.74	354	-3.3	57	-10.7	0	0	980.3	NA	0.0000		9999	7970	0	0	0
2015/11/23 04:08:00	BASE	5.35	1	6.58	4	-3.4	57	-10.6	0	0	980.3	NA	0.0000		9999	7910	0	0	0
2015/11/23 04:09:00	BASE	5.38	3	6.58	4	-3.4	58	-10.5	0	0	980.3	NA	0.0000		9999	7910	0	0	0
2015/11/23 04:10:00	BASE	5.41	3	6.53	360	-3.5	59	-10.4	0	0	980.3	NA	0.0000		9999	7840	0	0	0
2015/11/23 04:11:00	BASE	5.33	7	6.53	360	-3.5	59	-10.3	0	0	980.3	NA	0.0000		9999	7840	0	0	0
2015/11/23 04:12:00	BASE	5.29	8	6.38	354	-3.5	59	-10.3	0	0	980.2	NA	0.0000		9999	7740	0	0	0
2015/11/23 04:13:00	BASE	5.31	10	5.86	3	-3.5	59	-10.4	0	0	980.2	NA	0.0000		9999	7780	0	0	0
2015/11/23 04:14:00	BASE	5.38	10	5.86	3	-3.4	57	-10.7	0	0	980.2	NA	0.0000		9999	7870	0	0	0
2015/11/23 04:15:00	BASE	5.43	11	6.02	14	-3.3	56	-10.9	0	0	980.1	NA	0.0000		9999	7940	0	0	0
2015/11/23 04:16:00	BASE	5.25	4	6.02	14	-3.2	54	-11.1	0	0	980.1	NA	0.0000		9999	7970	0	0	0
2015/11/23 04:17:00	BASE	5.23	4	6.02	14	-3.1	53	-11.3	0	0	980.1	NA	0.0000		9999	8010	0	0	0
2015/11/23 04:18:00	BASE	5.47	6	6.07	19	-3.1	52	-11.4	0	0	980.1	NA	0.0000		9999	8240	0	0	0
2015/11/23 04:19:00	BASE	5.86	6	6.58	15	-3.0	52	-11.5	0	0	980.0	NA	0.0000		9999	8630	0	0	0
2015/11/23 04:20:00	BASE	6.56	10	7.72	21	-3.0	52	-11.4	0	0	979.9	NA	0.0000		9999	8830	0	0	0
2015/11/23 04:21:00	BASE	6.99	12	7.72	21	-3.1	53	-11.4	0	0	979.9	NA	0.0000		9999	8830	0	0	0
2015/11/23 04:22:00	BASE	7.29	6	8.85	10	-3.1	53	-11.3	0	0	979.8	NA	0.0000		9999	8830	0	0	0
2015/11/23 04:23:00	BASE	8.02	6	9.67	12	-3.1	54	-11.2	0	0	979.8	NA	0.0000		9999	8790	0	0	0
2015/11/23 04:24:00	BASE	8.34	8	9.67	12	-3.1	54	-11.2	0	0	979.7	NA	0.0000		9999	8660	0	0	0
2015/11/23 04:25:00	BASE	8.19	9	9.67	12	-3.2	54	-11.1	0	0	979.7	NA	0.0000		9999	8400	0	0	0
2015/11/23 04:26:00	BASE	8.28	9	9.67	12	-3.2	54	-11.1	0	0	979.6	NA	0.0000		9999	8100	0	0	0
2015/11/23 04:27:00	BASE	8.70	8	10.13	12	-3.2	55	-11.0	0	0	979.6	NA	0.0000		9999	7840	0	0	0
2015/11/23 04:28:00	BASE	9.06	7	10.13	17	-3.2	55	-10.9	0	0	979.5	NA	0.0000		9999	7610	0	0	0
2015/11/23 04:29:00	BASE	9.58	7	10.44	11	-3.3	56	-10.9	0	0	979.5	NA	0.0000		9999	5810	0	0	0
2015/11/23 04:30:00	BASE	9.92	7	10.55	12	-3.3	56	-10.8	0	0	979.4	NA	0.0000		9999	5770	0	0	0
2015/11/23 04:31:00	BASE	10.00	7	10.91	12	-3.3	57	-10.7	0	0	979.4	NA	0.0000		9999	5770	0	0	0
2015/11/23 04:32:00	BASE	10.10	8	10.91	12	-3.4	57	-10.6	0	0	979.4	NA	0.0000		9999	7090	0	0	0
2015/11/23 04:33:00	BASE	10.35	9	11.32	12	-3.4	58	-10.6	0	0	979.4	NA	0.0000		9999	7090	0	0	0
2015/11/23 04:34:00	BASE	10.57	9	11.42	14	-3.4	58	-10.4	0	0	979.4	NA	0.0000		9999	7050	0	0	0
2015/11/23 04:35:00	BASE	10.49	8	11.42	14	-3.5	59	-10.3	0	0	979.4	NA	0.0000		9999	7050	0	0	0
2015/11/23 04:36:00	BASE	10.36	8	11.42	14	-3.6	61	-10.1	0	0	979.4	NA	0.0000		9999	5020	0	0	0
2015/11/23 04:37:00	BASE	10.17	3	11.42	14	-3.7	62	-10.0	0	0	979.5	NA	0.0000		9999	4990	0	0	0
2015/11/23 04:38:00	BASE	10.22	3	11.42	14	-3.7	63	-9.8	0	0	979.4	NA	0.0000		9999	4860	0	0	0
2015/11/23 04:39:00	BASE	10.35	12	11.42	14	-3.8	63	-9.9	0	0	979.4	NA	0.0000		9999	4720	0	0	0
2015/11/23 04:40:00	BASE	10.17	10	11.42	14	-3.7	62	-10.0	0	0	979.4	NA	0.0000		9999	4630	0	0	0
2015/11/23 04:41:00	BASE	9.92	9	11.42	14	-3.7	61	-10.1	0	0	979.3	NA	0.0000		9999	4560	0	0	0
2015/11/23 04:42:00	BASE	9.92	9	11.42	14	-3.6	60	-10.2	0	0	979.4	NA	0.0000		9999	4630	0	0	0
2015/11/23 04:43:00	BASE	10.10	9	11.42	14	-3.5	59	-10.4	0	0	979.3	NA	0.0000		9999	4920	0	0	0
2015/11/23 04:44:00	BASE	10.14	7	11.21	10	-3.5	59	-10.5	0	0	979.3	NA	0.0000		9999	4920	0	0	0
2015/11/23 04:45:00	BASE	10.22	7	11.11	16	-3.5	59	-10.4	0	0	979.3	NA	0.0000		9999	4890	0	0	0
2015/11/23 04:46:00	BASE	10.25	8	11.11	16	-3.5	58	-10.5	0	0	979.3	NA	0.0000		9999	4920	0	0	0
2015/11/23 04:47:00	BASE	10.01	7	11.11	16	-3.5	58	-10.6	0	0	979.3	NA	0.0000		9999	4890	0	0	0
2015/11/23 04:48:00	BASE	10.03	7	11.11	16	-3.5	58	-10.5	0	0	979.3	NA	0.0000		9999	4820	0	0	0
2015/11/23 04:49:00	BASE	10.09	5	11.11	16	-3.5	59	-10.4	0	0	979.2	NA	0.0000		9999	4790	0	0	0
2015/11/23 04:50:00	BASE	10.23	5	11.11	16	-3.5	59	-10.4	0	0	979.2	NA	0.0000		9999	4760	0	0	0
2015/11/23 04:51:00	BASE	10.41	4	11.11	16	-3.5	60	-10.2	0	0	979.2	NA	0.0000		9999	4720	0	0	0
2015/11/23 04:52:00	BASE	10.38	4	11.21	18	-3.5	60	-10.1	0	0	979.2	NA	0.0000		9999	4690	0	0	0
2015/11/23 04:53:00	BASE	10.44	9	11.21	18	-3.6	60	-10.1	0	0	979.2	NA	0.0000		9999	4590	0	0	0
2015/11/23 04:54:00	BASE	10.37	10	11.21	18	-3.5	60	-10.2	0	0	979.2	NA	0.0000		9999	4400	0	0	0
2015/11/23 04:55:00	BASE	10.26	8	11.21	14	-3.5	60	-10.2	0	0	979.2	NA	0.0000		9999	5770	0	0	0
2015/11/23 04:56:00	BASE	9.94	5	11.21	14	-3.5	60	-10.3	0	0	979.2	NA	0.0000		9999	4720	0	0	0
2015/11/23 04:57:00	BASE	9.66	5	11.21	14	-3.5	59	-10.3	0	0	979.2	NA	0.0000		9999	4430	0	0	0
2015/11/23 04:58:00	BASE	9.69	10	11.21	14	-3.5	59	-10.4	0	0	979.2	NA	0.0000		9999	4460	0	0	0
2015/11/23 04:59:00	BASE	9.52	10	11.21	14	-3.5	59	-10.3	0	0	979.2	NA	0.0000		9999	4200	0	0	0
2015/11/23 05:00:00	BASE	9.33	10	11.21	14	-3.5	60	-10.2	0	0	979.2	NA	0.0000		9999	4170	0	0	0
2015/11/23 05:01:00	BASE	9.27	12	11.21	14	-3.5	60	-10.2	0	0	979.2	NA	0.0000		9999	4040	0	0	0
2015/11/23 05:02:00	BASE	9.05	14	11.21	14	-3.5	60	-10.1	0	0	979.2	NA	0.0000		9999	3900	0	0	0
2015/11/23 05:03:00	BASE	8.99	10	11.21	14	-3.5	61	-10.0	0	0	979.2	NA	0.0000		9999	5970	0	0	0
2015/11/23 05:04:00	BASE	9.05	10	11.21	14	-3.5	61	-10.0	0	0	979.2	NA	0.0000		9999	6140	0	0	0
2015/11/23 05:05:00	BASE	8.88	9	10.85	12	-3.5	61	-10.0	0	0	979.2	NA	0.0000		9999	4170	0	0	0
2015/11/23 05:06:00	BASE	8.79	9	10.85	12	-3.5	61	-10.0	0	0	979.2	NA	0.0000		9999	4230	0	0	0
2015/11/23 05:07:00	BASE	9.11	9	10.49	12	-3.5	61	-10.0	0	0	979.2	NA	0.0000		9999	4200	0	0	0
2015/11/23 05:08:00	BASE	9.43	8	10.49	12	-3.5	61	-9.9	0	0	979.2	NA	0.0000		9999	4200	0	0	0
2015/11/23 05:09:00	BASE	9.29	8	10.49	12	-3.5	61	-9.9	0	0	979.2	NA	0.0000		9999	5810	0	0	0
2015/11/23 05:10:00	BASE	9.38	8	10.49	12	-3.5	62	-9.8	0	0	979.2	NA	0.0000		9999	5710	0	0	0
2015/11/23 05:11:00	BASE	9.64	4	10.49	12	-3.5	62	-9.7	0	0	979.2	NA	0.0000		9999	5610	0	0	0
2015/11/23 05:12:00	BASE	9.43	3	10.49	12	-3.5	63	-9.6	0	0	979.2	NA	0.0000		9999	5640	0	0	0
2015/11/23 05:13:00	BASE	9.24	3	10.49	12	-3.5	63	-9.5	0	0	979.2	NA	0.0000		9999	5640	0	0	0
2015/11/23 05:14:00	BASE	9.05	5	10.49	12	-3.6	64	-9.4	0	0	979.2	NA	0.0000		9999	5680	0	0	0
2015/11/23 05:15:00	BASE	8.92	3	10.49	12	-3.6	64	-9.4	0	0	979.2	NA	0.0000		9999	5480	0	0	0
2015/11/23 05:16:00	BASE	9.01	3	10.49	12	-3.6	64	-9.3	0	0	979.2	NA	0.0000		9999	4130	0	0	0
2015/11/23 05:17:00	BASE	8.82	3	10.44	11	-3.5	64	-9.4	0	0	979.2	NA	0.0000		9999	4100	0	0	0
2015/11/23 05:18:00	BASE	8.64	3	10.44	11	-3.5	64	-9.4	0	0	979.2	NA	0.0000		9999	5280	0	0	0
2015/11/23 05:19:00	BASE	8.58	4	10.44	11	-3.5	63	-9.5	0	0	979.2	NA	0.0000		9999	5320	0	0	0
2015/11/23 05:20:00	BASE	8.50	4	10.24	20	-3.4	63	-9.5	0	0	979.1	NA	0.0000		9999	5350	0	0	0
2015/11/23 05:21:00	BASE	8.40	4	10.13	12	-3.4	63	-9.5	0	0	979.1	NA	0.0000		9999	5350	0	0	0
2015/11/23 05:22:00	BASE	8.04	3	9.98	5	-3.4	63	-9.5	0	0	979.1	NA	0.0000		9999	4270	0	0	0
2015/11/23 05:23:00	BASE	8.28	3	9.88	3	-3.4	63	-9.5	0	0	979.1	NA	0.0000		9999	4200	0	0	0
2015/11/23 05:24:00	BASE	8.20	8	9.88	3	-3.4	63	-9.4	0	0	979.1	NA	0.0000		9999	4270	0	0	0
2015/11/23 05:25:00	BASE	7.74	6	9.88	3	-3.4	64	-9.3	0	0	979.0	NA	0.0000		9999	4330	0	0	0
2015/11/23 05:26:00	BASE	7.96	6	9.88	3	-3.4	64	-9.3	0	0	979.0	NA	0.0000		9999	5380	0	0	0
2015/11/23 05:27:00	BASE	7.90	6	9.77	10	-3.4	64	-9.3	0	0	979.0	NA	0.0000		9999	4490	0	0	0
2015/11/23 05:28:00	BASE	7.72	6	9.77	10	-3.4	64	-9.3	0	0	978.9	NA	0.0000		9999	5580	0	0	0
2015/11/23 05:29:00	BASE	7.47	8	9.77	10	-3.4	63	-9.4	0	0	978.9	NA	0.0000		9999	5710	0	0	0
2015/11/23 05:30:00	BASE	7.10	7	9.41	14	-3.4	63	-9.4	0	0	978.9	NA	0.0000		9999	5810	0	0	0
2015/11/23 05:31:00	BASE	7.18	7	9.41	14	-3.4	63	-9.4	0	0	978.8	NA	0.0000		9999	5770	0	0	0
2015/11/23 05:32:00	BASE	7.70	7	9.41	14	-3.4	63	-9.4	0	0	978.7	NA	0.0000		9999	5710	0	0	0
2015/11/23 05:33:00	BASE	7.72	5	9.05	11	-3.4	63	-9.4	0	0	978.6	NA	0.0000		9999	5680	0	0	0
2015/11/23 05:34:00	BASE	7.68	1	9.05	11	-3.4	63	-9.4	0	0	978.5	NA	0.0000		9999	4100	0	0	0
2015/11/23 05:35:02	BASE	8.62	1	10.44	14	-3.4	63	-9.4	0	0	978.4	NA	0.0000		9999	3970	0	0	0
2015/11/23 05:36:01	BASE	8.57	5	10.44	14	-3.4	63	-9.4	0	0	978.4	NA	0.0000		9999	4070	0	0	0
2015/11/23 05:37:00	BASE	8.55	5	10.44	9	-3.5	64	-9.3	0	0	978.3	NA	0.0000		9999	4040	0	0	0
2015/11/23 05:38:00	BASE	9.58	3	10.91	13	-3.5	64	-9.2	0	0	978.2	NA	0.0000		9999	3870	0	0	0
2015/11/23 05:40:00	BASE	10.15	3	10.91	13	-3.5	65	-9.1	0	0	978.1	NA	0.0000		9999	4300	0	0	0
2015/11/23 05:41:00	BASE	10.59	8	12.19	17	-3.5	66	-9.0	0	0	978.0	NA	0.0000		9999	4270	0	0	0
2015/11/23 05:42:00	BASE	11.27	7	12.66	17	-3.6	67	-8.8	0	0	977.9	NA	0.0000		9999	4270	0	0	0
2015/11/23 05:43:00	BASE	11.36	7	12.66	17	-3.6	67	-8.7	0	0	977.9	NA	0.0000		9999	4300	0	0	0
2015/11/23 05:44:00	BASE	11.24	8	12.71	21	-3.6	68	-8.6	0	0	977.9	NA	0.0000		9999	4430	0	0	0
2015/11/23 05:45:00	BASE	10.98	8	12.71	21	-3.5	68	-8.6	0	0	977.9	NA	0.0000		9999	6040	0	0	0
2015/11/23 05:46:00	BASE	10.43	17	12.71	21	-3.5	68	-8.5	0	0	977.9	NA	0.0000		9999	4460	0	0	0
2015/11/23 05:47:00	BASE	9.86	10	12.71	21	-3.5	69	-8.5	0	0	977.8	NA	0.0000		9999	6300	0	0	0
2015/11/23 05:48:00	BASE	9.73	10	12.71	21	-3.5	69	-8.4	0	0	977.8	NA	0.0000		9999	6370	0	0	0
2015/11/23 05:49:00	BASE	10.32	13	12.71	21	-3.5	70	-8.3	0	0	977.7	NA	0.0000		9999	6460	0	0	0
2015/11/23 05:50:00	BASE	11.01	8	12.91	16	-3.6	70	-8.2	0	0	977.6	NA	0.0000		9999	5220	0	0	0
2015/11/23 05:51:00	BASE	12.14	7	14.20	28	-3.6	70	-8.2	0	0	977.4	NA	0.0000		9999	4760	0	0	0
2015/11/23 05:52:00	BASE	12.96	7	14.35	30	-3.6	70	-8.2	0	0	977.4	NA	0.0000		9999	6530	0	0	0
2015/11/23 05:53:00	BASE	13.08	9	14.35	30	-3.6	70	-8.2	0	0	977.3	NA	0.0000		9999	6690	0	0	0
2015/11/23 05:54:00	BASE	13.35	9	15.95	14	-3.6	70	-8.2	0	0	977.1	NA	0.0000		9999	6790	0	0	0
2015/11/23 05:55:00	BASE	13.74	12	16.00	14	-3.6	70	-8.2	0	0	977.0	NA	0.0000		9999	6960	0	0	0
2015/11/23 05:56:00	BASE	14.30	13	16.20	25	-3.6	70	-8.2	0	0	977.0	NA	0.0000		9999	5540	0	0	0
2015/11/23 05:57:00	BASE	14.93	12	17.23	23	-3.6	70	-8.2	0	0	976.9	NA	0.0000		9999	5380	0	0	0
2015/11/23 05:58:00	BASE	15.36	12	17.23	23	-3.6	70	-8.2	0	0	976.8	NA	0.0000		7000	5450	0	0	0
2015/11/23 05:59:00	BASE	15.72	23	17.23	23	-3.5	70	-8.2	0	0	976.8	NA	0.0000		6000	5450	0	0	0
2015/11/23 06:00:00	BASE	16.01	20	17.85	24	-3.5	70	-8.2	0	0	976.8	NA	0.0000	HZ	5000	5610	0	0	0
2015/11/23 06:01:00	BASE	16.08	19	17.85	24	-3.5	70	-8.2	0	0	976.7	NA	0.0000	HZ	4900	5640	0	0	0
2015/11/23 06:02:00	BASE	16.03	19	17.85	24	-3.6	70	-8.2	0	0	976.7	NA	0.0000	HZ	4700	5280	0	0	0
2015/11/23 06:03:00	BASE	16.19	20	17.85	24	-3.6	70	-8.2	0	0	976.6	NA	0.0000	HZ	5000	5090	0	0	0
2015/11/23 06:04:00	BASE	16.41	20	17.85	29	-3.6	70	-8.2	0	0	976.6	NA	0.0000	HZ	5000	6760	0	0	0
2015/11/23 06:05:00	BASE	15.99	20	17.85	29	-3.6	71	-8.2	0	0	976.6	NA	0.0000	-PL	4700	4950	0	0	0
2015/11/23 06:06:00	BASE	15.93	20	17.85	29	-3.6	71	-8.2	0	0	976.6	NA	0.0000	-PL	5000	6960	0	0	0
2015/11/23 06:07:00	BASE	16.53	20	17.85	29	-3.6	71	-8.2	0	0	976.5	NA	0.0000	-PL	5000	5090	0	0	0
2015/11/23 06:08:00	BASE	16.55	20	17.85	29	-3.6	71	-8.2	0	0	976.5	NA	0.0000	-PL	3900	5220	0	0	0
2015/11/23 06:09:00	BASE	16.58	21	18.11	28	-3.6	71	-8.1	0	0	976.4	NA	0.0000	-PL	3300	5380	0	0	0
2015/11/23 06:10:00	BASE	16.74	21	18.11	28	-3.6	71	-8.1	0	0	976.4	NA	0.0000	-PL	4900	5480	0	0	0
2015/11/23 06:11:00	BASE	17.12	24	18.57	28	-3.6	71	-8.1	0	0	976.3	NA	0.0000	-PL	4900	5320	0	0	0
2015/11/23 06:12:00	BASE	17.12	22	18.57	28	-3.6	71	-8.1	0	0	976.3	NA	0.0000	-PL	4600	4920	0	0	0
2015/11/23 06:13:00	BASE	16.70	22	18.57	28	-3.6	71	-8.1	0	0	976.3	NA	0.0000	-PL	4700	4860	0	0	0
2015/11/23 06:14:00	BASE	16.25	21	18.57	28	-3.5	70	-8.1	0	0	976.3	NA	0.0000	-PL	5000	4820	0	0	0
2015/11/23 06:15:00	BASE	16.27	21	18.57	28	-3.5	70	-8.1	0	0	976.2	NA	0.0000	-PL	6000	4790	0	0	0
2015/11/23 06:16:00	BASE	16.71	20	18.57	28	-3.5	70	-8.2	0	0	976.2	NA	0.0000	-PL	5000	4720	0	0	0
2015/11/23 06:17:00	BASE	16.68	20	18.57	28	-3.6	70	-8.2	0	0	976.2	NA	0.0000	-PL	4100	4990	0	0	0
2015/11/23 06:18:00	BASE	16.91	21	18.57	28	-3.6	71	-8.1	0	0	976.2	NA	0.0000	-PL	3200	4990	0	0	0
2015/11/23 06:19:00	BASE	17.18	26	18.57	28	-3.6	71	-8.1	0	0	976.1	NA	0.0000	-PL	3000	4990	0	0	0
2015/11/23 06:20:00	BASE	17.31	25	18.57	28	-3.6	71	-8.1	0	0	976.1	NA	0.0000	-PL	3500	5020	0	0	0
2015/11/23 06:21:00	BASE	17.20	25	18.37	29	-3.6	71	-8.0	0	0	976.1	NA	0.0000	-PL	3000	4950	0	0	0
2015/11/23 06:22:00	BASE	16.91	25	18.37	29	-3.6	72	-8.0	0	0	976.1	NA	0.0000	-PL	2500	4990	0	0	0
2015/11/23 06:23:00	BASE	16.98	25	18.37	29	-3.6	72	-8.0	0	0	976.0	NA	0.0000	-PL	2500	4920	0	0	0
2015/11/23 06:24:00	BASE	16.68	27	18.37	29	-3.6	72	-7.9	0	0	976.0	NA	0.0000	-PL	3200	4950	0	0	0
2015/11/23 06:25:00	BASE	16.23	27	18.37	29	-3.5	72	-7.9	0	0	976.0	NA	0.0000	-PL	2300	4920	0	0	0
2015/11/23 06:26:00	BASE	15.99	26	18.37	29	-3.5	72	-7.9	0	0	976.0	NA	0.0000	-PL	1700	4950	0	0	0
2015/11/23 06:27:00	BASE	15.88	26	18.37	29	-3.5	72	-7.8	0	0	975.9	NA	0.0000	-PL	1400	5050	0	0	0
2015/11/23 06:28:00	BASE	16.31	26	18.37	29	-3.5	72	-7.8	0	0	975.9	NA	0.0000	-PL	1600	5120	0	0	0
2015/11/23 06:29:00	BASE	16.22	28	18.37	29	-3.5	72	-7.8	0	0	975.9	NA	0.0000	-PL	1600	5150	0	0	0
2015/11/23 06:30:00	BASE	15.80	29	18.37	29	-3.5	73	-7.8	0	0	975.8	NA	0.0000	-PL	1400	5220	0	0	0
2015/11/23 06:31:00	BASE	15.84	27	18.11	34	-3.5	73	-7.7	0	0	975.8	NA	0.0000	-PL	1700	5250	0	0	0
2015/11/23 06:32:00	BASE	15.42	27	18.11	34	-3.5	72	-7.8	0	0	975.8	NA	0.0000	-PL	2200	5220	0	0	0
2015/11/23 06:33:00	BASE	15.02	28	17.34	29	-3.5	72	-7.8	0	0	975.8	NA	0.0000	-PL	2200	5410	0	0	0
2015/11/23 06:34:00	BASE	14.93	28	17.23	30	-3.5	72	-7.8	0	0	975.8	NA	0.0000	-PL	2200	7150	0	0	0
2015/11/23 06:35:00	BASE	14.81	28	17.23	30	-3.4	72	-7.8	0	0	975.7	NA	0.0000	-PL	2200	7090	0	0	0
2015/11/23 06:36:00	BASE	14.77	33	17.23	30	-3.4	72	-7.8	0	0	975.7	NA	0.0000	-PL	2200	4460	0	0	0
2015/11/23 06:37:00	BASE	14.56	32	17.23	30	-3.4	72	-7.8	0	0	975.8	NA	0.0000	-PL	2200	6270	0	0	0
2015/11/23 06:38:00	BASE	14.31	32	17.08	33	-3.3	71	-7.7	0	0	975.8	NA	0.0000	-PL	2200	6230	0	0	0
2015/11/23 06:39:00	BASE	14.24	32	17.08	33	-3.2	71	-7.7	0	0	975.8	NA	0.0000	-PL	2500	5510	0	0	0
2015/11/23 06:40:00	BASE	13.84	30	17.08	33	-3.1	71	-7.7	0	0	975.8	NA	0.0000	-PL	3000	5450	0	0	0
2015/11/23 06:41:00	BASE	13.15	30	15.95	33	-3.1	70	-7.7	0	0	975.8	NA	0.0000	-PL	3300	6690	0	0	0
2015/11/23 06:42:00	BASE	12.95	30	15.95	33	-3.1	70	-7.7	0	0	975.8	NA	0.0000	-PL	3700	5580	0	0	0
2015/11/23 06:43:00	BASE	12.71	35	15.54	38	-3.0	70	-7.8	0	0	975.9	NA	0.0000	-PL	4600	5510	0	0	0
2015/11/23 06:44:00	BASE	12.40	34	15.54	38	-3.0	69	-7.8	0	0	975.9	NA	0.0000	HZ	5000	5380	0	0	0
2015/11/23 06:45:00	BASE	12.24	33	15.33	38	-2.9	69	-7.9	0	0	975.9	NA	0.0000	HZ	5000	5350	0	0	0
2015/11/23 06:46:00	BASE	12.11	33	15.12	39	-2.9	68	-7.9	0	0	976.0	NA	0.0000	HZ	5000	5220	0	0	0
2015/11/23 06:47:00	BASE	12.06	34	14.97	39	-2.8	68	-7.9	0	0	976.0	NA	0.0000	HZ	6000	5090	0	0	0
2015/11/23 06:48:00	BASE	11.81	34	14.97	39	-2.8	68	-7.9	0	0	976.0	NA	0.0000	HZ	7000	5020	0	0	0
2015/11/23 06:49:00	BASE	10.96	36	14.10	35	-2.7	67	-7.9	0	0	976.1	NA	0.0000	HZ	9000	5020	0	0	0
2015/11/23 06:50:00	BASE	10.04	38	13.58	38	-2.6	67	-7.9	0	0	976.2	NA	0.0000	HZ	9999	4920	0	0	0
2015/11/23 06:51:00	BASE	8.97	45	13.48	36	-2.5	66	-8.0	0	0	976.2	NA	0.0000	HZ	9999	4820	0	0	0
2015/11/23 06:52:00	BASE	7.73	52	13.48	36	-2.5	66	-8.0	0	0	976.2	NA	0.0000	HZ	9999	4920	0	0	0
2015/11/23 06:53:00	BASE	6.36	52	13.22	39	-2.5	65	-8.1	0	0	976.2	NA	0.0000	HZ	9999	4950	0	0	0
2015/11/23 06:54:00	BASE	5.56	53	13.07	39	-2.5	65	-8.1	0	0	976.2	NA	0.0000	HZ	9999	4950	0	0	0
2015/11/23 06:55:01	BASE	5.62	39	13.02	36	-2.5	65	-8.1	0	0	976.2	NA	0.0000	HZ	9999	4950	0	0	0
2015/11/23 06:56:00	BASE	6.76	37	12.76	34	-2.5	65	-8.1	0	0	976.0	NA	0.0000		9999	4950	0	0	0
2015/11/23 06:57:00	BASE	8.02	37	12.40	36	-2.5	65	-8.2	0	0	976.0	NA	0.0000		9999	4950	0	0	0
2015/11/23 06:58:00	BASE	7.77	34	11.06	41	-2.5	65	-8.2	0	0	975.9	NA	0.0000		9999	4990	0	0	0
2015/11/23 06:59:00	BASE	7.21	34	10.34	53	-2.5	65	-8.2	0	0	975.9	NA	0.0000		9999	5050	0	0	0
2015/11/23 07:00:00	BASE	6.72	43	9.72	54	-2.5	65	-8.2	0	0	975.9	NA	0.0000		9999	5090	0	0	0
2015/11/23 07:01:00	BASE	6.62	43	9.62	47	-2.5	65	-8.1	0	0	975.9	NA	0.0000		9999	5120	0	0	0
2015/11/23 07:02:00	BASE	6.65	42	9.62	47	-2.5	66	-8.1	0	0	975.8	NA	0.0000		9999	5090	0	0	0
2015/11/23 07:03:00	BASE	6.83	42	9.62	47	-2.5	66	-8.0	0	0	975.7	NA	0.0000		9999	4990	0	0	0
2015/11/23 07:04:00	BASE	6.85	51	9.62	47	-2.5	66	-8.0	0	0	975.7	NA	0.0000		9999	4360	0	0	0
2015/11/23 07:05:00	BASE	6.86	65	9.62	47	-2.5	66	-8.0	0	0	975.6	NA	0.0000		9999	4360	0	0	0
2015/11/23 07:06:00	BASE	7.25	71	9.11	58	-2.5	66	-7.9	0	0	975.5	NA	0.0000		9999	4460	0	0	0
2015/11/23 07:07:01	BASE	7.24	85	9.11	58	-2.5	66	-8.0	0	0	975.4	NA	0.0000		9999	4530	0	0	0
2015/11/23 07:08:01	BASE	7.68	76	9.77	102	-2.6	66	-8.0	0	0	975.3	NA	0.0000		9999	4460	0	0	0
2015/11/23 07:09:00	BASE	8.58	76	10.39	90	-2.6	66	-8.1	0	0	975.2	NA	0.0000		9999	4530	0	0	0
2015/11/23 07:10:00	BASE	8.78	86	10.39	90	-2.6	66	-8.1	0	0	975.2	NA	0.0000		9999	4490	0	0	0
2015/11/23 07:11:00	BASE	8.84	79	10.39	94	-2.5	65	-8.2	0	0	975.2	NA	0.0000		9999	4100	0	0	0
2015/11/23 07:12:00	BASE	8.57	79	10.39	94	-2.5	64	-8.3	0	0	975.2	NA	0.0000		9999	4690	0	0	0
2015/11/23 07:13:00	BASE	7.56	78	10.39	94	-2.4	64	-8.3	0	0	975.2	NA	0.0000		9999	4720	0	0	0
2015/11/23 07:14:00	BASE	6.54	78	10.39	94	-2.4	64	-8.3	0	0	975.2	NA	0.0000		9999	4720	0	0	0
2015/11/23 07:15:00	BASE	6.10	75	10.39	94	-2.4	64	-8.3	0	0	975.2	NA	0.0000		9999	4660	0	0	0
2015/11/23 07:16:00	BASE	6.11	75	10.39	94	-2.5	65	-8.2	0	0	975.1	NA	0.0000		9999	4820	0	0	0
2015/11/23 07:17:00	BASE	5.66	76	10.39	94	-2.5	65	-8.2	0	0	975.1	NA	0.0000		9999	4590	5120	0	0
2015/11/23 07:18:00	BASE	5.24	61	10.39	94	-2.6	66	-8.0	0	0	975.1	NA	0.0000		9999	4950	0	0	0
2015/11/23 07:19:00	BASE	5.72	39	10.39	94	-2.6	67	-7.9	0	0	975.0	NA	0.0000		9999	4720	0	0	0
2015/11/23 07:20:00	BASE	5.96	39	10.39	94	-2.6	68	-7.7	0	0	975.0	NA	0.0000		9999	4630	0	0	0
2015/11/23 07:21:00	BASE	5.68	49	9.31	88	-2.6	69	-7.5	0	0	975.0	NA	0.0000		9999	4760	0	0	0
2015/11/23 07:22:00	BASE	7.32	49	11.32	50	-2.6	70	-7.3	0	0	974.9	NA	0.0000		9999	5380	0	0	0
2015/11/23 07:23:00	BASE	8.98	42	11.32	50	-2.5	70	-7.2	0	0	974.9	NA	0.0000		9999	6170	0	0	0
2015/11/23 07:24:00	BASE	9.57	33	11.83	46	-2.4	70	-7.1	0	0	974.7	NA	0.0000		9999	6100	0	0	0
2015/11/23 07:25:00	BASE	10.60	33	12.71	39	-2.3	70	-7.1	0	0	974.6	NA	0.0000		9999	4590	0	0	0
2015/11/23 07:26:00	BASE	11.34	36	12.96	42	-2.2	70	-7.1	0	0	974.4	NA	0.0000		6000	4630	0	0	0
2015/11/23 07:27:00	BASE	11.65	33	12.96	43	-2.2	70	-7.0	0	0	974.3	NA	0.0000	HZ	4700	6170	0	0	0
2015/11/23 07:28:00	BASE	11.72	31	12.96	43	-2.2	70	-6.9	0	0	974.3	NA	0.0000	HZ	5000	4660	0	0	0
2015/11/23 07:29:00	BASE	11.77	26	12.96	26	-2.2	71	-6.8	0	0	974.3	NA	0.0000	HZ	5000	4590	0	0	0
2015/11/23 07:30:00	BASE	12.09	26	13.99	36	-2.3	71	-6.7	0	0	974.1	NA	0.0000	HZ	5000	4560	0	0	0
2015/11/23 07:31:00	BASE	12.96	29	15.02	32	-2.3	72	-6.7	0	0	974.0	NA	0.0000	HZ	4400	4490	0	0	0
2015/11/23 07:32:00	BASE	13.87	26	15.38	29	-2.3	72	-6.6	0	0	973.9	NA	0.0000	HZ	2600	4270	0	0	0
2015/11/23 07:33:00	BASE	13.88	26	15.38	29	-2.3	72	-6.6	0	0	973.8	NA	0.0000	HZ	2500	4360	0	0	0
2015/11/23 07:34:00	BASE	13.21	33	15.38	29	-2.3	73	-6.5	0	0	973.8	NA	0.0000	HZ	3100	4270	0	0	0
2015/11/23 07:35:01	BASE	13.11	34	15.38	29	-2.3	73	-6.5	0	0	973.8	NA	0.0000	HZ	4200	5350	0	0	0
2015/11/23 07:36:00	BASE	13.37	34	15.38	29	-2.2	73	-6.5	0	0	973.7	NA	0.0000	HZ	5000	4760	0	0	0
2015/11/23 07:37:00	BASE	13.49	35	15.38	29	-2.2	72	-6.6	0	0	973.7	NA	0.0000	HZ	6000	4660	0	0	0
2015/11/23 07:38:00	BASE	13.69	38	15.38	29	-2.2	71	-6.7	0	0	973.6	NA	0.0000	HZ	4800	5090	0	0	0
2015/11/23 07:39:00	BASE	13.83	38	15.38	29	-2.1	71	-6.7	0	0	973.6	NA	0.0000	HZ	5000	4720	0	0	0
2015/11/23 07:40:00	BASE	13.68	38	15.38	29	-2.1	70	-6.7	0	0	973.6	NA	0.0000	HZ	5000	4690	0	0	0
2015/11/23 07:41:00	BASE	13.40	34	15.38	29	-2.0	70	-6.7	0	0	973.6	NA	0.0000	HZ	6000	4820	0	0	0
2015/11/23 07:42:00	BASE	13.02	34	14.92	37	-2.0	70	-6.7	0	0	973.7	NA	0.0000	HZ	7000	4720	0	0	0
2015/11/23 07:43:00	BASE	12.36	40	14.82	40	-1.9	70	-6.7	0	0	973.7	NA	0.0000	HZ	8000	4760	0	0	0
2015/11/23 07:44:00	BASE	11.87	39	14.82	40	-1.9	70	-6.7	0	0	973.7	NA	0.0000	HZ	9999	4690	0	0	0
2015/11/23 07:45:00	BASE	11.78	39	14.82	40	-1.9	69	-6.7	0	0	973.6	NA	0.0000	HZ	9999	4990	0	0	0
2015/11/23 07:46:00	BASE	11.92	38	14.82	40	-1.8	69	-6.8	0	0	973.6	NA	0.0000	HZ	9999	4950	0	0	0
2015/11/23 07:47:00	BASE	12.40	38	14.82	40	-1.8	69	-6.8	0	0	973.5	NA	0.0000	HZ	9999	4990	0	0	0
2015/11/23 07:48:00	BASE	12.27	31	14.71	44	-1.8	68	-6.8	0	0	973.5	NA	0.0000	HZ	9000	5020	0	0	0
2015/11/23 07:49:00	BASE	11.56	31	14.04	42	-1.7	68	-6.9	0	0	973.5	NA	0.0000	HZ	9000	5090	0	0	0
2015/11/23 07:50:00	BASE	10.85	40	13.79	41	-1.7	68	-6.9	0	0	973.4	NA	0.0000	HZ	9999	5090	0	0	0
2015/11/23 07:51:00	BASE	11.17	36	13.79	41	-1.7	68	-6.9	0	0	973.3	NA	0.0000	HZ	9999	5090	0	0	0
2015/11/23 07:52:00	BASE	12.18	35	13.58	40	-1.7	68	-6.9	0	0	973.3	NA	0.0000	HZ	9000	5120	0	0	0
2015/11/23 07:53:00	BASE	12.18	35	13.58	40	-1.7	68	-6.9	0	0	973.3	NA	0.0000	HZ	8000	5150	0	0	0
2015/11/23 07:54:00	BASE	11.88	36	13.58	40	-1.7	68	-6.8	0	0	973.2	NA	0.0000	HZ	9999	5180	0	0	0
2015/11/23 07:55:00	BASE	12.13	35	13.58	40	-1.7	68	-6.8	0	0	973.2	NA	0.0000	HZ	9999	5180	0	0	0
2015/11/23 07:56:00	BASE	11.90	34	13.58	40	-1.7	68	-6.7	0	0	973.2	NA	0.0000	HZ	9000	5180	0	0	0
2015/11/23 07:57:00	BASE	11.43	32	13.58	40	-1.6	69	-6.7	0	0	973.1	NA	0.0000	HZ	8000	5150	0	0	0
2015/11/23 07:58:00	BASE	12.06	32	13.58	40	-1.6	69	-6.6	0	0	973.0	NA	0.0000	HZ	5000	5180	0	0	0
2015/11/23 07:59:00	BASE	12.03	32	13.58	40	-1.6	69	-6.5	0	0	973.0	NA	0.0000	HZ	6000	5150	0	0	0
2015/11/23 08:00:00	BASE	11.43	32	13.58	44	-1.5	69	-6.4	0	0	973.0	NA	0.0000	HZ	9000	5250	0	0	0
2015/11/23 08:01:00	BASE	11.59	28	13.63	36	-1.5	70	-6.4	0	0	972.9	NA	0.0000	HZ	9000	5280	0	0	0
2015/11/23 08:02:00	BASE	12.50	28	15.28	38	-1.5	70	-6.3	0	0	972.8	NA	0.0000	HZ	6000	5320	0	0	0
2015/11/23 08:03:00	BASE	13.86	28	15.64	31	-1.5	70	-6.3	0	0	972.7	NA	0.0000	HZ	4600	5580	0	0	0
2015/11/23 08:04:00	BASE	14.28	28	15.84	35	-1.5	71	-6.2	0	0	972.7	NA	0.0000	HZ	2000	5710	0	0	0
2015/11/23 08:05:00	BASE	14.15	28	15.84	35	-1.6	71	-6.1	0	0	972.6	NA	0.0000	HZ	2200	5810	0	0	0
2015/11/23 08:06:00	BASE	14.28	28	15.84	35	-1.6	72	-6.1	0	0	972.5	NA	0.0000	HZ	2200	5940	0	0	0
2015/11/23 08:07:00	BASE	14.58	24	17.39	33	-1.6	72	-6.0	0	0	972.4	NA	0.0000	HZ	2000	6040	0	0	0
2015/11/23 08:08:00	BASE	14.40	24	17.39	33	-1.7	73	-5.9	0	0	972.4	NA	0.0000	HZ	1500	6040	0	0	0
2015/11/23 08:09:00	BASE	14.81	27	17.39	33	-1.7	74	-5.8	0	0	972.2	NA	0.0000	-PL	2200	6100	0	0	0
2015/11/23 08:10:00	BASE	15.44	27	17.39	33	-1.8	74	-5.7	0	0	972.2	NA	0.0000	-PL	2100	6100	0	0	0
2015/11/23 08:11:00	BASE	15.70	29	17.85	34	-1.8	75	-5.7	0	0	972.1	NA	0.0000	-PL	1400	6070	0	0	0
2015/11/23 08:12:00	BASE	16.45	29	18.26	34	-1.8	75	-5.6	0	0	972.0	NA	0.0000	-PL	1000	6040	0	0	0
2015/11/23 08:13:00	BASE	17.05	30	18.62	37	-1.8	75	-5.6	0	0	971.9	NA	0.0000	-PL	1000	6000	0	0	0
2015/11/23 08:14:00	BASE	16.75	28	18.62	37	-1.8	75	-5.6	0	0	971.9	NA	0.0000	-PL	0800	6070	0	0	0
2015/11/23 08:15:00	BASE	16.16	24	18.62	37	-1.8	75	-5.6	0	0	971.9	NA	0.0000	-PL	1000	6100	0	0	0
2015/11/23 08:16:00	BASE	16.02	24	18.62	37	-1.8	75	-5.6	0	0	971.9	NA	0.0000	-PL	1400	6040	0	0	0
2015/11/23 08:17:00	BASE	15.80	30	18.62	37	-1.8	75	-5.6	0	0	971.8	NA	0.0000	-PL	1200	6070	0	0	0
2015/11/23 08:18:00	BASE	15.62	30	18.62	37	-1.8	76	-5.6	0	0	971.8	NA	0.0000	-PL	1400	6070	0	0	0
2015/11/23 08:19:00	BASE	15.62	29	18.62	37	-1.9	76	-5.5	0	0	971.8	NA	0.0000	-PL	1100	6070	0	0	0
2015/11/23 08:20:00	BASE	15.65	27	18.62	37	-1.9	76	-5.5	0	0	971.7	NA	0.0000	-PL	1300	6200	0	0	0
2015/11/23 08:21:00	BASE	16.07	27	18.62	37	-1.9	76	-5.5	0	0	971.6	NA	0.0000	-PL	1200	6370	0	0	0
2015/11/23 08:22:00	BASE	16.13	31	18.62	37	-1.8	76	-5.5	0	0	971.6	NA	0.0000	-PL	1300	6400	0	0	0
2015/11/23 08:23:00	BASE	15.79	31	17.75	35	-1.8	76	-5.4	0	0	971.5	NA	0.0000	-PL	1700	6370	0	0	0
2015/11/23 08:24:00	BASE	15.88	27	17.75	35	-1.7	76	-5.4	0	0	971.4	NA	0.0000	-PL	1200	6300	0	0	0
2015/11/23 08:25:00	BASE	15.90	27	17.75	35	-1.7	76	-5.4	0	0	971.3	NA	0.0000	-PL	0900	6330	0	0	0
2015/11/23 08:26:00	BASE	15.37	33	17.75	35	-1.7	76	-5.4	0	0	971.3	NA	0.0000	-PL	1300	6370	0	0	0
2015/11/23 08:27:00	BASE	14.99	33	17.75	35	-1.7	76	-5.3	0	0	971.3	NA	0.0000	-PL	1300	6430	0	0	0
2015/11/23 08:28:00	BASE	15.53	33	17.75	35	-1.7	76	-5.3	0	0	971.2	NA	0.0000	-PL	1300	6530	0	0	0
2015/11/23 08:29:00	BASE	15.75	33	18.21	39	-1.7	76	-5.3	0	0	971.1	NA	0.0000	-PL	1300	6530	0	0	0
2015/11/23 08:30:00	BASE	15.06	32	18.21	39	-1.7	76	-5.3	0	0	971.1	NA	0.0000	-PL	1300	6530	0	0	0
2015/11/23 08:31:00	BASE	15.12	32	18.21	39	-1.7	76	-5.3	0	0	971.1	NA	0.0000	-PL	1300	6500	0	0	0
2015/11/23 08:32:00	BASE	16.17	31	18.93	38	-1.6	76	-5.3	0	0	971.0	NA	0.0000	-PL	1200	6500	0	0	0
2015/11/23 08:33:00	BASE	16.49	30	18.93	38	-1.6	76	-5.3	0	0	970.9	NA	0.0000	-PL	0900	6590	0	0	0
2015/11/23 08:34:00	BASE	16.39	30	18.93	38	-1.6	76	-5.3	0	0	970.9	NA	0.0000	-PL	1000	6730	0	0	0
2015/11/23 08:35:00	BASE	16.74	29	18.93	38	-1.6	76	-5.2	0	0	970.8	NA	0.0000	-PL	1000	6760	0	0	0
2015/11/23 08:36:00	BASE	17.03	29	18.93	38	-1.6	76	-5.2	0	0	970.7	NA	0.0000	-PL	0800	6990	0	0	0
2015/11/23 08:37:00	BASE	17.16	31	18.93	38	-1.6	77	-5.2	0	0	970.7	NA	0.0000	-PL	0900	7190	0	0	0
2015/11/23 08:38:00	BASE	17.19	31	18.93	38	-1.6	77	-5.1	0	0	970.7	NA	0.0000	-PL	0900	7190	0	0	0
2015/11/23 08:39:00	BASE	17.02	31	18.93	38	-1.6	77	-5.1	0	0	970.6	NA	0.0000	-PL	0800	7350	0	0	0
2015/11/23 08:40:00	BASE	16.80	31	18.93	38	-1.6	77	-5.1	0	0	970.6	NA	0.0000	-PL	0600	7420	0	0	0
2015/11/23 08:41:00	BASE	16.80	33	19.45	34	-1.7	78	-5.1	0	0	970.5	NA	0.0000	-PL	0600	7480	0	0	0
2015/11/23 08:42:00	BASE	16.68	33	19.45	34	-1.7	78	-5.1	0	0	970.6	NA	0.0000	-PL	0600	7480	0	0	0
2015/11/23 08:43:00	BASE	16.19	31	19.45	34	-1.7	77	-5.2	0	0	970.6	NA	0.0000	-PL	1000	7610	0	0	0
2015/11/23 08:44:00	BASE	15.62	31	19.45	34	-1.7	77	-5.2	0	0	970.7	NA	0.0000	-PL	0750	7680	0	0	0
2015/11/23 08:45:00	BASE	15.98	32	19.45	34	-1.8	77	-5.2	0	0	970.6	NA	0.0000	-PL	1000	7780	0	0	0
2015/11/23 08:46:00	BASE	16.60	32	19.45	34	-1.7	77	-5.2	0	0	970.5	NA	0.0000	-PL	0800	7510	0	0	0
2015/11/23 08:47:00	BASE	16.81	31	19.45	34	-1.7	78	-5.1	0	0	970.5	NA	0.0000	-PL	0700	7480	0	0	0
2015/11/23 08:48:00	BASE	17.43	29	19.45	34	-1.7	78	-5.0	0	0	970.4	NA	0.0000	-PL	0650	7350	0	0	0
2015/11/23 08:49:00	BASE	17.48	29	19.55	37	-1.7	78	-5.0	0	0	970.4	NA	0.0000	-PL	0700	7420	0	0	0
2015/11/23 08:50:00	BASE	17.13	33	19.55	37	-1.6	78	-5.0	0	0	970.4	NA	0.0000	-PL	0800	7480	0	0	0
2015/11/23 08:51:00	BASE	16.73	33	19.55	37	-1.6	78	-5.0	0	0	970.4	NA	0.0000	-PL	0700	7550	0	0	0
2015/11/23 08:52:00	BASE	16.79	31	19.55	37	-1.6	78	-5.0	0	0	970.3	NA	0.0000	-PL	0600	7580	0	0	0
2015/11/23 08:53:00	BASE	17.01	31	19.55	37	-1.6	78	-5.0	0	0	970.2	NA	0.0000	-PL	0700	7580	0	0	0
2015/11/23 08:54:00	BASE	16.40	33	19.55	37	-1.6	78	-5.0	0	0	970.2	NA	0.0000	-PL	0800	7870	0	0	0
2015/11/23 08:55:00	BASE	16.44	31	19.55	37	-1.6	78	-5.0	0	0	970.2	NA	0.0000	-PL	0800	8010	0	0	0
2015/11/23 08:56:00	BASE	16.48	30	19.55	37	-1.6	77	-5.0	0	0	970.2	NA	0.0000	-PL	0800	7940	0	0	0
2015/11/23 08:57:00	BASE	16.07	30	19.55	37	-1.6	77	-5.0	0	0	970.1	NA	0.0000	-PL	0800	7910	0	0	0
2015/11/23 08:58:00	BASE	16.14	30	19.55	37	-1.6	78	-5.0	0	0	969.9	NA	0.0000	-PL	0900	8100	0	0	0
2015/11/23 08:59:00	BASE	16.58	30	18.78	35	-1.6	78	-4.9	0	0	969.8	NA	0.0000	-PL	0650	7610	0	0	0
2015/11/23 09:00:00	BASE	17.08	30	18.83	32	-1.6	79	-4.8	0	0	969.7	NA	0.0000	-PL	0800	7710	0	0	0
2015/11/23 09:01:00	BASE	16.84	32	18.83	32	-1.6	79	-4.8	0	0	969.7	NA	0.0000	-PL	0800	7810	0	0	0
2015/11/23 09:02:00	BASE	17.18	31	19.55	38	-1.6	79	-4.7	0	0	969.5	NA	0.0000	-PL	0750	7840	0	0	0
2015/11/23 09:03:00	BASE	17.81	29	19.55	38	-1.6	79	-4.7	0	0	969.4	NA	0.0000	-PL	0800	7780	0	0	0
2015/11/23 09:04:00	BASE	17.53	28	20.01	33	-1.6	79	-4.8	0	0	969.5	NA	0.0000	-PL	0750	7810	0	0	0
2015/11/23 09:05:00	BASE	17.55	28	20.01	33	-1.6	79	-4.7	0	0	969.4	NA	0.0000	-PL	1000	8100	0	0	0
2015/11/23 09:06:00	BASE	17.94	26	20.01	33	-1.5	79	-4.7	0	0	969.3	NA	0.0000	-PL	0600	8070	0	0	0
2015/11/23 09:07:00	BASE	18.38	26	20.78	34	-1.5	79	-4.7	0	0	969.2	NA	0.0000	-PL	0800	8100	0	0	0
2015/11/23 09:08:00	BASE	18.50	26	20.78	34	-1.5	79	-4.6	0	0	969.1	NA	0.2540	-PL	0750	7840	0	0	0
2015/11/23 09:09:00	BASE	18.65	23	21.40	27	-1.4	79	-4.6	0	0	969.0	NA	0.0000	-PL	0650	8070	0	0	0
2015/11/23 09:10:00	BASE	19.23	23	21.40	31	-1.4	79	-4.6	0	0	968.9	NA	0.0000	-PL	0750	8140	0	0	0
2015/11/23 09:11:00	BASE	19.25	24	21.40	31	-1.4	79	-4.6	0	0	968.9	NA	0.0000	-PL	0700	8430	0	0	0
2015/11/23 09:12:00	BASE	19.03	29	21.40	31	-1.4	79	-4.6	0	0	968.9	NA	0.0000	-PL	0700	8010	0	0	0
2015/11/23 09:13:00	BASE	18.96	29	21.40	31	-1.5	79	-4.6	0	0	968.9	NA	0.0000	-PL	0700	7940	0	0	0
2015/11/23 09:14:00	BASE	19.01	28	21.40	31	-1.5	79	-4.6	0	0	968.8	NA	0.0000	-PL	0700	0	0	0	820
2015/11/23 09:15:01	BASE	18.98	28	21.40	31	-1.5	79	-4.6	0	0	968.8	NA	0.0000	-PL	0650	7910	0	0	0
2015/11/23 09:16:00	BASE	18.81	31	21.40	31	-1.5	79	-4.6	0	0	968.7	NA	0.0000	-PL	0500	7910	0	0	0
2015/11/23 09:17:01	BASE	19.18	31	21.40	31	-1.5	79	-4.6	0	0	968.7	NA	0.0000	-PL	0500	8500	0	0	0
2015/11/23 09:18:00	BASE	18.86	29	21.40	31	-1.5	80	-4.6	0	0	968.7	NA	0.0000	-PL	0450	7510	8690	0	0
2015/11/23 09:19:00	BASE	17.77	29	21.40	31	-1.6	80	-4.6	0	0	968.7	NA	0.0000	-PL	0650	7740	8690	0	0
2015/11/23 09:20:00	BASE	18.04	30	20.94	33	-1.6	80	-4.6	0	0	968.6	NA	0.0000	-PL	0650	7910	8560	0	0
2015/11/23 09:21:00	BASE	18.43	30	20.83	36	-1.6	80	-4.6	0	0	968.6	NA	0.0000	-PL	0650	8430	0	0	0
2015/11/23 09:22:00	BASE	18.14	30	20.83	36	-1.6	80	-4.6	0	0	968.6	NA	0.0000	-PL	0650	8330	0	0	0
2015/11/23 09:23:01	BASE	17.92	30	20.83	36	-1.6	80	-4.7	0	0	968.6	NA	0.0000	-PL	0700	8100	0	0	0
2015/11/23 09:24:00	BASE	17.83	30	20.83	36	-1.7	80	-4.7	0	0	968.5	NA	0.0000	-PL	0550	7870	0	0	0
2015/11/23 09:25:01	BASE	17.97	29	20.83	36	-1.7	80	-4.7	0	0	968.5	NA	0.0000	-PL	0450	7610	0	0	0
2015/11/23 09:26:00	BASE	18.24	27	20.83	36	-1.7	80	-4.7	0	0	968.4	NA	0.0000	-PL	0600	8530	0	0	0
2015/11/23 09:27:01	BASE	18.06	25	20.68	35	-1.7	81	-4.6	0	0	968.4	NA	0.0000	-PL	0600	8560	0	0	0
2015/11/23 09:28:00	BASE	17.78	25	20.68	35	-1.7	81	-4.6	0	0	968.4	NA	0.0000	-PL	0600	8500	0	0	0
2015/11/23 09:29:01	BASE	18.28	26	20.68	35	-1.7	81	-4.6	0	0	968.2	NA	0.0000	-PL	0600	0	0	0	920
2015/11/23 09:30:00	BASE	18.68	26	20.99	33	-1.7	81	-4.5	0	0	968.2	NA	0.0000	-PL	0550	9380	0	0	0
2015/11/23 09:31:00	BASE	18.60	25	20.99	33	-1.7	81	-4.6	0	0	968.2	NA	0.0000	-PL	0550	0	0	0	950
2015/11/23 09:32:00	BASE	18.64	21	20.99	33	-1.6	80	-4.6	0	0	968.1	NA	0.0000	-PL	0550	0	0	0	920
2015/11/23 09:33:00	BASE	18.61	19	20.99	33	-1.6	80	-4.5	0	0	968.1	NA	0.0000	-PL	0550	0	0	0	790
2015/11/23 09:34:00	BASE	18.51	19	21.45	28	-1.5	80	-4.5	0	0	968.0	NA	0.0000	-PL	0600	8370	0	0	0
2015/11/23 09:35:00	BASE	18.49	15	21.45	28	-1.5	80	-4.6	0	0	968.0	NA	0.2540	-PL	0600	0	0	0	820
2015/11/23 09:36:00	BASE	17.95	15	21.45	28	-1.4	80	-4.5	0	0	968.0	NA	0.0000	-PL	0600	0	0	0	950
2015/11/23 09:37:00	BASE	17.80	14	21.45	28	-1.3	79	-4.5	0	0	968.0	NA	0.0000	-PL	0600	0	0	0	1020
2015/11/23 09:38:00	BASE	18.43	14	22.58	34	-1.3	79	-4.5	0	0	968.0	NA	0.0000	-PL	0600	0	0	0	1350
2015/11/23 09:39:01	BASE	18.22	20	22.58	34	-1.2	79	-4.5	0	0	967.9	NA	0.0000	-PL	0600	0	0	0	1380
2015/11/23 09:40:00	BASE	17.51	21	22.58	34	-1.2	79	-4.4	0	0	968.0	NA	0.0000	-PL	0600	0	0	0	1440
2015/11/23 09:41:01	BASE	17.90	21	22.58	34	-1.2	79	-4.4	0	0	967.9	NA	0.0000	-PL	0600	0	0	0	1570
2015/11/23 09:42:00	BASE	18.70	14	22.58	34	-1.3	80	-4.4	0	0	967.8	NA	0.0000	-PL	0650	0	0	0	1610
2015/11/23 09:43:01	BASE	18.80	14	22.58	34	-1.3	80	-4.4	0	0	967.8	NA	0.0000	-PL	1100	0	0	0	1350
2015/11/23 09:44:00	BASE	19.16	18	22.58	34	-1.4	80	-4.3	0	0	967.7	NA	0.0000	-PL	0800	0	0	0	3900
2015/11/23 09:45:00	BASE	19.67	20	22.58	34	-1.4	80	-4.4	0	0	967.6	NA	0.0000	-PL	0750	0	0	0	4430
2015/11/23 09:46:00	BASE	19.57	22	22.58	34	-1.5	80	-4.4	0	0	967.5	NA	0.0000	-PL	1000	0	0	0	4100
2015/11/23 09:47:00	BASE	19.14	22	22.58	34	-1.5	81	-4.4	0	0	967.6	NA	0.0000	-PL	0750	0	0	0	3640
2015/11/23 09:48:00	BASE	18.58	18	22.07	32	-1.6	81	-4.4	0	0	967.5	NA	0.0000	-PL	0900	0	0	0	3480
2015/11/23 09:49:01	BASE	18.99	18	22.12	33	-1.6	82	-4.4	0	0	967.4	NA	0.0000	-PL	0800	0	0	0	3250
2015/11/23 09:50:00	BASE	19.42	11	22.38	29	-1.7	82	-4.3	0	0	967.4	NA	0.0000	-PL	0750	0	0	0	3510
2015/11/23 09:51:01	BASE	19.15	11	22.38	29	-1.7	83	-4.2	0	0	967.4	NA	0.0000	-PL	0800	0	0	0	3740
2015/11/23 09:52:00	BASE	19.27	15	22.38	29	-1.7	83	-4.2	0	0	967.2	NA	0.0000	-PL	1100	0	0	0	4270
2015/11/23 09:53:01	BASE	20.10	18	22.94	26	-1.7	83	-4.2	0	0	967.1	NA	0.0000	-PL	0900	0	0	0	3670
2015/11/23 09:54:00	BASE	20.37	12	22.94	26	-1.7	82	-4.3	0	0	967.0	NA	0.0000	-PL	0650	0	0	0	2430
2015/11/23 09:55:00	BASE	19.76	11	22.94	26	-1.7	82	-4.3	0	0	967.0	NA	0.0000	-PL	0650	23520	0	0	0
2015/11/23 09:56:00	BASE	19.13	5	22.94	26	-1.6	83	-4.2	0	0	967.1	NA	0.0000	-PL	1100	0	0	0	2400
2015/11/23 09:57:01	BASE	18.45	5	22.94	26	-1.6	83	-4.1	0	0	967.0	NA	0.0000	-PL	1300	0	0	0	2460
2015/11/23 09:58:00	BASE	19.54	9	23.41	19	-1.5	84	-3.9	0	0	966.9	NA	0.0000	-PL	1800	0	0	0	2130
2015/11/23 09:59:00	BASE	19.81	9	23.41	19	-1.4	84	-3.7	0	0	966.9	NA	0.0000	-PL	1800	0	0	0	2230
2015/11/23 10:00:00	BASE	18.87	9	23.41	19	-1.3	85	-3.6	0	0	966.9	NA	0.0000	-PL	1000	0	0	0	2330
2015/11/23 10:01:01	BASE	19.09	3	23.41	19	-1.3	85	-3.5	0	0	966.9	NA	0.0000	-PL	1600	0	0	0	2170
2015/11/23 10:02:00	BASE	19.33	3	23.41	19	-1.2	85	-3.4	0	0	966.8	NA	0.0000	-PL BR	2800	0	0	0	1870
2015/11/23 10:03:00	BASE	19.98	9	23.41	19	-1.2	85	-3.4	0	0	966.7	NA	0.0000	-PL BR	2400	22640	0	0	0
2015/11/23 10:04:00	BASE	20.07	1	23.41	19	-1.2	85	-3.3	0	0	966.7	NA	0.0000	-PL BR	1000	0	0	0	1940
2015/11/23 10:05:00	BASE	20.59	1	23.41	19	-1.2	86	-3.3	0	0	966.6	NA	0.0000	-PL BR	2300	0	0	0	1840
2015/11/23 10:06:00	BASE	21.81	7	23.41	18	-1.2	86	-3.2	0	0	966.6	NA	0.0000	-PL BR	3500	0	0	0	2430
2015/11/23 10:07:01	BASE	21.26	7	23.41	18	-1.2	86	-3.2	0	0	966.7	NA	0.0000	+PL BR	6000	0	0	0	2400
2015/11/23 10:08:00	BASE	20.80	5	23.87	11	-1.1	86	-3.2	0	0	966.6	NA	0.0000	+PL BR	5000	0	0	0	2400
2015/11/23 10:09:01	BASE	20.58	5	23.87	11	-1.1	86	-3.1	0	0	966.7	NA	0.0000	+PL BR	3900	0	0	0	2260
2015/11/23 10:10:00	BASE	20.56	5	23.87	11	-1.1	86	-3.1	0	0	966.6	NA	0.0000	+PL BR	2900	0	0	0	2430
2015/11/23 10:11:00	BASE	20.68	5	23.87	11	-1.1	86	-3.1	0	0	966.6	NA	0.0000	+PL BR	2900	0	0	0	2360
2015/11/23 10:12:00	BASE	20.64	6	23.87	11	-1.1	86	-3.1	0	0	966.5	NA	0.0000	+PL BR	3200	19160	0	0	0
2015/11/23 10:13:01	BASE	20.64	6	23.87	11	-1.1	87	-3.0	0	0	966.6	NA	0.0000	+PL BR	3000	0	0	0	2300
2015/11/23 10:14:00	BASE	19.95	6	23.87	11	-1.1	87	-3.0	0	0	966.6	NA	0.0000	+PL BR	3100	0	0	0	2690
2015/11/23 10:15:00	BASE	19.98	13	23.87	11	-1.1	88	-2.9	0	0	966.5	NA	0.0000	+PL BR	1900	0	0	0	2170
2015/11/23 10:16:00	BASE	20.33	13	23.87	11	-1.1	88	-2.9	0	0	966.4	NA	0.0000	+PL BR	2100	0	0	0	2200
2015/11/23 10:17:01	BASE	20.22	15	23.87	11	-1.1	88	-2.9	0	0	966.5	NA	0.0000	+PL BR	2700	0	0	0	2100
2015/11/23 10:18:00	BASE	19.61	14	23.30	23	-1.1	87	-2.9	0	0	966.6	NA	0.0000	+PL BR	2200	0	0	0	2430
2015/11/23 10:19:01	BASE	18.87	8	23.30	23	-1.1	87	-3.0	0	0	966.5	NA	0.0000	+PL BR	1100	0	0	0	2400
2015/11/23 10:20:00	BASE	19.27	8	23.30	23	-1.1	87	-3.0	0	0	966.4	NA	0.0000	+PL BR	1600	0	0	0	2490
2015/11/23 10:21:01	BASE	20.87	9	23.82	20	-1.1	87	-3.0	0	0	966.2	NA	0.0000	+PL BR	1800	0	0	0	1840
2015/11/23 10:22:00	BASE	21.85	14	24.64	21	-1.2	87	-3.1	0	0	966.2	NA	0.0000	+PL BR	1000	0	0	0	1380
2015/11/23 10:23:01	BASE	21.23	14	24.64	21	-1.2	87	-3.1	0	0	966.3	NA	0.0000	+PL BR	1700	0	0	0	2950
2015/11/23 10:24:00	BASE	20.09	15	24.64	21	-1.1	87	-3.0	0	0	966.3	NA	0.0000	+PL BR	7000	0	0	0	3510
2015/11/23 10:25:01	BASE	20.77	12	24.64	21	-1.1	87	-3.0	0	0	966.1	NA	0.0000	+PL BR	9000	0	0	0	2890
2015/11/23 10:26:00	BASE	20.83	12	24.64	21	-1.0	86	-3.0	0	0	966.3	NA	0.0000	+PL BR	9999	0	0	0	6070
2015/11/23 10:27:01	BASE	19.74	12	24.64	21	-0.9	86	-3.0	0	0	966.2	NA	0.0000	+PL BR	9999	0	0	0	1440
2015/11/23 10:28:00	BASE	20.36	12	24.64	21	-0.8	85	-3.0	0	0	966.0	NA	0.0000	+PL BR	9999	0	0	0	1410
2015/11/23 10:29:00	BASE	21.27	13	24.64	21	-0.8	85	-2.9	0	0	965.9	NA	0.0000	+PL BR	9999	0	0	0	1150
2015/11/23 10:30:00	BASE	21.62	14	24.64	21	-0.7	85	-2.9	0	0	965.9	NA	0.0000	+PL BR	9999	0	0	0	950
2015/11/23 10:31:01	BASE	21.03	10	24.64	21	-0.7	85	-2.9	0	0	966.0	NA	0.0000	-PL BR	M	0	0	0	1080
2015/11/23 10:32:00	BASE	20.06	10	24.33	26	-0.6	85	-2.8	0	0	966.1	NA	0.0000	-PL	9999	0	0	0	1510
2015/11/23 10:33:01	BASE	18.74	9	24.33	26	-0.5	85	-2.8	0	0	966.2	NA	0.0000	-PL	9999	0	0	0	1710
2015/11/23 10:34:00	BASE	19.52	8	24.33	26	-0.5	84	-2.8	0	0	965.7	NA	0.0000	-PL	9999	0	0	0	1710
2015/11/23 10:35:00	BASE	21.82	8	24.33	26	-0.4	84	-2.8	0	0	965.7	NA	0.0000	-PL	9999	0	0	0	1120
2015/11/23 10:36:00	BASE	21.09	10	24.33	26	-0.4	84	-2.8	0	0	966.0	NA	0.0000		9999	0	0	0	950
2015/11/23 10:37:01	BASE	18.74	8	24.33	26	-0.3	84	-2.7	0	0	966.0	NA	0.0000		9999	0	0	0	1280
2015/11/23 10:38:01	BASE	19.67	8	24.38	17	-0.3	84	-2.7	0	0	965.7	NA	0.0000	-PL	1900	0	0	0	1570
2015/11/23 10:39:01	BASE	21.33	11	24.38	17	-0.2	84	-2.6	0	0	965.9	NA	0.0000	-PL	1800	0	0	0	1280
2015/11/23 10:40:00	BASE	20.29	9	24.38	17	-0.1	83	-2.6	0	0	966.0	NA	0.2540	-PL	2300	0	0	0	1640
2015/11/23 10:41:01	BASE	19.65	9	24.38	17	-0.0	83	-2.6	0	0	965.9	NA	0.0000	-PL	7000	0	0	0	1440
2015/11/23 10:42:00	BASE	19.78	12	24.38	17	0.0	83	-2.6	0	0	965.8	NA	0.0000	-PL	2500	22250	0	0	0
2015/11/23 10:43:01	BASE	20.71	14	24.38	17	-0.0	82	-2.7	0	0	965.7	NA	0.0000	-PL	0900	0	0	0	1350
2015/11/23 10:44:00	BASE	20.16	8	24.38	17	-0.0	82	-2.8	0	0	966.0	NA	0.0000	-PL	0750	0	0	0	1280
2015/11/23 10:45:01	BASE	19.11	8	24.38	17	-0.1	82	-2.8	0	0	965.9	NA	0.0000	-PL	1600	0	0	0	1350
2015/11/23 10:46:01	BASE	20.52	9	24.38	17	-0.1	82	-2.9	0	0	965.7	NA	0.2540	-PL	1800	0	0	0	890
2015/11/23 10:47:01	BASE	21.24	13	24.38	17	-0.2	82	-2.9	0	0	965.7	NA	0.0000	-PL	1000	0	0	0	1210
2015/11/23 10:48:00	BASE	20.21	16	23.51	22	-0.2	82	-3.0	0	0	965.7	NA	0.0000	-PL	0700	0	0	0	1350
2015/11/23 10:49:01	BASE	19.54	14	23.51	22	-0.2	81	-3.0	0	0	965.7	NA	0.0000	-PL	1400	0	0	0	1280
2015/11/23 10:50:00	BASE	19.97	14	23.51	22	-0.2	81	-3.0	0	0	965.6	NA	0.0000	-PL	0900	0	0	0	1540
2015/11/23 10:51:01	BASE	20.78	16	23.51	22	-0.2	81	-3.1	0	0	965.6	NA	0.0000	-PL	1600	0	0	0	1350
2015/11/23 10:52:01	BASE	21.36	17	24.08	21	-0.2	80	-3.1	0	0	965.5	NA	0.0000	-PL	1300	0	0	0	1050
2015/11/23 10:53:01	BASE	21.14	16	24.08	21	-0.1	80	-3.1	0	0	965.6	NA	0.0000	-PL	0900	0	0	0	1180
2015/11/23 10:54:00	BASE	20.10	11	24.08	21	-0.1	80	-3.2	0	0	965.6	NA	0.0000	-PL	0900	0	0	0	1350
2015/11/23 10:55:01	BASE	20.03	10	24.08	21	-0.1	80	-3.1	0	0	965.5	NA	0.2540	-PL	0900	0	0	0	1570
2015/11/23 10:56:00	BASE	21.25	6	24.85	22	-0.0	80	-3.1	0	0	965.3	NA	0.0000	-PL	0900	0	0	0	1380
2015/11/23 10:57:01	BASE	22.00	6	24.85	22	0.0	79	-3.1	0	0	965.4	NA	0.0000	-PL	0900	0	0	0	1570
2015/11/23 10:58:00	BASE	20.80	10	24.85	22	0.1	79	-3.1	0	0	965.5	NA	0.0000	-PL	1200	0	0	0	1900
2015/11/23 10:59:01	BASE	20.24	9	24.85	22	0.1	79	-3.1	0	0	965.3	NA	0.2540	-PL	2500	0	0	0	1570
2015/11/23 11:00:00	BASE	21.26	9	24.85	22	0.2	78	-3.2	0	0	965.3	NA	0.0000	-PL	2500	0	0	0	1840
2015/11/23 11:01:01	BASE	20.81	8	24.85	22	0.3	78	-3.2	0	0	965.4	NA	0.0000	-PL	2600	0	0	0	1900
2015/11/23 11:02:01	BASE	20.98	8	24.85	22	0.3	78	-3.1	0	0	965.2	NA	0.0000	-PL	3100	0	0	0	490
2015/11/23 11:03:01	BASE	23.03	8	26.03	12	0.3	78	-3.1	0	0	965.0	NA	0.0000	-PL	2800	0	0	0	950
2015/11/23 11:04:01	BASE	23.33	8	26.03	12	0.4	78	-3.1	0	0	965.3	NA	0.2540	-PL	3500	0	0	0	1410
2015/11/23 11:05:01	BASE	20.92	4	26.03	12	0.3	78	-3.0	0	0	965.6	NA	0.0000	-PL	8000	0	0	0	1940
2015/11/23 11:06:01	BASE	19.67	3	26.03	12	0.3	79	-3.0	0	0	965.4	NA	0.0000	-PL	8000	0	0	0	2790
2015/11/23 11:07:01	BASE	20.32	3	26.03	12	0.3	79	-3.0	0	0	965.3	NA	0.0000	-PL	8000	0	0	0	1120
2015/11/23 11:08:01	BASE	20.84	14	26.03	12	0.3	78	-3.0	0	0	965.4	NA	0.2540	-PL	6000	0	0	0	850
2015/11/23 11:09:01	BASE	20.09	9	26.03	12	0.3	78	-3.1	0	0	965.5	NA	0.0000	-PL	2000	0	0	0	1020
2015/11/23 11:10:00	BASE	18.26	8	26.03	12	0.3	78	-3.1	0	0	965.6	NA	0.0000	-PL	2000	0	0	0	1510
2015/11/23 11:11:01	BASE	18.15	6	26.03	12	0.3	78	-3.1	0	0	965.5	NA	0.0000	-PL	2000	0	0	0	1380
2015/11/23 11:12:01	BASE	19.45	6	26.03	12	0.4	77	-3.2	0	0	965.4	NA	0.0000	-PL	2000	0	0	0	1970
2015/11/23 11:13:01	BASE	19.07	3	23.82	11	0.4	77	-3.2	0	0	965.6	NA	0.0000	-PL	2000	0	0	0	1870
2015/11/23 11:14:01	BASE	17.67	3	23.10	20	0.5	77	-3.2	0	0	965.6	NA	0.2540	-PL	2000	0	0	0	2170
2015/11/23 11:15:01	BASE	18.32	7	23.10	20	0.5	77	-3.1	0	0	965.4	NA	0.0000	-PL	2000	0	0	0	2460
2015/11/23 11:16:01	BASE	19.49	7	24.59	19	0.5	77	-3.2	0	0	965.2	NA	0.0000	-PL	2000	0	0	0	2100
2015/11/23 11:17:01	BASE	20.81	9	25.62	19	0.5	77	-3.1	0	0	965.1	NA	0.0000	-PL	2000	9290	0	0	0
2015/11/23 11:18:01	BASE	20.99	8	25.62	19	0.4	77	-3.1	0	0	965.4	NA	0.2540	-PL	2000	0	0	0	750
2015/11/23 11:19:01	BASE	19.17	3	25.62	19	0.4	77	-3.2	0	0	965.6	NA	0.0000	-PL	2000	0	0	0	1350
2015/11/23 11:20:00	BASE	17.91	3	25.62	19	0.5	76	-3.3	0	0	965.6	NA	0.0000	-PL	2000	0	0	0	2070
2015/11/23 11:21:01	BASE	17.80	4	25.62	19	0.5	76	-3.3	0	0	965.4	NA	0.0000	-PL	2000	0	0	0	2300
2015/11/23 11:22:01	BASE	19.30	4	25.62	19	0.5	76	-3.3	0	0	965.2	NA	0.0000	-PL	2000	0	0	0	1840
2015/11/23 11:23:01	BASE	20.72	9	25.62	19	0.4	76	-3.3	0	0	965.2	NA	0.0000	-PL	1900	0	0	0	1510
2015/11/23 11:24:01	BASE	20.13	11	25.62	19	0.4	77	-3.2	0	0	965.3	NA	0.2540	-PL	1200	0	0	0	1740
2015/11/23 11:25:01	BASE	20.41	11	26.60	17	0.4	77	-3.1	0	0	965.0	NA	0.0000	-PL	2000	0	0	0	1640
2015/11/23 11:26:01	BASE	21.17	17	26.60	17	0.4	78	-3.0	0	0	965.2	NA	0.0000	-PL	1800	0	0	0	980
2015/11/23 11:27:01	BASE	18.84	8	26.60	17	0.4	77	-3.1	0	0	965.6	NA	0.0000	-PL	1800	0	0	0	1510
2015/11/23 11:28:01	BASE	17.44	8	26.60	17	0.5	77	-3.1	0	0	965.3	NA	0.0000	-PL	1800	0	0	0	2130
2015/11/23 11:29:01	BASE	18.81	12	26.60	17	0.5	77	-3.1	0	0	965.1	NA	0.0000	-PL	1800	0	0	0	1640
2015/11/23 11:30:01	BASE	19.29	12	26.60	17	0.4	77	-3.1	0	0	965.4	NA	0.2540	-PL	1800	0	0	0	1380
2015/11/23 11:31:01	BASE	18.38	13	26.60	17	0.4	78	-3.0	0	0	965.4	NA	0.0000	-PL	1800	0	0	0	1670
2015/11/23 11:32:01	BASE	18.76	13	26.60	17	0.4	78	-3.0	0	0	965.2	NA	0.0000	-PL	1700	0	0	0	1570
2015/11/23 11:33:01	BASE	19.18	9	26.60	17	0.3	78	-3.0	0	0	965.4	NA	0.0000	-PL	1300	0	0	0	1510
2015/11/23 11:34:01	BASE	18.95	9	26.60	17	0.3	78	-3.1	0	0	965.2	NA	0.0000	-PL	1700	0	0	0	2200
2015/11/23 11:35:01	BASE	19.64	14	22.38	22	0.4	78	-3.1	0	0	965.1	NA	0.0000	-PL	1700	0	0	0	1150
2015/11/23 11:36:01	BASE	19.80	18	22.28	18	0.4	78	-3.0	0	0	965.3	NA	0.0000	-PL	1700	0	0	0	1180
2015/11/23 11:37:01	BASE	18.81	8	22.28	18	0.4	78	-3.0	0	0	965.5	NA	0.0000	-PL	1200	0	0	0	1150
2015/11/23 11:38:01	BASE	17.15	7	22.28	18	0.4	78	-3.0	0	0	965.6	NA	0.2540	-PL	1200	0	0	0	1670
2015/11/23 11:39:01	BASE	17.11	7	22.28	18	0.4	78	-3.0	0	0	965.4	NA	0.0000	-PL	1200	0	0	0	1940
2015/11/23 11:40:01	BASE	17.53	8	22.28	18	0.4	78	-2.9	0	0	965.5	NA	0.0000	-PL	1200	0	0	0	1870
2015/11/23 11:41:01	BASE	16.64	8	22.28	18	0.4	78	-3.0	0	0	965.5	NA	0.0000	-PL	1200	0	0	0	2070
2015/11/23 11:42:01	BASE	17.04	9	22.28	18	0.4	78	-2.9	0	0	965.4	NA	0.0000	-PL	1200	0	0	0	1940
2015/11/23 11:43:01	BASE	18.08	9	22.28	18	0.4	78	-2.9	0	0	965.4	NA	0.0000	-PL	1200	0	0	0	1380
2015/11/23 11:44:01	BASE	18.04	16	21.86	24	0.5	78	-2.9	0	0	965.6	NA	0.0000	-PL	1200	0	0	0	2000
2015/11/23 11:45:01	BASE	17.29	15	21.30	28	0.5	77	-3.0	0	0	965.5	NA	0.2540	-PL	1200	0	0	0	2200
2015/11/23 11:46:01	BASE	17.36	11	21.04	18	0.6	77	-3.0	0	0	965.4	NA	0.0000	-PL	1200	0	0	0	1840
2015/11/23 11:47:01	BASE	17.33	11	20.83	17	0.5	77	-3.0	0	0	965.5	NA	0.0000	-PL	1200	0	0	0	2000
2015/11/23 11:48:01	BASE	17.18	15	20.83	17	0.5	77	-3.1	0	0	965.5	NA	0.0000	-PL	1200	0	0	0	2560
2015/11/23 11:49:01	BASE	17.88	14	20.83	17	0.5	77	-3.1	0	0	965.4	NA	0.0000	-PL	1200	0	0	0	2360
2015/11/23 11:50:01	BASE	18.30	14	20.83	17	0.4	77	-3.2	0	0	965.4	NA	0.0000	-PL	1200	22050	0	0	0
2015/11/23 11:51:01	BASE	18.34	15	22.53	15	0.5	76	-3.2	0	0	965.3	NA	0.0000	-PL	1200	0	0	0	2490
2015/11/23 11:52:01	BASE	18.98	10	22.53	15	0.5	76	-3.2	0	0	965.1	NA	0.0000	-PL	1200	0	0	0	2760
2015/11/23 11:53:01	BASE	19.52	9	22.53	15	0.5	76	-3.2	0	0	965.2	NA	0.0000	-PL	1300	0	0	0	1350
2015/11/23 11:54:01	BASE	18.26	9	22.53	15	0.5	76	-3.2	0	0	965.5	NA	0.0000	-PL	2500	0	0	0	1940
2015/11/23 11:55:01	BASE	16.86	8	22.53	15	0.6	76	-3.2	0	0	965.6	NA	0.2540	-PL	3100	0	0	0	2300
2015/11/23 11:56:01	BASE	15.83	6	22.53	15	0.6	76	-3.2	0	0	965.6	NA	0.0000	-PL	3100	0	0	0	2690
2015/11/23 11:57:01	BASE	14.33	6	22.53	15	0.6	76	-3.2	0	0	965.7	NA	0.0000	-PL	3100	5180	0	0	0
2015/11/23 11:58:01	BASE	15.12	13	22.53	15	0.6	76	-3.2	0	0	965.6	NA	0.0000	-PL	3100	20700	0	0	0
2015/11/23 11:59:01	BASE	16.63	23	22.53	15	0.6	76	-3.2	0	0	965.5	NA	0.0000	-PL	3000	0	0	0	2490
2015/11/23 12:00:01	BASE	16.56	17	22.53	15	0.5	76	-3.2	0	0	965.6	NA	0.0000	-PL	1700	0	0	0	1540
2015/11/23 12:01:01	BASE	15.35	8	21.35	26	0.5	76	-3.3	0	0	965.7	NA	0.0000	-PL	1700	0	0	0	2530
2015/11/23 12:02:01	BASE	13.45	3	21.04	26	0.4	76	-3.3	0	0	965.8	NA	0.0000	-PL	1700	0	0	0	2820
2015/11/23 12:03:01	BASE	13.06	3	19.34	21	0.4	76	-3.3	0	0	965.7	NA	0.2540	-PL	1700	5180	0	0	0
2015/11/23 12:04:01	BASE	14.36	7	18.67	26	0.5	76	-3.3	0	0	965.7	NA	0.0000	-PL	1700	5580	0	0	0
2015/11/23 12:05:01	BASE	14.93	14	18.67	26	0.5	76	-3.3	0	0	965.7	NA	0.0000	-PL	1700	5220	0	0	0
2015/11/23 12:06:01	BASE	14.62	8	18.67	26	0.5	76	-3.3	0	0	965.7	NA	0.0000	-PL	1700	0	0	0	1710
2015/11/23 12:07:01	BASE	14.13	8	18.67	26	0.5	76	-3.3	0	0	965.8	NA	0.0000	-PL	1700	6500	0	0	0
2015/11/23 12:08:01	BASE	13.35	13	18.67	26	0.5	76	-3.3	0	0	965.8	NA	0.0000	-PL	1700	0	0	0	1570
2015/11/23 12:09:01	BASE	13.82	14	18.67	26	0.5	76	-3.3	0	0	965.7	NA	0.0000	-PL	1700	5910	6660	0	0
2015/11/23 12:10:01	BASE	14.04	15	17.34	21	0.5	76	-3.3	0	0	965.7	NA	0.0000	-PL	1700	6630	0	0	0
2015/11/23 12:11:01	BASE	12.88	17	17.34	21	0.5	76	-3.3	0	0	965.8	NA	0.2540	-PL	1700	5810	0	0	0
2015/11/23 12:12:01	BASE	13.07	23	17.34	21	0.5	76	-3.3	0	0	965.7	NA	0.0000	-PL	1700	5410	0	0	0
2015/11/23 12:13:01	BASE	13.98	19	17.34	21	0.5	76	-3.3	0	0	965.7	NA	0.0000	HZ	1700	6330	0	0	0
2015/11/23 12:14:01	BASE	13.15	8	16.98	23	0.6	76	-3.2	0	0	965.7	NA	0.0000	HZ	1700	6300	0	0	0
2015/11/23 12:15:01	BASE	12.32	7	16.98	23	0.6	76	-3.2	0	0	965.8	NA	0.0000	HZ	1700	6170	0	0	0
2015/11/23 12:16:01	BASE	12.68	7	16.98	23	0.6	77	-3.1	0	0	965.7	NA	0.0000	HZ	1700	6170	0	0	0
2015/11/23 12:17:01	BASE	13.85	15	16.98	23	0.6	77	-3.0	0	0	965.6	NA	0.0000	HZ	1700	6070	21420	0	0
2015/11/23 12:18:01	BASE	14.66	15	16.98	23	0.6	77	-3.0	0	0	965.6	NA	0.0000	HZ	1700	5150	5870	0	0
2015/11/23 12:19:01	BASE	15.28	25	17.44	33	0.5	77	-3.0	0	0	965.5	NA	0.0000	HZ	1700	4950	0	0	0
2015/11/23 12:20:01	BASE	15.47	28	17.44	33	0.5	77	-3.0	0	0	965.6	NA	0.0000	HZ	1700	4630	5940	0	0
2015/11/23 12:21:01	BASE	14.54	26	17.44	33	0.4	77	-3.1	0	0	965.8	NA	0.0000	HZ	1700	5870	0	0	0
2015/11/23 12:22:01	BASE	13.12	26	17.44	33	0.4	77	-3.2	0	0	965.9	NA	0.0000	HZ	1700	5320	0	0	0
2015/11/23 12:23:01	BASE	12.24	27	17.44	33	0.4	77	-3.2	0	0	966.1	NA	0.0000	HZ	1700	4950	0	0	0
2015/11/23 12:24:01	BASE	12.35	31	17.44	33	0.4	77	-3.2	0	0	966.0	NA	0.0000	HZ	1700	4790	0	0	0
2015/11/23 12:25:01	BASE	12.36	36	17.44	33	0.4	77	-3.3	0	0	966.0	NA	0.0000	HZ	1700	4070	0	0	0
2015/11/23 12:26:01	BASE	12.78	26	17.44	33	0.3	76	-3.3	0	0	966.0	NA	0.0000	HZ	1700	4100	0	0	0
2015/11/23 12:27:01	BASE	12.78	26	17.44	33	0.4	76	-3.3	0	0	966.1	NA	0.0000	HZ	1700	4230	0	0	0
2015/11/23 12:28:01	BASE	11.36	30	17.44	33	0.4	76	-3.4	0	0	966.2	NA	0.0000	HZ	1700	4430	0	0	0
2015/11/23 12:29:01	BASE	10.36	30	16.87	35	0.4	76	-3.4	0	0	966.3	NA	0.0000	HZ	1700	4690	0	0	0
2015/11/23 12:30:01	BASE	9.85	41	16.82	31	0.5	75	-3.4	0	0	966.3	NA	0.0000	HZ	1700	4660	0	0	0
2015/11/23 12:31:01	BASE	9.71	58	14.82	36	0.4	75	-3.5	0	0	966.3	NA	0.0000	HZ	1700	4530	0	0	0
2015/11/23 12:32:01	BASE	10.51	58	14.82	36	0.3	75	-3.6	0	0	966.2	NA	0.2540	HZ	1700	4400	0	0	0
2015/11/23 12:33:01	BASE	11.41	65	14.82	36	0.1	75	-3.8	0	0	966.1	NA	0.0000	HZ	1700	4530	0	0	0
2015/11/23 12:34:01	BASE	12.17	79	15.59	82	-0.1	74	-4.2	0	0	966.0	NA	0.0000	HZ	1700	4430	0	0	0
2015/11/23 12:35:01	BASE	12.76	82	15.59	82	-0.3	74	-4.4	0	0	965.7	NA	0.0000	HZ	1700	4430	0	0	0
2015/11/23 12:36:01	BASE	13.17	95	15.59	82	-0.4	73	-4.7	0	0	965.6	NA	0.0000	HZ	1700	4400	0	0	0
2015/11/23 12:37:01	BASE	13.35	100	15.59	82	-0.6	73	-4.9	0	0	965.6	NA	0.0000	HZ	1700	4400	0	0	0
2015/11/23 12:38:01	BASE	14.46	100	16.57	106	-0.7	72	-5.0	0	0	965.4	NA	0.0000	HZ	1700	4300	0	0	0
2015/11/23 12:39:01	BASE	14.90	92	16.57	106	-0.8	72	-5.1	0	0	965.5	NA	0.0000	HZ	1700	4300	0	0	0
2015/11/23 12:40:01	BASE	14.99	92	17.29	107	-0.9	73	-5.1	0	0	965.3	NA	0.0000	HZ	1700	4270	0	0	0
2015/11/23 12:41:01	BASE	14.81	99	17.29	107	-0.9	74	-5.1	0	0	965.5	NA	0.0000	HZ	1700	4300	0	0	0
2015/11/23 12:42:01	BASE	14.74	101	17.29	107	-1.0	74	-5.0	0	0	965.2	NA	0.0000	HZ	1700	4270	0	0	0
2015/11/23 12:43:00	BASE	16.63	99	20.47	113	-1.1	75	-4.9	0	0	964.7	NA	0.0000	HZ	1700	4070	0	0	0
2015/11/23 12:44:00	BASE	17.58	99	20.47	113	-1.1	76	-4.9	0	0	964.7	NA	0.0000	HZ	1700	4170	0	0	0
2015/11/23 12:45:00	BASE	16.00	103	20.47	113	-1.1	76	-4.8	0	0	965.1	NA	0.0000	HZ	1700	4200	0	0	0
2015/11/23 12:46:00	BASE	13.73	81	20.47	113	-1.0	75	-4.8	0	0	965.4	NA	0.0000	-PL	1700	4130	0	0	0
2015/11/23 12:47:00	BASE	12.38	73	20.47	113	-0.8	74	-4.9	0	0	965.9	NA	0.0000	-PL	1700	4130	0	0	0
2015/11/23 12:48:00	BASE	10.01	43	20.47	113	-0.7	73	-4.9	0	0	966.2	NA	0.0000	-PL	1700	4200	0	0	0
2015/11/23 12:49:00	BASE	9.06	43	20.47	113	-0.7	73	-4.9	0	0	965.9	NA	0.0000	-PL	1700	2490	4200	0	0
2015/11/23 12:50:00	BASE	8.28	71	20.47	113	-0.6	74	-4.7	0	0	965.7	NA	0.0000	-PL	1700	4130	0	0	0
2015/11/23 12:51:00	BASE	11.41	98	21.40	118	-0.6	74	-4.6	0	0	965.2	NA	0.0000	-PL	1700	2400	4230	0	0
2015/11/23 12:52:00	BASE	16.53	108	23.00	154	-0.5	75	-4.4	0	0	964.8	NA	0.0000	-PL SQ	1700	2400	4170	0	0
2015/11/23 12:53:00	BASE	13.43	125	23.00	154	-0.3	74	-4.3	0	0	965.5	NA	0.0000	-PL	1300	2100	3250	0	0
2015/11/23 12:54:00	BASE	9.50	111	23.00	154	-0.0	73	-4.3	0	0	965.7	NA	0.0000	-PL	3200	2400	3350	0	0
2015/11/23 12:55:01	BASE	9.41	103	23.00	154	0.2	71	-4.4	0	0	965.8	NA	0.0000	-PL	3200	3610	0	0	0
2015/11/23 12:56:00	BASE	11.10	103	23.00	154	0.3	70	-4.5	0	0	965.6	NA	0.0000	-PL	3200	2460	3810	0	0
2015/11/23 12:57:00	BASE	12.42	101	23.00	154	0.1	71	-4.6	0	0	965.7	NA	0.0000	-PL	3200	2760	3940	0	0
2015/11/23 12:58:00	BASE	11.60	97	23.00	154	-0.2	72	-4.7	0	0	965.7	NA	0.0000	-PL	3200	3350	4230	0	0
2015/11/23 12:59:00	BASE	10.82	97	23.00	154	-0.5	73	-4.6	0	0	965.7	NA	0.0000	-PL	3200	2430	0	0	0
2015/11/23 13:00:00	BASE	10.06	87	23.00	154	-0.8	75	-4.6	0	0	965.9	NA	0.0000	-PL	3400	2560	0	0	0
2015/11/23 13:01:00	BASE	9.75	82	23.00	154	-1.0	77	-4.6	0	0	965.8	NA	0.0000	-PL	9999	2400	21920	0	0
2015/11/23 13:02:00	BASE	9.63	74	16.20	142	-1.0	77	-4.5	0	0	965.8	NA	0.0000	-PL	9999	2560	0	0	0
2015/11/23 13:03:00	BASE	9.03	73	14.15	113	-1.0	78	-4.4	0	0	965.7	NA	0.0000	-PL	9999	2590	0	0	0
2015/11/23 13:04:00	BASE	9.93	73	14.15	113	-0.9	77	-4.4	0	0	965.5	NA	0.0000	-PL	9999	2430	0	0	0
2015/11/23 13:05:00	BASE	11.13	101	14.15	113	-0.9	77	-4.4	0	0	965.4	NA	0.0000	-PL	9999	2690	0	0	0
2015/11/23 13:06:00	BASE	11.70	101	14.25	110	-0.8	77	-4.4	0	0	965.4	NA	0.0000	-PL	7000	2660	22410	0	0
2015/11/23 13:07:00	BASE	13.12	101	15.90	102	-0.6	76	-4.4	0	0	965.2	NA	0.0000	-PL	7000	2490	0	0	0
2015/11/23 13:08:00	BASE	14.01	102	15.90	102	-0.6	75	-4.5	0	0	965.4	NA	0.0000	-PL	7000	2760	0	0	0
2015/11/23 13:09:00	BASE	13.12	105	15.90	102	-0.6	75	-4.5	0	0	965.6	NA	0.0000	-PL	7000	2400	22670	0	0
2015/11/23 13:10:00	BASE	11.58	105	15.90	102	-0.7	75	-4.5	0	0	965.6	NA	0.0000	-PL	7000	2400	0	0	0
2015/11/23 13:11:00	BASE	11.30	107	15.90	102	-0.8	76	-4.5	0	0	965.4	NA	0.0000	-PL	7000	2330	0	0	0
2015/11/23 13:12:00	BASE	12.41	109	15.90	102	-0.9	77	-4.5	0	0	965.1	NA	0.0000	-PL	7000	2460	0	0	0
2015/11/23 13:13:00	BASE	12.88	111	15.90	102	-1.0	77	-4.5	0	0	965.2	NA	0.0000	-PL	7000	2360	0	0	0
2015/11/23 13:14:00	BASE	13.47	111	17.65	116	-0.9	77	-4.5	0	0	964.9	NA	0.0000	-PL	7000	2590	3380	0	0
2015/11/23 13:15:00	BASE	14.52	115	17.65	125	-0.9	76	-4.6	0	0	964.9	NA	0.0000	-PL	7000	2890	3410	5680	0
2015/11/23 13:16:00	BASE	13.51	110	17.65	125	-0.8	75	-4.6	0	0	965.3	NA	0.0000	-PL	7000	2620	3510	0	0
2015/11/23 13:17:00	BASE	12.40	107	17.65	125	-0.7	74	-4.7	0	0	965.4	NA	0.0000	-PL	7000	2530	3510	0	0
2015/11/23 13:18:00	BASE	11.44	78	17.65	125	-0.7	74	-4.7	0	0	965.8	NA	0.0000	-PL	7000	2660	0	0	0
2015/11/23 13:19:00	BASE	10.28	78	17.65	125	-0.7	74	-4.6	0	0	965.8	NA	0.0000	-PL	7000	2660	0	0	0
2015/11/23 13:20:00	BASE	11.08	83	17.65	125	-0.7	75	-4.5	0	0	965.4	NA	0.0000	-PL	7000	3310	0	0	0
2015/11/23 13:21:00	BASE	11.57	103	17.65	125	-0.8	76	-4.5	0	0	965.2	NA	0.0000	-PL	7000	3280	5610	0	0
2015/11/23 13:22:00	BASE	12.61	105	17.65	125	-0.9	77	-4.4	0	0	965.0	NA	0.0000	-PL	9999	2400	3220	0	0
2015/11/23 13:23:00	BASE	12.81	89	17.65	125	-1.0	78	-4.3	0	0	965.3	NA	0.0000	-PL	9000	2490	0	0	0
2015/11/23 13:24:00	BASE	11.63	89	17.65	125	-1.0	78	-4.4	0	0	965.5	NA	0.0000	-PL	9999	2690	0	0	0
2015/11/23 13:25:00	BASE	11.42	96	14.97	115	-1.0	78	-4.4	0	0	965.3	NA	0.0000	-PL	9999	3220	0	0	0
2015/11/23 13:26:00	BASE	12.35	104	15.18	124	-1.0	77	-4.4	0	0	965.0	NA	0.0000	-PL	9999	2590	3180	0	0
2015/11/23 13:27:00	BASE	13.14	113	16.41	123	-0.9	77	-4.4	0	0	965.0	NA	0.0000	HZ	7000	3250	0	0	0
2015/11/23 13:28:00	BASE	13.41	113	16.41	123	-0.8	77	-4.4	0	0	965.0	NA	0.0000	HZ	6000	3310	5480	0	0
2015/11/23 13:29:00	BASE	13.46	100	16.41	123	-0.7	76	-4.4	0	0	965.2	NA	0.0000	HZ	7000	3350	5510	0	0
2015/11/23 13:30:00	BASE	12.98	100	16.41	123	-0.7	76	-4.4	0	0	965.3	NA	0.0000	HZ	9999	2820	3350	0	0
2015/11/23 13:31:00	BASE	13.03	104	16.41	123	-0.7	76	-4.4	0	0	965.2	NA	0.0000	HZ	9999	2760	0	0	0
2015/11/23 13:32:00	BASE	13.05	108	16.41	123	-0.6	76	-4.4	0	0	965.1	NA	0.0000	HZ	9999	2890	0	0	0
2015/11/23 13:33:00	BASE	11.94	122	16.41	123	-0.6	75	-4.4	0	0	965.5	NA	0.0000	HZ	9999	3310	0	0	0
2015/11/23 13:34:00	BASE	10.52	118	16.41	123	-0.6	75	-4.5	0	0	965.6	NA	0.0000	HZ	9999	3480	5410	0	0
2015/11/23 13:35:00	BASE	10.54	115	16.41	123	-0.7	76	-4.4	0	0	965.5	NA	0.0000	HZ	9999	3410	5380	0	0
2015/11/23 13:36:00	BASE	10.07	108	16.41	123	-0.7	76	-4.4	0	0	965.8	NA	0.0000	HZ	9999	2790	3410	0	0
2015/11/23 13:37:00	BASE	10.33	98	16.36	134	-0.8	76	-4.4	0	0	965.7	NA	0.0000	HZ	9999	2990	0	0	0
2015/11/23 13:38:00	BASE	10.91	98	16.20	116	-0.9	77	-4.3	0	0	965.6	NA	0.0000	HZ	9999	3310	0	0	0
2015/11/23 13:39:00	BASE	10.59	113	16.20	116	-0.9	78	-4.3	0	0	965.5	NA	0.0000		9999	3450	0	0	0
2015/11/23 13:40:00	BASE	10.06	109	16.20	116	-0.9	78	-4.2	0	0	965.6	NA	0.0000		9999	2850	3450	0	0
2015/11/23 13:41:00	BASE	9.11	109	15.48	134	-0.8	78	-4.2	0	0	965.6	NA	0.0000		9999	2890	3510	0	0
2015/11/23 13:42:00	BASE	9.32	111	13.32	115	-0.8	77	-4.3	0	0	965.6	NA	0.0000		9999	3410	20510	21200	0
2015/11/23 13:43:00	BASE	9.22	107	13.32	115	-0.7	76	-4.3	0	0	965.6	NA	0.0000		9999	3540	23200	0	0
2015/11/23 13:44:00	BASE	8.60	107	13.32	115	-0.5	75	-4.4	0	0	965.6	NA	0.0000		9999	3450	0	0	0
2015/11/23 13:45:00	BASE	10.66	120	15.59	132	-0.4	74	-4.4	0	0	965.3	NA	0.0000		9999	2920	3380	0	0
2015/11/23 13:46:00	BASE	12.48	125	15.59	132	-0.4	75	-4.4	0	0	965.4	NA	0.0000		7000	3480	0	0	0
2015/11/23 13:47:00	BASE	11.29	108	15.59	132	-0.5	75	-4.4	0	0	965.6	NA	0.0000		9000	2720	3580	0	0
2015/11/23 13:48:00	BASE	9.87	103	15.59	132	-0.6	76	-4.3	0	0	965.6	NA	0.0000	HZ	9000	3450	0	0	0
2015/11/23 13:49:00	BASE	9.64	103	15.59	132	-0.7	77	-4.2	0	0	965.7	NA	0.0000	HZ	8000	2850	0	0	0
2015/11/23 13:50:00	BASE	10.41	110	15.59	132	-0.9	78	-4.1	0	0	965.7	NA	0.0000	HZ	9000	3080	0	0	0
2015/11/23 13:51:00	BASE	11.76	98	17.29	116	-0.9	79	-4.1	0	0	965.5	NA	0.0000	HZ	9999	2920	0	0	0
2015/11/23 13:52:00	BASE	11.96	98	17.29	116	-0.8	78	-4.1	0	0	965.4	NA	0.0000	HZ	9000	3510	0	0	0
2015/11/23 13:53:00	BASE	8.24	103	17.29	116	-0.5	77	-4.1	0	0	965.8	NA	0.0000	HZ	9000	3480	0	0	0
2015/11/23 13:54:00	BASE	6.25	124	17.29	116	-0.3	75	-4.3	0	0	965.9	NA	0.0000	-PL	9999	3120	0	0	0
2015/11/23 13:55:00	BASE	7.50	124	17.29	116	-0.2	74	-4.3	0	0	965.9	NA	0.0000	-PL	9999	3350	0	0	0
2015/11/23 13:56:00	BASE	7.77	121	17.29	116	-0.1	73	-4.3	0	0	965.7	NA	0.0000	-PL	9999	3120	0	0	0
2015/11/23 13:57:00	BASE	7.10	112	17.29	116	-0.1	73	-4.4	0	0	965.8	NA	0.0000	-PL	9999	3450	0	0	0
2015/11/23 13:58:00	BASE	6.63	94	17.29	116	-0.3	74	-4.3	0	0	965.8	NA	0.0000	-PL	9999	3080	0	0	0
2015/11/23 13:59:00	BASE	7.22	94	17.29	116	-0.4	74	-4.4	0	0	965.7	NA	0.0000	-PL	9999	3450	21950	24250	0
2015/11/23 14:00:00	BASE	7.93	107	17.29	116	-0.4	74	-4.4	0	0	965.7	NA	0.0000	-PL	9999	3540	0	0	0
2015/11/23 14:01:00	BASE	7.96	103	17.23	115	-0.4	74	-4.4	0	0	965.8	NA	0.0000	-PL	9999	2950	3480	0	0
2015/11/23 14:02:00	BASE	6.75	103	9.21	114	-0.4	74	-4.4	0	0	965.8	NA	0.0000	-PL	9999	3480	0	0	0
2015/11/23 14:03:00	BASE	5.73	107	9.21	114	-0.4	74	-4.4	0	0	965.5	NA	0.0000	-PL	9999	3510	0	0	0
2015/11/23 14:04:00	BASE	6.37	116	9.21	114	-0.5	75	-4.4	0	0	965.2	NA	0.0000	-PL	9999	4760	0	0	0
2015/11/23 14:05:00	BASE	5.48	134	9.21	114	-0.5	75	-4.4	0	0	965.4	NA	0.0000	-PL	9999	2620	0	0	0
2015/11/23 14:06:00	BASE	3.31	23	9.21	114	-0.4	75	-4.3	0	0	965.8	NA	0.0000		9999	2890	0	0	0
2015/11/23 14:07:00	BASE	4.20	17	9.21	114	-0.4	75	-4.3	0	0	965.7	NA	0.0000		9999	2920	3670	0	0
2015/11/23 14:08:00	BASE	6.52	17	9.57	120	-0.4	75	-4.2	0	0	965.4	NA	0.0000		9000	3450	0	0	0
2015/11/23 14:09:00	BASE	7.85	56	9.57	120	-0.3	75	-4.2	0	0	965.0	NA	0.0000		9999	3250	4790	0	0
2015/11/23 14:10:00	BASE	8.11	127	9.57	120	-0.3	75	-4.2	0	0	965.0	NA	0.0000		9000	2720	3580	4790	0
2015/11/23 14:11:00	BASE	6.47	113	9.57	120	-0.2	75	-4.2	0	0	965.4	NA	0.0000		9999	3080	0	0	0
2015/11/23 14:12:00	BASE	4.35	37	9.57	120	-0.2	74	-4.2	0	0	965.6	NA	0.0000		9999	3510	0	0	0
2015/11/23 14:13:00	BASE	4.95	37	9.57	120	-0.1	74	-4.2	0	0	965.7	NA	0.0000		9000	3050	3670	0	0
2015/11/23 14:14:00	BASE	5.78	71	9.57	120	0.0	73	-4.3	0	0	965.6	NA	0.0000	HZ	9999	3120	3710	0	0
2015/11/23 14:15:00	BASE	4.99	81	9.57	120	0.1	72	-4.3	0	0	965.6	NA	0.0000	HZ	9999	3670	4360	0	0
2015/11/23 14:16:00	BASE	4.80	88	9.57	120	0.1	72	-4.4	0	0	965.4	NA	0.0000	HZ	9999	3580	4400	0	0
2015/11/23 14:17:00	BASE	5.74	124	9.57	120	0.1	71	-4.5	0	0	965.0	NA	0.0000		9999	4230	0	0	0
2015/11/23 14:18:00	BASE	6.73	147	9.16	127	0.1	71	-4.6	0	0	965.0	NA	0.0000		9999	4100	0	0	0
2015/11/23 14:19:00	BASE	6.53	121	9.05	147	0.1	71	-4.6	0	0	965.2	NA	0.0000		9999	2990	3670	0	0
2015/11/23 14:20:00	BASE	5.04	78	7.97	178	0.1	71	-4.5	0	0	965.5	NA	0.0000		9999	3080	3640	18280	0
2015/11/23 14:21:00	BASE	3.69	65	7.97	178	0.2	71	-4.5	0	0	965.6	NA	0.0000		9999	3080	0	0	0
2015/11/23 14:22:00	BASE	5.03	65	8.03	110	0.2	71	-4.5	0	0	965.5	NA	0.0000		9999	3610	0	0	0
2015/11/23 14:23:00	BASE	6.92	96	8.03	110	0.2	71	-4.5	0	0	965.5	NA	0.0000		9999	3020	3870	0	0
2015/11/23 14:24:00	BASE	6.29	107	8.03	110	0.2	71	-4.5	0	0	965.5	NA	0.0000		9999	2920	3610	0	0
2015/11/23 14:25:00	BASE	5.71	119	8.03	110	0.2	71	-4.5	0	0	965.1	NA	0.0000		9999	3610	4330	0	0
2015/11/23 14:26:00	BASE	5.95	148	8.03	110	0.1	71	-4.5	0	0	965.1	NA	0.0000		9999	3510	4270	0	0
2015/11/23 14:27:00	BASE	5.03	133	8.03	110	0.1	71	-4.5	0	0	965.4	NA	0.0000		9999	3050	3510	4590	0
2015/11/23 14:28:00	BASE	3.45	98	8.03	110	0.0	72	-4.5	0	0	965.6	NA	0.0000		9999	3150	3710	0	0
2015/11/23 14:29:00	BASE	2.83	91	8.03	110	0.0	72	-4.5	0	0	965.6	NA	0.0000		9999	3610	0	0	0
2015/11/23 14:30:00	BASE	3.02	85	8.03	110	0.1	72	-4.4	0	0	965.6	NA	0.0000		9999	3770	0	0	0
2015/11/23 14:31:00	BASE	3.29	85	8.03	110	0.1	72	-4.4	0	0	965.4	NA	0.0000		9999	3970	0	0	0
2015/11/23 14:32:00	BASE	4.74	119	7.72	107	0.1	72	-4.4	0	0	965.0	NA	0.0000	-PL	9000	4130	0	0	0
2015/11/23 14:33:00	BASE	5.92	150	7.46	171	0.1	72	-4.4	0	0	964.9	NA	0.0000	-PL	9000	3970	0	0	0
2015/11/23 14:34:00	BASE	5.38	158	7.46	171	0.2	72	-4.3	0	0	965.2	NA	0.0000	-PL	9999	3020	3940	0	0
2015/11/23 14:35:00	BASE	4.61	80	7.46	171	0.4	71	-4.3	0	0	965.3	NA	0.0000	-PL	9999	3050	4230	0	0
2015/11/23 14:36:00	BASE	4.76	80	7.46	171	0.5	71	-4.3	0	0	965.3	NA	0.0000	-PL	9999	4230	0	0	0
2015/11/23 14:37:00	BASE	4.96	87	7.46	171	0.4	71	-4.2	0	0	965.3	NA	0.0000	-PL	9999	3900	0	0	0
2015/11/23 14:38:00	BASE	4.87	87	7.46	171	0.4	71	-4.2	0	0	965.2	NA	0.0000	-PL	9999	4330	0	0	0
2015/11/23 14:39:00	BASE	5.19	96	7.46	171	0.4	72	-4.1	0	0	965.1	NA	0.0000	-PL	9999	4300	0	0	0
2015/11/23 14:40:00	BASE	6.19	122	9.31	152	0.3	72	-4.1	0	0	964.8	NA	0.0000	-PL	9999	4040	0	0	0
2015/11/23 14:41:00	BASE	6.64	109	9.62	126	0.2	73	-4.0	0	0	964.9	NA	0.0000	-PL	9999	4300	0	0	0
2015/11/23 14:42:00	BASE	4.93	109	9.62	126	0.2	74	-4.0	0	0	965.3	NA	0.0000	-PL	9999	3710	4360	0	0
2015/11/23 14:43:00	BASE	2.87	86	9.62	126	0.2	74	-4.0	0	0	965.4	NA	0.0000	-PL	9999	4400	0	0	0
2015/11/23 14:44:00	BASE	2.15	23	9.62	126	0.1	75	-3.9	0	0	965.4	NA	0.0000	-PL	9999	3770	4330	0	0
2015/11/23 14:45:00	BASE	2.21	23	9.62	126	0.1	75	-3.9	0	0	965.4	NA	0.0000	-PL	9999	3770	4530	0	0
2015/11/23 14:46:00	BASE	2.62	95	9.62	126	0.0	75	-3.9	0	0	965.4	NA	0.0000		9999	3740	0	0	0
2015/11/23 14:47:00	BASE	2.74	95	9.62	126	0.1	75	-3.9	0	0	965.3	NA	0.0000		9999	3670	0	0	0
2015/11/23 14:48:00	BASE	2.95	117	9.62	126	0.1	74	-4.0	0	0	965.2	NA	0.0000		9999	3610	0	0	0
2015/11/23 14:49:00	BASE	3.49	142	9.62	126	0.2	73	-4.0	0	0	965.2	NA	0.0000		9999	3610	0	0	0
2015/11/23 14:50:00	BASE	3.01	178	9.62	126	0.3	73	-4.0	0	0	965.3	NA	0.0000		9999	2920	0	0	0
2015/11/23 14:51:00	BASE	1.51	123	4.58	141	0.3	73	-4.0	0	0	965.3	NA	0.0000		9999	3080	0	0	0
2015/11/23 14:52:00	BASE	0.80	114	4.48	181	0.3	73	-4.0	0	0	965.3	NA	0.0000		9999	3510	0	0	0
2015/11/23 14:53:00	BASE	1.98	114	4.48	181	0.3	74	-3.9	0	0	965.2	NA	0.0000		9999	3020	3640	0	0
2015/11/23 14:54:00	BASE	2.53	118	4.48	181	0.3	74	-3.8	0	0	965.2	NA	0.0000		9999	3080	0	0	0
2015/11/23 14:55:00	BASE	1.58	135	4.48	181	0.3	74	-3.8	0	0	965.3	NA	0.0000		9999	3020	0	0	0
2015/11/23 14:56:00	BASE	1.27	107	4.48	181	0.4	73	-3.9	0	0	965.4	NA	0.0000		9999	2690	0	0	0
2015/11/23 14:57:00	BASE	1.77	68	4.48	181	0.5	73	-3.9	0	0	965.4	NA	0.0000		9999	2760	0	0	0
2015/11/23 14:58:00	BASE	2.08	67	4.32	185	0.5	72	-3.9	0	0	965.3	NA	0.0000		9999	2990	0	0	0
2015/11/23 14:59:00	BASE	1.96	67	3.76	134	0.6	72	-3.9	0	0	965.2	NA	0.0000		9999	2950	0	0	0
2015/11/23 15:00:00	BASE	2.07	84	3.76	134	0.6	71	-3.9	0	0	965.1	NA	0.0000		9999	2950	0	0	0
2015/11/23 15:01:00	BASE	2.93	129	3.86	179	0.7	71	-3.9	0	0	965.0	NA	0.0000		9999	2660	3540	0	0
2015/11/23 15:02:00	BASE	3.43	169	3.86	186	0.7	71	-3.9	0	0	965.1	NA	0.0000		9999	2820	0	0	0
2015/11/23 15:03:00	BASE	2.38	111	3.86	186	0.7	72	-3.9	0	0	965.2	NA	0.0000		9999	2890	0	0	0
2015/11/23 15:04:00	BASE	1.51	50	3.86	186	0.6	72	-3.8	0	0	965.3	NA	0.0000		9999	2950	0	0	0
2015/11/23 15:05:00	BASE	2.35	50	3.86	186	0.6	73	-3.7	0	0	965.4	NA	0.0000		9999	3050	0	0	0
2015/11/23 15:06:00	BASE	2.50	65	3.86	186	0.7	73	-3.7	0	0	965.3	NA	0.0000		9999	3020	3670	0	0
2015/11/23 15:07:00	BASE	2.42	79	3.96	166	0.7	72	-3.8	0	0	965.0	NA	0.0000		9999	3350	0	0	0
2015/11/23 15:08:00	BASE	3.58	126	5.14	126	0.8	72	-3.8	0	0	964.8	NA	0.0000		9999	2590	0	0	0
2015/11/23 15:09:00	BASE	4.61	126	5.81	151	0.9	71	-3.7	0	0	964.8	NA	0.0000		9999	3380	0	0	0
2015/11/23 15:10:00	BASE	4.42	125	5.81	151	1.1	70	-3.7	0	0	964.9	NA	0.0000		9999	3410	0	0	0
2015/11/23 15:11:00	BASE	3.61	125	5.81	151	1.4	69	-3.7	0	0	964.9	NA	0.0000		9999	3510	4100	0	0
2015/11/23 15:12:00	BASE	3.83	139	5.81	151	1.6	68	-3.6	0	0	964.8	NA	0.2540		9999	2360	3900	0	0
2015/11/23 15:13:00	BASE	3.60	139	5.81	151	1.9	67	-3.6	0	0	964.9	NA	0.0000		9999	2590	3310	0	0
2015/11/23 15:14:00	BASE	3.93	75	6.69	85	2.1	66	-3.6	0	0	964.9	NA	0.0000		9999	2590	4920	0	0
2015/11/23 15:15:00	BASE	5.67	69	7.92	69	2.1	66	-3.6	0	0	965.0	NA	0.0000		9999	2790	0	0	0
2015/11/23 15:16:00	BASE	6.37	69	7.92	69	2.0	67	-3.6	0	0	965.1	NA	0.0000		9999	2820	3410	0	0
2015/11/23 15:17:00	BASE	4.96	78	7.92	69	1.9	67	-3.5	0	0	965.2	NA	0.0000		9999	3310	0	0	0
2015/11/23 15:18:00	BASE	2.90	100	7.92	69	1.8	68	-3.5	0	0	965.1	NA	0.0000		9999	2560	3350	0	0
2015/11/23 15:19:00	BASE	2.54	158	7.92	69	1.8	68	-3.5	0	0	965.0	NA	0.0000		9999	2620	0	0	0
2015/11/23 15:20:00	BASE	2.90	177	7.92	69	1.9	67	-3.5	0	0	964.9	NA	0.0000		9999	2590	3120	3770	0
2015/11/23 15:21:00	BASE	1.94	189	7.92	69	2.0	67	-3.5	0	0	965.0	NA	0.2540		9999	2820	0	0	0
2015/11/23 15:22:00	BASE	0.81	189	7.92	69	2.2	66	-3.5	0	0	965.0	NA	0.0000		9999	3080	0	0	0
2015/11/23 15:23:00	BASE	1.53	231	7.92	69	2.3	66	-3.4	0	0	965.1	NA	0.0000		9999	3080	3840	0	0
2015/11/23 15:24:00	BASE	2.35	239	7.92	69	2.5	66	-3.2	0	0	965.2	NA	0.0000		9999	3670	0	0	0
2015/11/23 15:25:00	BASE	5.14	254	11.32	254	2.6	66	-3.1	0	0	965.0	NA	0.0000		9999	4070	0	0	0
2015/11/23 15:26:00	BASE	6.52	224	11.32	254	2.7	66	-3.0	0	0	965.2	NA	0.0000		9999	3280	4400	0	0
2015/11/23 15:27:00	BASE	3.53	192	11.32	254	2.9	65	-3.0	0	0	965.4	NA	0.0000		9999	3450	0	0	0
2015/11/23 15:28:00	BASE	2.07	192	11.32	254	2.9	65	-3.0	0	0	965.2	NA	0.0000		9999	2620	0	0	0
2015/11/23 15:29:00	BASE	1.36	77	11.32	254	3.0	65	-2.9	0	0	965.1	NA	0.0000		9999	2690	0	0	0
2015/11/23 15:30:00	BASE	1.91	62	11.32	254	3.1	65	-2.9	0	0	965.1	NA	0.0000		9999	2620	0	0	0
2015/11/23 15:31:00	BASE	3.72	51	11.32	254	3.2	64	-2.9	0	0	965.1	NA	0.0000		9999	2590	3940	0	0
2015/11/23 15:32:00	BASE	3.50	32	11.32	254	3.2	64	-2.9	0	0	965.2	NA	0.0000		9999	3120	3810	0	0
2015/11/23 15:33:00	BASE	2.94	3	11.32	254	3.2	64	-2.9	0	0	965.2	NA	0.0000		9999	2790	0	0	0
2015/11/23 15:34:00	BASE	2.56	3	11.32	254	3.2	64	-2.9	0	0	965.3	NA	0.0000		9999	2660	0	0	0
2015/11/23 15:35:00	BASE	2.47	7	8.75	272	3.2	64	-2.9	0	0	965.1	NA	0.0000		9999	3410	0	0	0
2015/11/23 15:36:00	BASE	3.70	98	5.76	133	3.1	65	-2.9	0	0	965.0	NA	0.0000		9999	2560	3900	0	0
2015/11/23 15:37:00	BASE	3.70	109	5.76	133	3.1	65	-2.8	0	0	965.1	NA	0.0000		9999	2720	0	0	0
2015/11/23 15:38:00	BASE	2.00	298	5.76	133	3.0	66	-2.7	0	0	965.2	NA	0.0000		9999	2790	4270	0	0
2015/11/23 15:39:00	BASE	2.06	236	5.76	133	2.9	67	-2.6	0	0	965.3	NA	0.0000		9999	4070	0	0	0
2015/11/23 15:40:00	BASE	4.02	236	6.53	302	2.9	67	-2.6	0	0	965.2	NA	0.0000		9999	3410	4200	0	0
2015/11/23 15:41:00	BASE	4.11	254	6.53	302	2.9	67	-2.6	0	0	965.3	NA	0.0000		9999	2720	0	0	0
2015/11/23 15:42:00	BASE	3.60	254	6.53	302	2.9	67	-2.7	0	0	965.3	NA	0.0000		9999	2820	22930	0	0
2015/11/23 15:43:00	BASE	4.72	276	6.84	327	2.9	66	-2.8	0	0	965.3	NA	0.0000		9999	2760	0	0	0
2015/11/23 15:44:00	BASE	4.88	294	6.84	327	2.9	66	-2.9	0	0	965.3	NA	0.0000		9999	2690	0	0	0
2015/11/23 15:45:00	BASE	4.30	294	6.84	327	2.8	67	-2.8	0	0	965.3	NA	0.0000		9999	2200	3710	0	0
2015/11/23 15:46:00	BASE	3.99	333	6.84	327	2.7	67	-2.8	0	0	965.4	NA	0.0000		9999	4070	0	0	0
2015/11/23 15:47:00	BASE	4.17	17	6.84	327	2.6	68	-2.7	0	0	965.4	NA	0.0000		9999	3940	0	0	0
2015/11/23 15:48:00	BASE	4.50	327	6.84	327	2.5	69	-2.7	0	0	965.3	NA	0.0000		9999	3900	0	0	0
2015/11/23 15:49:00	BASE	3.40	320	6.84	327	2.4	69	-2.7	0	0	965.3	NA	0.0000		9999	3840	0	0	0
2015/11/23 15:50:00	BASE	1.88	320	6.84	327	2.4	69	-2.7	0	0	965.3	NA	0.0000		9999	2100	4040	0	0
2015/11/23 15:51:00	BASE	2.71	321	6.84	327	2.4	69	-2.7	0	0	965.4	NA	0.0000		9999	2200	3940	22900	0
2015/11/23 15:52:00	BASE	5.74	303	8.13	303	2.2	70	-2.7	0	0	965.3	NA	0.0000		9999	2230	3940	0	0
2015/11/23 15:53:00	BASE	6.02	303	8.13	303	2.1	71	-2.6	0	0	965.3	NA	0.0000		9999	2330	0	0	0
2015/11/23 15:54:00	BASE	3.20	326	8.13	303	2.1	71	-2.6	0	0	965.4	NA	0.0000		9999	4130	0	0	0
2015/11/23 15:55:00	BASE	1.99	338	8.13	303	2.1	72	-2.5	0	0	965.3	NA	0.0000		9999	4130	0	0	0
2015/11/23 15:56:00	BASE	2.57	29	8.13	303	2.1	72	-2.5	0	0	965.2	NA	0.0000		9999	4000	0	0	0
2015/11/23 15:57:00	BASE	2.26	123	8.13	303	2.0	72	-2.5	0	0	965.3	NA	0.0000		9999	3900	0	0	0
2015/11/23 15:58:00	BASE	1.64	215	8.13	303	2.0	72	-2.5	0	0	965.4	NA	0.0000		9999	3900	0	0	0
2015/11/23 15:59:00	BASE	2.21	215	8.13	303	1.9	72	-2.5	0	0	965.4	NA	0.0000		9999	3840	0	0	0
2015/11/23 16:00:00	BASE	3.21	346	8.13	303	1.9	72	-2.5	0	0	965.3	NA	0.0000		9999	4000	0	0	0
2015/11/23 16:01:00	BASE	3.73	349	8.13	303	1.9	73	-2.4	0	0	965.3	NA	0.0000		9999	4100	0	0	0
2015/11/23 16:02:00	BASE	2.57	360	6.84	3	1.9	73	-2.4	0	0	965.2	NA	0.0000		9999	4200	0	0	0
2015/11/23 16:03:00	BASE	1.87	21	5.30	13	2.0	73	-2.4	0	0	965.2	NA	0.0000		9999	4170	0	0	0
2015/11/23 16:04:00	BASE	1.99	96	5.30	13	2.0	73	-2.4	0	0	965.3	NA	0.0000		9999	4100	0	0	0
2015/11/23 16:05:00	BASE	1.84	9	5.30	13	2.0	73	-2.4	0	0	965.4	NA	0.0000		9999	2230	4130	0	0
2015/11/23 16:06:00	BASE	3.82	9	7.61	40	2.0	72	-2.5	0	0	965.3	NA	0.0000		9999	4070	0	0	0
2015/11/23 16:07:00	BASE	4.20	14	7.61	40	2.1	71	-2.6	0	0	965.2	NA	0.0000		9999	4000	0	0	0
2015/11/23 16:08:00	BASE	2.79	7	7.61	40	2.1	71	-2.5	0	0	965.3	NA	0.0000		9999	4000	0	0	0
2015/11/23 16:09:00	BASE	3.27	337	7.61	40	2.2	72	-2.4	0	0	965.3	NA	0.0000		9999	4170	0	0	0
2015/11/23 16:10:00	BASE	4.36	337	7.61	40	2.2	71	-2.5	0	0	965.3	NA	0.0000		9999	4100	0	0	0
2015/11/23 16:11:00	BASE	4.66	111	7.61	40	2.1	71	-2.5	0	0	965.1	NA	0.0000		9999	4040	0	0	0
2015/11/23 16:12:00	BASE	4.25	133	7.61	40	2.1	71	-2.6	0	0	965.2	NA	0.0000		9999	4040	0	0	0
2015/11/23 16:13:00	BASE	4.21	126	7.61	40	1.9	72	-2.6	0	0	965.2	NA	0.0000		9999	4070	0	0	0
2015/11/23 16:14:00	BASE	4.01	94	7.61	40	1.8	72	-2.7	0	0	965.3	NA	0.0000		9999	4000	0	0	0
2015/11/23 16:15:00	BASE	3.67	75	7.61	40	1.7	72	-2.7	0	0	965.3	NA	0.0000		9999	4000	0	0	0
2015/11/23 16:16:00	BASE	4.31	74	5.86	145	1.6	73	-2.7	0	0	965.3	NA	0.0000		9999	4040	0	0	0
2015/11/23 16:17:00	BASE	4.81	74	5.86	145	1.6	73	-2.7	0	0	965.3	NA	0.0000		9999	4000	0	0	0
2015/11/23 16:18:00	BASE	4.76	91	5.86	145	1.6	73	-2.8	0	0	965.1	NA	0.0000		9999	4000	0	0	0
2015/11/23 16:19:00	BASE	5.36	130	6.58	159	1.6	73	-2.8	0	0	965.1	NA	0.0000		9999	4000	0	0	0
2015/11/23 16:20:00	BASE	4.74	43	6.58	159	1.7	72	-2.7	0	0	965.4	NA	0.0000		9999	3970	0	0	0
2015/11/23 16:21:00	BASE	3.96	30	6.58	159	1.8	72	-2.7	0	0	965.4	NA	0.0000		9999	3970	0	0	0
2015/11/23 16:22:00	BASE	4.48	30	6.58	159	2.0	72	-2.6	0	0	965.4	NA	0.0000		9999	3940	0	0	0
2015/11/23 16:23:00	BASE	4.59	32	6.58	159	2.0	71	-2.6	0	0	965.4	NA	0.0000		9999	4000	0	0	0
2015/11/23 16:24:00	BASE	3.82	70	6.58	159	2.1	71	-2.6	0	0	965.3	NA	0.0000		9999	3940	0	0	0
2015/11/23 16:25:00	BASE	3.15	56	6.58	159	2.1	71	-2.6	0	0	965.2	NA	0.0000		9999	3710	0	0	0
2015/11/23 16:26:00	BASE	4.11	56	7.51	94	2.1	71	-2.7	0	0	965.2	NA	0.0000		9999	3840	0	0	0
2015/11/23 16:27:00	BASE	4.34	8	7.51	94	2.1	70	-2.7	0	0	965.1	NA	0.0000		9999	3810	0	0	0
2015/11/23 16:28:00	BASE	3.20	8	7.51	94	2.1	70	-2.8	0	0	965.2	NA	0.0000		9999	3870	0	0	0
2015/11/23 16:29:00	BASE	3.59	16	7.51	94	2.0	70	-2.8	0	0	965.3	NA	0.0000		9999	3740	0	0	0
2015/11/23 16:30:01	BASE	5.06	70	7.51	94	2.0	70	-2.9	0	0	965.3	NA	0.0000		9999	3640	0	0	0
2015/11/23 16:31:00	BASE	6.17	78	7.67	95	1.8	71	-2.9	0	0	965.1	NA	0.0000		9999	3610	0	0	0
2015/11/23 16:32:00	BASE	6.44	94	7.67	95	1.7	72	-2.8	0	0	964.9	NA	0.0000		9999	3740	0	0	0
2015/11/23 16:33:00	BASE	5.81	125	7.67	95	1.6	73	-2.7	0	0	965.0	NA	0.0000		9999	3870	0	0	0
2015/11/23 16:34:00	BASE	5.82	137	7.67	95	1.6	73	-2.7	0	0	964.9	NA	0.0000		9999	3740	0	0	0
2015/11/23 16:35:00	BASE	5.28	115	7.67	95	1.6	74	-2.6	0	0	965.1	NA	0.0000		9999	3770	0	0	0
2015/11/23 16:36:00	BASE	3.98	60	7.67	95	1.6	74	-2.6	0	0	965.2	NA	0.0000		9999	3740	0	0	0
2015/11/23 16:37:00	BASE	4.35	360	7.67	95	1.7	74	-2.5	0	0	965.2	NA	0.0000		9999	3740	0	0	0
2015/11/23 16:38:00	BASE	4.29	277	7.67	95	1.7	73	-2.5	0	0	965.1	NA	0.0000		9999	3810	0	0	0
2015/11/23 16:39:00	BASE	3.34	225	7.67	95	1.8	73	-2.5	0	0	965.0	NA	0.0000		9999	3870	0	0	0
2015/11/23 16:40:00	BASE	2.06	225	7.67	95	1.8	73	-2.5	0	0	965.1	NA	0.0000		9999	3770	0	0	0
2015/11/23 16:41:00	BASE	0.78	233	7.05	130	1.9	73	-2.5	0	0	965.0	NA	0.0000		9999	3770	0	0	0
2015/11/23 16:42:00	BASE	0.48	342	6.74	143	1.9	73	-2.5	0	0	965.0	NA	0.0000		9999	3670	0	0	0
2015/11/23 16:43:00	BASE	0.67	179	6.74	143	1.8	73	-2.6	0	0	965.1	NA	0.0000		9999	3740	0	0	0
2015/11/23 16:44:00	BASE	1.14	312	5.45	43	1.8	73	-2.6	0	0	965.1	NA	0.0000		9999	3900	0	0	0
2015/11/23 16:45:00	BASE	1.61	110	5.45	43	1.8	73	-2.6	0	0	965.3	NA	0.0000		9999	3840	0	0	0
2015/11/23 16:46:00	BASE	2.34	268	5.45	43	1.7	73	-2.5	0	0	965.4	NA	0.0000		9999	3900	0	0	0
2015/11/23 16:47:00	BASE	2.97	217	4.48	302	1.6	74	-2.5	0	0	965.2	NA	0.0000		9999	3940	0	0	0
2015/11/23 16:48:00	BASE	3.13	217	3.76	255	1.5	75	-2.5	0	0	965.0	NA	0.0000		9999	3770	0	0	0
2015/11/23 16:49:00	BASE	2.74	172	3.70	225	1.5	75	-2.5	0	0	965.0	NA	0.0000		9999	3710	0	0	0
2015/11/23 16:50:00	BASE	2.39	122	3.70	225	1.5	75	-2.5	0	0	965.1	NA	0.0000		9999	3580	0	0	0
2015/11/23 16:51:00	BASE	2.55	112	4.06	132	1.5	74	-2.6	0	0	965.2	NA	0.0000		9999	3610	0	0	0
2015/11/23 16:52:00	BASE	2.73	111	4.06	132	1.7	73	-2.6	0	0	964.9	NA	0.0000		9999	3610	0	0	0
2015/11/23 16:53:00	BASE	3.13	101	4.12	112	1.7	73	-2.6	0	0	965.1	NA	0.0000		9999	3540	0	0	0
2015/11/23 16:54:00	BASE	3.30	101	4.12	112	1.6	73	-2.6	0	0	965.2	NA	0.0000		9999	3510	0	0	0
2015/11/23 16:55:00	BASE	3.22	96	4.12	112	1.6	74	-2.6	0	0	965.1	NA	0.0000		9999	3710	0	0	0
2015/11/23 16:56:00	BASE	3.67	88	4.84	91	1.5	74	-2.6	0	0	965.2	NA	0.0000		9999	3740	0	0	0
2015/11/23 16:57:00	BASE	4.28	88	5.04	123	1.5	74	-2.7	0	0	965.0	NA	0.0000		9999	3670	0	0	0
2015/11/23 16:58:00	BASE	4.46	108	5.45	122	1.5	73	-2.7	0	0	965.0	NA	0.0000		9999	3670	0	0	0
2015/11/23 16:59:00	BASE	3.89	114	5.45	122	1.6	72	-2.8	0	0	965.1	NA	0.0000		9999	3610	0	0	0
2015/11/23 17:00:00	BASE	3.47	114	5.45	122	1.7	72	-2.8	0	0	965.1	NA	0.0000		9999	3670	0	0	0
2015/11/23 17:01:00	BASE	3.67	109	5.45	122	1.8	71	-2.9	0	0	965.0	NA	0.0000		9999	3540	0	0	0
2015/11/23 17:02:00	BASE	3.98	109	5.45	122	1.9	71	-2.9	0	0	964.8	NA	0.0000		9999	3670	0	0	0
2015/11/23 17:03:00	BASE	4.65	112	5.45	122	1.8	71	-2.9	0	0	965.0	NA	0.0000		9999	3610	0	0	0
2015/11/23 17:04:00	BASE	5.37	112	6.02	125	1.8	71	-3.0	0	0	964.8	NA	0.0000		9999	3640	0	0	0
2015/11/23 17:05:00	BASE	5.74	97	6.22	121	1.7	71	-3.1	0	0	964.9	NA	0.0000		9999	3610	0	0	0
2015/11/23 17:06:00	BASE	5.69	94	6.38	100	1.6	71	-3.1	0	0	964.9	NA	0.0000		9999	3610	0	0	0
2015/11/23 17:07:00	BASE	5.49	93	6.38	100	1.5	71	-3.2	0	0	965.0	NA	0.0000		9999	3640	0	0	0
2015/11/23 17:08:00	BASE	4.86	93	6.38	100	1.4	71	-3.2	0	0	965.0	NA	0.0000		9999	3580	23980	0	0
2015/11/23 17:09:00	BASE	4.98	99	6.38	127	1.4	71	-3.2	0	0	964.8	NA	0.0000		9999	3450	3840	0	0
2015/11/23 17:10:00	BASE	5.42	121	6.38	127	1.5	71	-3.3	0	0	964.7	NA	0.0000		9999	3450	0	0	0
2015/11/23 17:11:00	BASE	5.71	99	7.31	119	1.5	71	-3.3	0	0	964.7	NA	0.0000		9999	3380	0	0	0
2015/11/23 17:12:00	BASE	6.57	99	7.72	126	1.5	71	-3.3	0	0	964.6	NA	0.0000		9999	3510	0	0	0
2015/11/23 17:13:00	BASE	6.44	119	7.72	126	1.4	71	-3.2	0	0	964.7	NA	0.0000		9999	3540	0	0	0
2015/11/23 17:14:00	BASE	6.09	110	7.72	126	1.4	72	-3.2	0	0	964.7	NA	0.0000		9999	3610	0	0	0
2015/11/23 17:15:00	BASE	5.07	110	7.72	126	1.4	72	-3.2	0	0	964.8	NA	0.0000		9999	3610	22870	0	0
2015/11/23 17:16:00	BASE	4.40	107	7.72	126	1.4	71	-3.2	0	0	964.8	NA	0.0000		9999	3740	0	0	0
2015/11/23 17:17:00	BASE	4.91	107	7.72	126	1.4	71	-3.2	0	0	964.8	NA	0.0000		9999	3640	0	0	0
2015/11/23 17:18:00	BASE	5.04	105	7.72	126	1.4	71	-3.3	0	0	964.7	NA	0.0000		9999	3710	0	0	0
2015/11/23 17:19:00	BASE	5.37	105	7.72	126	1.4	70	-3.4	0	0	964.6	NA	0.0000		9999	3640	0	0	0
2015/11/23 17:20:00	BASE	5.47	117	7.72	126	1.4	71	-3.4	0	0	964.7	NA	0.0000		9999	3810	0	0	0
2015/11/23 17:21:00	BASE	5.21	117	7.72	126	1.4	71	-3.4	0	0	964.6	NA	0.0000		9999	3810	0	0	0
2015/11/23 17:22:00	BASE	4.76	118	7.15	130	1.4	71	-3.4	0	0	964.5	NA	0.0000		9999	3580	3970	0	0
2015/11/23 17:23:00	BASE	5.13	107	6.84	115	1.3	71	-3.3	0	0	964.8	NA	0.0000		9999	3580	0	0	0
2015/11/23 17:24:00	BASE	5.74	105	6.38	108	1.3	72	-3.3	0	0	964.8	NA	0.0000		9999	3610	0	0	0
2015/11/23 17:25:00	BASE	5.45	105	6.38	108	1.3	72	-3.2	0	0	964.8	NA	0.0000		9999	3480	0	0	0
2015/11/23 17:26:00	BASE	5.02	98	6.38	108	1.3	72	-3.2	0	0	964.8	NA	0.0000		9999	3380	0	0	0
2015/11/23 17:27:00	BASE	4.97	98	6.38	108	1.3	72	-3.2	0	0	964.8	NA	0.0000		9999	2920	3410	0	0
2015/11/23 17:28:00	BASE	5.27	99	6.38	108	1.4	71	-3.2	0	0	964.7	NA	0.0000		9999	2260	0	0	0
2015/11/23 17:29:00	BASE	4.92	106	6.38	108	1.5	70	-3.3	0	0	964.8	NA	0.0000		9999	2330	3480	0	0
2015/11/23 17:30:00	BASE	5.01	96	6.38	98	1.6	70	-3.3	0	0	964.8	NA	0.0000		9999	2590	3610	0	0
2015/11/23 17:31:00	BASE	5.47	88	6.38	98	1.8	69	-3.2	0	0	964.7	NA	0.0000		9999	3510	0	0	0
2015/11/23 17:32:00	BASE	5.58	88	6.48	100	1.8	69	-3.2	0	0	964.7	NA	0.0000		9999	3480	0	0	0
2015/11/23 17:33:00	BASE	5.57	77	6.48	100	1.9	69	-3.1	0	0	964.6	NA	0.0000		9999	3580	0	0	0
2015/11/23 17:34:00	BASE	4.66	77	6.48	100	1.9	69	-3.1	0	0	964.8	NA	0.0000		9999	3610	0	0	0
2015/11/23 17:35:00	BASE	3.65	92	6.48	100	2.0	70	-3.0	0	0	964.6	NA	0.0000		9999	3450	0	0	0
2015/11/23 17:36:00	BASE	3.87	78	6.48	100	2.0	70	-3.0	0	0	964.7	NA	0.0000		9999	3410	0	0	0
2015/11/23 17:37:00	BASE	5.24	78	7.31	92	2.0	70	-3.0	0	0	964.6	NA	0.0000		9999	3540	0	0	0
2015/11/23 17:38:00	BASE	6.54	85	8.23	94	2.0	70	-3.0	0	0	964.5	NA	0.0000		9999	3380	0	0	0
2015/11/23 17:39:00	BASE	6.64	85	8.23	94	2.0	70	-3.0	0	0	964.6	NA	0.0000		9999	3380	0	0	0
2015/11/23 17:40:00	BASE	5.79	100	8.23	94	2.0	70	-3.0	0	0	964.7	NA	0.0000		9999	3540	0	0	0
2015/11/23 17:41:00	BASE	5.20	106	8.23	94	2.0	70	-2.9	0	0	964.7	NA	0.0000		9999	3510	0	0	0
2015/11/23 17:42:00	BASE	4.59	116	8.23	94	2.0	70	-2.9	0	0	964.5	NA	0.0000		9999	3580	0	0	0
2015/11/23 17:43:00	BASE	3.63	120	8.23	94	1.9	70	-2.9	0	0	964.6	NA	0.0000		9999	3540	0	0	0
2015/11/23 17:44:00	BASE	2.59	143	8.23	94	1.9	71	-2.8	0	0	964.6	NA	0.0000		9999	3540	0	0	0
2015/11/23 17:45:00	BASE	1.23	107	8.23	94	1.8	71	-2.8	0	0	964.5	NA	0.0000		9999	3480	0	0	0
2015/11/23 17:46:00	BASE	0.29	40	8.23	94	1.8	71	-2.8	0	0	964.8	NA	0.0000		9999	3380	0	0	0
2015/11/23 17:47:00	BASE	0.63	40	8.23	94	1.8	72	-2.8	0	0	964.8	NA	0.0000		9999	3480	0	0	0
2015/11/23 17:48:00	BASE	0.66	354	6.69	105	1.8	72	-2.8	0	0	964.7	NA	0.0000		9999	3540	0	0	0
2015/11/23 17:49:00	BASE	0.40	354	6.12	122	1.8	72	-2.8	0	0	964.8	NA	0.0000		9999	3480	0	0	0
2015/11/23 17:50:00	BASE	0.88	22	5.71	128	1.8	71	-2.9	0	0	964.8	NA	0.0000		9999	3510	0	0	0
2015/11/23 17:51:00	BASE	1.96	68	4.84	129	1.7	72	-2.9	0	0	964.7	NA	0.0000		9999	3410	0	0	0
2015/11/23 17:52:00	BASE	2.87	92	4.48	135	1.7	71	-2.9	0	0	964.7	NA	0.0000		9999	3480	0	0	0
2015/11/23 17:53:00	BASE	2.90	72	4.48	135	1.7	71	-2.9	0	0	964.8	NA	0.0000		9999	3410	0	0	0
2015/11/23 17:54:00	BASE	3.05	56	4.48	135	1.8	71	-2.9	0	0	964.7	NA	0.0000		9999	3450	0	0	0
2015/11/23 17:55:00	BASE	3.31	44	5.35	79	1.9	71	-2.9	0	0	964.8	NA	0.0000		9999	3510	0	0	0
2015/11/23 17:56:00	BASE	3.35	44	5.35	79	1.9	70	-2.9	0	0	964.8	NA	0.0000		9999	3410	0	0	0
2015/11/23 17:57:00	BASE	2.75	94	5.35	79	2.0	70	-2.9	0	0	964.6	NA	0.0000		9999	3410	0	0	0
2015/11/23 17:58:00	BASE	3.13	87	5.35	79	2.0	70	-2.9	0	0	964.9	NA	0.0000		9999	3510	0	0	0
2015/11/23 17:59:00	BASE	3.75	84	5.35	79	2.0	70	-2.9	0	0	964.8	NA	0.0000		9999	3540	0	0	0
2015/11/23 18:00:00	BASE	4.14	84	5.81	116	2.0	70	-2.9	0	0	964.8	NA	0.0000		9999	3410	19030	0	0
2015/11/23 18:01:00	BASE	4.08	101	5.81	116	2.0	70	-2.9	0	0	964.8	NA	0.0000		9999	3350	0	0	0
2015/11/23 18:02:00	BASE	3.37	90	5.81	116	2.0	70	-2.8	0	0	964.8	NA	0.0000		9999	3350	0	0	0
2015/11/23 18:03:00	BASE	3.00	90	5.81	116	2.1	70	-2.8	0	0	964.5	NA	0.0000		9999	3310	0	0	0
2015/11/23 18:04:00	BASE	2.90	110	5.81	116	2.2	69	-2.8	0	0	964.8	NA	0.0000		9999	3350	0	0	0
2015/11/23 18:05:00	BASE	3.80	117	5.81	116	2.3	69	-2.8	0	0	964.7	NA	0.0000		9999	3450	0	0	0
2015/11/23 18:06:00	BASE	4.28	102	5.81	116	2.3	69	-2.8	0	0	964.4	NA	0.0000		9999	3310	0	0	0
2015/11/23 18:07:00	BASE	3.90	90	5.81	116	2.4	69	-2.8	0	0	964.7	NA	0.0000		9999	3450	0	0	0
2015/11/23 18:08:00	BASE	3.37	59	5.81	116	2.3	69	-2.9	0	0	964.7	NA	0.0000		9999	3510	0	0	0
2015/11/23 18:09:00	BASE	3.81	59	5.81	116	2.2	69	-2.9	0	0	964.8	NA	0.0000		9999	3640	0	0	0
2015/11/23 18:10:00	BASE	4.31	77	5.66	82	2.1	70	-2.9	0	0	964.7	NA	0.0000		9999	3670	0	0	0
2015/11/23 18:11:00	BASE	5.70	90	7.77	107	2.0	70	-2.9	0	0	964.6	NA	0.0000		9999	3510	0	0	0
2015/11/23 18:12:00	BASE	6.17	84	7.77	107	2.0	70	-2.9	0	0	964.7	NA	0.0000		9999	3610	0	0	0
2015/11/23 18:13:00	BASE	4.78	64	7.77	107	1.9	70	-3.0	0	0	964.8	NA	0.0000		9999	3540	0	0	0
2015/11/23 18:14:00	BASE	4.76	64	7.77	107	1.8	71	-2.9	0	0	964.7	NA	0.0000		9999	3450	0	0	0
2015/11/23 18:15:00	BASE	5.14	77	7.77	107	1.8	71	-2.9	0	0	964.7	NA	0.0000		9999	3350	0	0	0
2015/11/23 18:16:00	BASE	5.71	73	7.77	107	1.7	72	-2.9	0	0	964.7	NA	0.0000		9999	3710	0	0	0
2015/11/23 18:17:00	BASE	6.28	71	7.77	107	1.6	73	-2.8	0	0	964.6	NA	0.0000		9999	3250	4230	0	0
2015/11/23 18:18:00	BASE	6.63	71	7.77	107	1.5	73	-2.8	0	0	964.5	NA	0.0000		9999	3540	4430	0	0
2015/11/23 18:19:00	BASE	6.28	73	7.77	107	1.6	73	-2.8	0	0	964.6	NA	0.0000		9999	3510	6660	0	0
2015/11/23 18:20:00	BASE	5.17	39	7.77	107	1.6	73	-2.8	0	0	964.7	NA	0.0000		9999	3580	6760	0	0
2015/11/23 18:21:00	BASE	5.69	35	7.72	93	1.6	72	-2.8	0	0	964.6	NA	0.0000		9999	2300	6200	6960	0
2015/11/23 18:22:00	BASE	7.00	35	8.03	50	1.7	72	-2.8	0	0	964.7	NA	0.0000		9999	3310	3810	6270	0
2015/11/23 18:23:00	BASE	7.03	44	8.03	50	1.8	72	-2.8	0	0	964.6	NA	0.0000		9999	3710	4790	0	0
2015/11/23 18:24:00	BASE	6.52	57	8.03	50	1.8	71	-2.9	0	0	964.4	NA	0.0000		9999	4890	6330	0	0
2015/11/23 18:25:00	BASE	6.65	82	8.08	88	1.8	71	-2.9	0	0	964.5	NA	0.0000		9999	4890	6270	0	0
2015/11/23 18:26:00	BASE	7.27	76	8.08	93	1.8	71	-3.0	0	0	964.5	NA	0.0000		9999	4430	0	0	0
2015/11/23 18:27:00	BASE	7.26	76	8.08	93	1.8	71	-3.0	0	0	964.6	NA	0.0000		9999	4400	0	0	0
2015/11/23 18:28:00	BASE	7.40	84	8.49	104	1.7	71	-2.9	0	0	964.5	NA	0.0000		9999	2360	3120	3710	0
2015/11/23 18:29:00	BASE	7.19	90	8.49	104	1.7	72	-2.9	0	0	964.5	NA	0.0000		9999	3150	4530	0	0
2015/11/23 18:30:00	BASE	6.39	90	8.49	104	1.7	71	-2.9	0	0	964.6	NA	0.0000		9999	3610	4460	0	0
2015/11/23 18:31:00	BASE	6.51	92	8.49	104	1.7	71	-3.0	0	0	964.6	NA	0.0000		9999	3710	4400	0	0
2015/11/23 18:32:00	BASE	6.29	94	8.49	104	1.7	71	-3.0	0	0	964.6	NA	0.0000		9999	4200	0	0	0
2015/11/23 18:33:00	BASE	5.87	98	8.49	104	1.8	70	-3.0	0	0	964.6	NA	0.0000		9999	4270	0	0	0
2015/11/23 18:34:00	BASE	6.54	100	8.49	104	1.9	70	-3.1	0	0	964.5	NA	0.0000		9999	2400	4270	0	0
2015/11/23 18:35:00	BASE	6.66	104	8.49	104	1.9	69	-3.1	0	0	964.6	NA	0.0000		9999	3900	0	0	0
2015/11/23 18:36:00	BASE	6.38	101	8.49	104	2.0	69	-3.1	0	0	964.6	NA	0.0000		9999	4200	0	0	0
2015/11/23 18:37:00	BASE	6.42	101	8.49	104	2.0	69	-3.1	0	0	964.6	NA	0.0000		9999	4230	0	0	0
2015/11/23 18:38:00	BASE	5.68	101	7.97	104	1.9	69	-3.1	0	0	964.7	NA	0.0000		9999	4200	0	0	0
2015/11/23 18:39:00	BASE	4.32	104	7.97	104	1.8	70	-3.1	0	0	964.8	NA	0.0000		9999	4270	0	0	0
2015/11/23 18:40:00	BASE	3.30	105	7.97	104	1.8	70	-3.1	0	0	964.8	NA	0.0000		9999	3150	3610	4270	0
2015/11/23 18:41:00	BASE	3.65	118	7.97	104	1.7	71	-3.1	0	0	964.7	NA	0.0000		9999	4130	0	0	0
2015/11/23 18:42:00	BASE	4.78	125	7.97	104	1.6	71	-3.0	0	0	964.7	NA	0.0000		9999	4300	0	0	0
2015/11/23 18:43:00	BASE	5.44	123	7.97	104	1.6	72	-3.0	0	0	964.6	NA	0.0000		9999	4360	0	0	0
2015/11/23 18:44:00	BASE	4.98	120	7.20	103	1.6	72	-2.9	0	0	964.7	NA	0.0000		9999	4170	0	0	0
2015/11/23 18:45:00	BASE	4.09	120	7.20	103	1.6	73	-2.8	0	0	964.7	NA	0.0000		9999	4100	0	0	0
2015/11/23 18:46:00	BASE	4.17	123	6.69	106	1.6	73	-2.8	0	0	964.7	NA	0.0000		9999	4270	0	0	0
2015/11/23 18:47:00	BASE	4.19	123	6.12	128	1.6	73	-2.8	0	0	964.8	NA	0.0000		9999	2260	4330	0	0
2015/11/23 18:48:00	BASE	4.14	128	6.12	128	1.6	73	-2.8	0	0	964.7	NA	0.0000		9999	4360	0	0	0
2015/11/23 18:49:00	BASE	4.19	136	6.12	128	1.6	73	-2.8	0	0	964.7	NA	0.0000		9999	2170	4360	0	0
2015/11/23 18:50:00	BASE	3.69	108	6.12	128	1.5	73	-2.8	0	0	964.8	NA	0.0000		9999	2170	22410	0	0
2015/11/23 18:51:00	BASE	3.56	90	6.12	128	1.5	73	-2.8	0	0	964.8	NA	0.0000		9999	2260	4560	0	0
2015/11/23 18:52:00	BASE	3.56	90	6.12	128	1.5	73	-2.8	0	0	964.7	NA	0.0000		9999	4460	0	0	0
2015/11/23 18:53:00	BASE	3.67	113	5.61	120	1.5	73	-2.8	0	0	964.7	NA	0.0000		9999	4490	0	0	0
2015/11/23 18:54:00	BASE	3.83	121	4.89	131	1.5	73	-2.8	0	0	964.6	NA	0.0000		9999	2230	4400	0	0
2015/11/23 18:55:00	BASE	3.62	120	4.89	131	1.5	73	-2.8	0	0	964.7	NA	0.0000		9999	2130	4490	0	0
2015/11/23 18:56:00	BASE	3.71	115	4.78	121	1.6	72	-2.9	0	0	964.6	NA	0.0000		9999	2360	4760	0	0
2015/11/23 18:57:00	BASE	3.62	115	4.78	121	1.5	73	-2.9	0	0	964.7	NA	0.0000		9999	4820	0	0	0
2015/11/23 18:58:00	BASE	3.28	116	4.78	121	1.5	73	-2.9	0	0	964.7	NA	0.0000		9999	2490	4820	0	0
2015/11/23 18:59:00	BASE	3.25	133	4.78	121	1.4	73	-2.8	0	0	964.7	NA	0.0000		9999	2430	4760	0	0
2015/11/23 19:00:00	BASE	3.66	124	4.78	121	1.4	73	-2.8	0	0	964.8	NA	0.0000		9999	3410	4630	0	0
2015/11/23 19:01:00	BASE	3.87	119	4.78	121	1.4	73	-2.8	0	0	964.7	NA	0.0000		9999	3450	4590	0	0
2015/11/23 19:02:00	BASE	3.57	119	4.78	121	1.4	74	-2.7	0	0	964.7	NA	0.0000		9999	3480	4630	0	0
2015/11/23 19:03:00	BASE	3.60	117	4.78	140	1.4	74	-2.7	0	0	964.6	NA	0.0000		9999	4530	0	0	0
2015/11/23 19:04:00	BASE	4.17	108	5.30	132	1.5	74	-2.7	0	0	964.6	NA	0.0000		9999	4630	0	0	0
2015/11/23 19:05:00	BASE	4.50	108	5.30	132	1.5	74	-2.7	0	0	964.6	NA	0.0000		9999	2360	4690	0	0
2015/11/23 19:06:00	BASE	4.18	98	5.30	132	1.6	73	-2.7	0	0	964.6	NA	0.0000		9999	2230	4790	0	0
2015/11/23 19:07:00	BASE	3.64	84	5.30	132	1.7	73	-2.7	0	0	964.7	NA	0.0000		9999	4720	0	0	0
2015/11/23 19:08:00	BASE	3.83	84	5.30	132	1.7	73	-2.7	0	0	964.6	NA	0.0000		9999	2230	4720	0	0
2015/11/23 19:09:00	BASE	4.53	142	5.30	132	1.6	73	-2.7	0	0	964.6	NA	0.0000		9999	4690	0	0	0
2015/11/23 19:10:00	BASE	4.58	147	5.30	132	1.4	74	-2.7	0	0	964.6	NA	0.0000		9999	2230	4720	0	0
2015/11/23 19:11:00	BASE	4.04	139	5.30	132	1.2	76	-2.7	0	0	964.6	NA	0.0000		9999	4690	0	0	0
2015/11/23 19:12:00	BASE	4.04	137	5.40	141	1.0	77	-2.6	0	0	964.5	NA	0.0000		9999	4760	0	0	0
2015/11/23 19:13:00	BASE	4.82	137	5.92	142	0.9	78	-2.5	0	0	964.4	NA	0.0000		9999	4820	0	0	0
2015/11/23 19:14:00	BASE	5.20	130	5.92	142	0.9	78	-2.5	0	0	964.5	NA	0.0000		9999	4760	0	0	0
2015/11/23 19:15:00	BASE	5.12	126	5.92	142	1.0	77	-2.5	0	0	964.5	NA	0.0000		9999	4690	0	0	0
2015/11/23 19:16:00	BASE	5.04	125	5.92	142	1.2	76	-2.5	0	0	964.5	NA	0.0000		9999	4690	0	0	0
2015/11/23 19:17:00	BASE	5.13	125	5.92	142	1.3	76	-2.5	0	0	964.4	NA	0.0000		9999	4530	0	0	0
2015/11/23 19:18:00	BASE	5.12	126	5.92	142	1.4	75	-2.6	0	0	964.4	NA	0.0000		9999	4530	0	0	0
2015/11/23 19:19:00	BASE	4.90	128	5.92	142	1.4	75	-2.7	0	0	964.4	NA	0.0000		9999	4560	0	0	0
2015/11/23 19:20:00	BASE	5.11	116	6.69	124	1.3	75	-2.6	0	0	964.4	NA	0.0000		9999	4630	0	0	0
2015/11/23 19:21:00	BASE	5.21	116	6.69	124	1.2	76	-2.6	0	0	964.5	NA	0.0000		9999	4530	0	0	0
2015/11/23 19:22:00	BASE	4.59	118	6.69	124	1.2	75	-2.7	0	0	964.5	NA	0.0000		9999	4630	0	0	0
2015/11/23 19:23:00	BASE	4.54	122	6.69	124	1.2	75	-2.7	0	0	964.4	NA	0.0000		9999	4590	0	0	0
2015/11/23 19:24:00	BASE	5.30	119	6.69	124	1.3	75	-2.7	0	0	964.4	NA	0.0000		9999	4660	0	0	0
2015/11/23 19:25:00	BASE	5.54	114	6.69	124	1.4	74	-2.7	0	0	964.5	NA	0.0000		9999	4460	0	0	0
2015/11/23 19:26:00	BASE	5.01	109	6.69	124	1.5	73	-2.8	0	0	964.5	NA	0.0000		9999	4590	0	0	0
2015/11/23 19:27:00	BASE	4.48	109	6.69	124	1.6	73	-2.8	0	0	964.5	NA	0.0000		9999	4690	0	0	0
2015/11/23 19:28:00	BASE	4.36	117	6.69	124	1.6	72	-2.8	0	0	964.5	NA	0.0000		9999	4720	0	0	0
2015/11/23 19:29:00	BASE	4.88	128	6.69	124	1.7	72	-2.9	0	0	964.5	NA	0.0000		9999	4660	0	0	0
2015/11/23 19:30:00	BASE	5.05	128	6.64	128	1.6	72	-2.9	0	0	964.5	NA	0.0000		9999	4720	0	0	0
2015/11/23 19:31:00	BASE	4.59	99	6.64	128	1.6	73	-2.8	0	0	964.5	NA	0.0000		9999	4720	0	0	0
2015/11/23 19:32:00	BASE	4.55	99	6.64	128	1.5	74	-2.7	0	0	964.5	NA	0.0000		9999	4690	20600	23720	0
2015/11/23 19:33:00	BASE	4.89	110	6.64	128	1.4	74	-2.7	0	0	964.5	NA	0.0000		9999	4760	0	0	0
2015/11/23 19:34:00	BASE	5.40	118	6.28	122	1.4	74	-2.7	0	0	964.3	NA	0.0000		9999	4760	0	0	0
2015/11/23 19:35:00	BASE	5.67	120	6.28	122	1.3	74	-2.7	0	0	964.3	NA	0.0000		9999	4790	0	0	0
2015/11/23 19:36:00	BASE	5.27	126	6.28	122	1.4	74	-2.7	0	0	964.3	NA	0.0000		9999	4820	0	0	0
2015/11/23 19:37:00	BASE	5.27	126	6.28	122	1.4	74	-2.8	0	0	964.3	NA	0.0000		9999	4860	0	0	0
2015/11/23 19:38:00	BASE	5.41	128	6.28	122	1.3	74	-2.8	0	0	964.3	NA	0.0000		9999	4860	0	0	0
2015/11/23 19:39:00	BASE	4.68	129	6.28	122	1.3	74	-2.8	0	0	964.3	NA	0.0000		9999	4860	0	0	0
2015/11/23 19:40:00	BASE	4.47	127	6.28	122	1.3	74	-2.8	0	0	964.3	NA	0.0000		9999	4890	0	0	0
2015/11/23 19:41:00	BASE	4.67	127	6.28	122	1.3	74	-2.8	0	0	964.3	NA	0.0000		9999	4890	0	0	0
2015/11/23 19:42:00	BASE	4.30	115	6.28	122	1.2	75	-2.8	0	0	964.4	NA	0.0000		9999	4860	0	0	0
2015/11/23 19:43:00	BASE	3.53	115	6.28	122	1.2	75	-2.8	0	0	964.4	NA	0.0000		9999	4860	0	0	0
2015/11/23 19:44:00	BASE	3.68	125	6.17	132	1.1	75	-2.8	0	0	964.2	NA	0.0000		9999	4820	0	0	0
2015/11/23 19:45:00	BASE	4.80	132	6.17	132	1.1	76	-2.7	0	0	964.1	NA	0.0000		9999	4790	0	0	0
2015/11/23 19:46:00	BASE	5.13	128	6.17	132	1.1	76	-2.7	0	0	964.1	NA	0.0000		9999	4820	0	0	0
2015/11/23 19:47:00	BASE	4.99	128	6.07	137	1.1	76	-2.7	0	0	964.1	NA	0.0000		9999	2490	4820	0	0
2015/11/23 19:48:00	BASE	5.10	133	5.61	144	1.1	76	-2.7	0	0	964.1	NA	0.0000		9999	4760	0	0	0
2015/11/23 19:49:00	BASE	4.55	111	5.61	144	1.2	76	-2.6	0	0	964.2	NA	0.0000		9999	2560	4760	0	0
2015/11/23 19:50:00	BASE	4.62	111	6.33	144	1.3	75	-2.7	0	0	964.0	NA	0.0000		9999	2360	4760	0	0
2015/11/23 19:51:00	BASE	5.03	129	6.33	144	1.4	75	-2.6	0	0	964.0	NA	0.0000		9999	4920	0	0	0
2015/11/23 19:52:00	BASE	4.12	129	6.33	144	1.4	74	-2.7	0	0	964.1	NA	0.0000		9999	4860	0	0	0
2015/11/23 19:53:00	BASE	3.65	148	6.33	144	1.4	75	-2.6	0	0	964.0	NA	0.0000		9999	4890	0	0	0
2015/11/23 19:54:00	BASE	3.90	145	6.33	144	1.3	76	-2.5	0	0	964.0	NA	0.0000		9999	5020	0	0	0
2015/11/23 19:55:00	BASE	4.15	141	6.33	144	1.1	77	-2.5	0	0	964.1	NA	0.0000		9999	5020	0	0	0
2015/11/23 19:56:00	BASE	4.19	141	6.33	144	1.0	78	-2.4	0	0	964.0	NA	0.0000		9999	4990	0	0	0
2015/11/23 19:57:00	BASE	4.25	140	6.33	144	1.0	78	-2.4	0	0	964.1	NA	0.0000		9999	5020	0	0	0
2015/11/23 19:58:00	BASE	4.27	140	6.33	144	1.0	78	-2.4	0	0	964.1	NA	0.0000		9999	5050	0	0	0
2015/11/23 19:59:00	BASE	4.25	143	6.33	144	1.0	78	-2.4	0	0	964.0	NA	0.0000		9999	5050	0	0	0
2015/11/23 20:00:00	BASE	4.15	148	5.92	129	1.0	78	-2.4	0	0	963.9	NA	0.0000		9999	5020	0	0	0
2015/11/23 20:01:00	BASE	3.60	141	4.84	142	1.0	79	-2.4	0	0	964.0	NA	0.0000		9999	5090	0	0	0
2015/11/23 20:02:00	BASE	3.25	139	4.84	142	0.9	79	-2.3	0	0	964.0	NA	0.0000		9999	5090	0	0	0
2015/11/23 20:03:00	BASE	2.93	133	4.84	142	0.8	80	-2.3	0	0	964.1	NA	0.0000		9999	5090	0	0	0
2015/11/23 20:04:00	BASE	2.61	128	4.84	142	0.8	80	-2.3	0	0	964.1	NA	0.0000		9999	5120	0	0	0
2015/11/23 20:05:00	BASE	2.94	128	4.84	142	0.8	80	-2.3	0	0	964.0	NA	0.0000		9999	5150	0	0	0
2015/11/23 20:06:00	BASE	3.40	138	4.84	142	0.7	80	-2.3	0	0	964.0	NA	0.0000		9999	5090	0	0	0
2015/11/23 20:07:00	BASE	3.19	135	4.68	160	0.7	80	-2.3	0	0	963.5	NA	0.0000		9999	5120	0	0	0
2015/11/23 20:08:00	BASE	2.41	135	4.68	160	0.7	80	-2.3	0	0	964.1	NA	0.0000		9999	5090	0	0	0
2015/11/23 20:09:00	BASE	2.09	139	4.58	158	0.7	80	-2.3	0	0	964.1	NA	0.0000		9999	5050	0	0	0
2015/11/23 20:10:00	BASE	2.46	142	3.81	139	0.7	81	-2.2	0	0	964.0	NA	0.0000		9999	5090	0	0	0
2015/11/23 20:11:00	BASE	2.20	146	3.81	139	0.7	81	-2.2	0	0	964.0	NA	0.0000		9999	5150	0	0	0
2015/11/23 20:12:00	BASE	1.76	110	3.81	139	0.6	81	-2.2	0	0	964.0	NA	0.0000		9999	5120	0	0	0
2015/11/23 20:13:00	BASE	1.98	108	3.81	139	0.6	81	-2.2	0	0	964.0	NA	0.0000		9999	5090	0	0	0
2015/11/23 20:14:00	BASE	1.90	108	3.81	139	0.7	81	-2.2	0	0	963.9	NA	0.0000		9999	5050	0	0	0
2015/11/23 20:15:00	BASE	2.19	109	3.81	139	0.7	80	-2.3	0	0	963.7	NA	0.0000		9999	5050	0	0	0
2015/11/23 20:16:00	BASE	3.01	144	3.55	147	0.8	80	-2.3	0	0	963.7	NA	0.0000		9999	5050	0	0	0
2015/11/23 20:17:00	BASE	3.19	141	3.55	147	0.8	80	-2.2	0	0	963.7	NA	0.0000		9999	4990	0	0	0
2015/11/23 20:18:00	BASE	3.00	139	3.55	147	0.8	80	-2.2	0	0	963.6	NA	0.0000		9999	4990	0	0	0
2015/11/23 20:19:00	BASE	2.46	109	3.55	147	0.8	80	-2.2	0	0	963.7	NA	0.0000		9999	5090	0	0	0
2015/11/23 20:20:00	BASE	2.45	103	3.55	147	0.8	80	-2.1	0	0	963.6	NA	0.0000		9999	5090	0	0	0
2015/11/23 20:21:00	BASE	3.04	103	4.22	128	1.0	80	-2.1	0	0	963.6	NA	0.0000		9999	5120	0	0	0
2015/11/23 20:22:00	BASE	3.53	102	4.32	122	1.1	79	-2.1	0	0	963.6	NA	0.0000		9999	5150	0	0	0
2015/11/23 20:23:00	BASE	3.94	102	4.48	122	1.2	79	-2.1	0	0	963.6	NA	0.0000		9999	5180	0	0	0
2015/11/23 20:24:00	BASE	4.08	103	4.89	131	1.3	78	-2.1	0	0	963.6	NA	0.0000		9999	5180	0	0	0
2015/11/23 20:25:00	BASE	3.97	96	4.94	112	1.5	77	-2.2	0	0	963.1	NA	0.0000		9999	5220	0	0	0
2015/11/23 20:26:00	BASE	3.67	96	4.94	112	1.5	76	-2.2	0	0	963.6	NA	0.0000		9999	5250	0	0	0
2015/11/23 20:27:00	BASE	3.44	64	4.94	112	1.6	76	-2.2	0	0	963.5	NA	0.0000		9999	5280	0	0	0
2015/11/23 20:28:00	BASE	3.55	23	4.94	112	1.9	75	-2.1	0	0	963.2	NA	0.0000		9999	5320	0	0	0
2015/11/23 20:29:00	BASE	3.77	23	4.94	112	2.0	75	-2.0	0	0	963.3	NA	0.0000		9999	5320	0	0	0
2015/11/23 20:30:00	BASE	4.03	34	5.61	99	2.2	75	-1.9	0	0	962.9	NA	0.0000		9999	5350	0	0	0
2015/11/23 20:31:00	BASE	4.84	85	6.48	101	2.4	74	-1.8	0	0	963.4	NA	0.0000		9999	5350	0	0	0
2015/11/23 20:32:00	BASE	4.04	97	6.48	101	2.3	74	-1.9	0	0	963.2	NA	0.0000		9999	5280	0	0	0
2015/11/23 20:33:00	BASE	3.21	118	6.48	101	2.1	74	-2.1	0	0	963.2	NA	0.0000		9999	5350	20830	0	0
2015/11/23 20:34:00	BASE	3.32	141	6.48	101	1.9	74	-2.2	0	0	962.9	NA	0.0000		9999	5450	0	0	0
2015/11/23 20:35:00	BASE	1.80	91	6.48	101	1.6	76	-2.2	0	0	962.9	NA	0.0000		9999	5510	0	0	0
2015/11/23 20:36:00	BASE	1.33	91	6.48	101	1.3	77	-2.3	0	0	963.0	NA	0.0000		9999	5540	0	0	0
2015/11/23 20:37:00	BASE	2.62	143	6.48	101	1.1	79	-2.2	0	0	963.4	NA	0.0000		9999	5580	0	0	0
2015/11/23 20:38:00	BASE	2.61	179	6.48	101	1.0	80	-2.2	0	0	963.2	NA	0.0000		9999	5680	0	0	0
2015/11/23 20:39:00	BASE	2.30	144	6.48	101	0.9	80	-2.1	0	0	963.4	NA	0.0000		9999	5710	0	0	0
2015/11/23 20:40:00	BASE	3.02	144	6.48	101	0.8	81	-2.1	0	0	963.5	NA	0.0000		9999	5640	0	0	0
2015/11/23 20:41:00	BASE	3.81	154	4.48	163	0.9	81	-2.1	0	0	963.6	NA	0.0000		9999	5710	0	0	0
2015/11/23 20:42:00	BASE	3.84	141	4.48	151	0.9	81	-2.1	0	0	963.6	NA	0.0000		9999	5710	0	0	0
2015/11/23 20:43:00	BASE	3.45	141	4.48	151	0.9	81	-2.0	0	0	963.6	NA	0.0000		9999	5410	0	0	0
2015/11/23 20:44:00	BASE	3.07	151	4.48	151	1.0	80	-2.0	0	0	963.6	NA	0.0000		9999	5610	0	0	0
2015/11/23 20:45:00	BASE	2.63	130	4.48	151	1.0	80	-2.1	0	0	963.6	NA	0.0000		9999	5480	0	0	0
2015/11/23 20:46:00	BASE	2.76	130	4.48	151	1.0	80	-2.1	0	0	963.6	NA	0.0000		9999	5480	0	0	0
2015/11/23 20:47:00	BASE	2.43	160	4.48	151	0.9	80	-2.0	0	0	963.6	NA	0.0000		9999	5580	0	0	0
2015/11/23 20:48:00	BASE	1.90	186	4.48	151	0.9	81	-2.0	0	0	963.6	NA	0.0000		9999	5710	0	0	0
2015/11/23 20:49:00	BASE	1.11	196	4.48	151	0.9	81	-2.0	0	0	963.7	NA	0.0000		9999	5680	0	0	0
2015/11/23 20:50:00	BASE	0.33	181	4.48	151	0.9	81	-2.0	0	0	963.7	NA	0.0000		9999	5740	0	0	0
2015/11/23 20:51:00	BASE	0.87	181	4.48	151	0.9	81	-2.0	0	0	963.7	NA	0.0000		9999	5810	0	0	0
2015/11/23 20:52:00	BASE	2.08	198	3.55	204	1.0	81	-2.0	0	0	963.7	NA	0.0000		9999	5810	0	0	0
2015/11/23 20:53:00	BASE	2.55	191	3.55	204	1.0	80	-2.0	0	0	963.8	NA	0.0000		9999	5740	0	0	0
2015/11/23 20:54:00	BASE	2.03	153	3.55	204	1.2	79	-2.0	0	0	963.7	NA	0.0000		9999	5740	0	0	0
2015/11/23 20:55:00	BASE	1.20	68	3.55	204	1.4	78	-2.0	0	0	963.7	NA	0.0000		9999	5710	0	0	0
2015/11/23 20:56:00	BASE	1.54	66	3.55	204	1.6	77	-2.1	0	0	963.7	NA	0.0000		9999	5710	0	0	0
2015/11/23 20:57:00	BASE	2.45	66	4.12	161	1.7	76	-2.2	0	0	963.7	NA	0.0000		9999	5740	0	0	0
2015/11/23 20:58:00	BASE	3.19	92	4.78	159	1.8	75	-2.1	0	0	963.6	NA	0.0000		9999	5770	0	0	0
2015/11/23 20:59:00	BASE	3.98	115	4.78	115	1.9	74	-2.2	0	0	963.7	NA	0.0000		9999	5840	0	0	0
2015/11/23 21:00:00	BASE	4.13	112	4.78	141	1.9	74	-2.2	0	0	963.7	NA	0.0000		9999	6140	0	0	0
2015/11/23 21:01:00	BASE	3.87	59	4.78	141	2.0	74	-2.1	0	0	963.7	NA	0.0000		9999	6230	0	0	0
2015/11/23 21:02:00	BASE	3.28	59	4.78	141	2.2	74	-1.9	0	0	963.7	NA	0.0000	-PL	9999	6070	0	0	0
2015/11/23 21:03:00	BASE	3.54	83	5.50	142	2.3	74	-1.9	0	0	963.7	NA	0.0000	-PL	9999	6000	0	0	0
2015/11/23 21:04:00	BASE	2.68	62	5.50	142	2.4	74	-1.8	0	0	963.7	NA	0.0000	-PL	9999	6040	0	0	0
2015/11/23 21:05:00	BASE	1.92	259	5.50	142	2.4	74	-1.7	0	0	963.6	NA	0.0000	-PL	9999	5970	0	0	0
2015/11/23 21:06:00	BASE	3.97	259	7.67	5	2.4	74	-1.7	0	0	963.5	NA	0.0000	-PL	9999	5970	0	0	0
2015/11/23 21:07:00	BASE	5.07	345	7.67	5	2.4	75	-1.6	0	0	963.5	NA	0.0000	-PL	9999	6460	0	0	0
2015/11/23 21:08:00	BASE	4.87	360	7.77	19	2.4	75	-1.5	0	0	963.6	NA	0.0000	-PL	9999	6660	0	0	0
2015/11/23 21:09:00	BASE	6.10	1	8.90	42	2.5	76	-1.3	0	0	963.5	NA	0.0000	-PL	9999	6920	0	0	0
2015/11/23 21:10:00	BASE	6.88	5	11.11	19	2.4	77	-1.3	0	0	963.4	NA	0.0000	-PL	9999	6960	0	0	0
2015/11/23 21:11:00	BASE	7.54	6	11.73	28	2.4	77	-1.2	0	0	963.3	NA	0.0000	-PL	9999	6920	0	0	0
2015/11/23 21:12:00	BASE	9.69	5	13.58	28	2.4	77	-1.2	0	0	963.1	NA	0.0000	-PL	9999	7090	0	0	0
2015/11/23 21:13:00	BASE	10.83	5	14.20	22	2.4	77	-1.2	0	0	963.0	NA	0.0000	-PL	9999	7150	0	0	0
2015/11/23 21:14:00	BASE	11.10	11	14.20	22	2.4	77	-1.2	0	0	962.9	NA	0.0000	-PL	9999	7150	0	0	0
2015/11/23 21:15:00	BASE	12.10	12	14.20	22	2.4	77	-1.2	0	0	962.8	NA	0.0000	-PL	9999	7280	0	0	0
2015/11/23 21:16:00	BASE	12.94	2	15.38	37	2.4	77	-1.2	0	0	962.8	NA	0.0000	-PL	9999	7380	0	0	0
2015/11/23 21:17:00	BASE	12.99	2	15.38	37	2.4	77	-1.2	0	0	962.8	NA	0.0000	-PL	9999	6690	0	0	0
2015/11/23 21:18:00	BASE	12.85	17	16.36	32	2.4	77	-1.2	0	0	962.9	NA	0.0000	-PL	9999	6790	7380	0	0
2015/11/23 21:19:00	BASE	12.12	17	16.36	32	2.5	77	-1.2	0	0	963.0	NA	0.0000	-PL	9999	6860	0	0	0
2015/11/23 21:20:00	BASE	12.10	16	16.36	32	2.4	77	-1.2	0	0	962.8	NA	0.0000	-PL	9999	6960	0	0	0
2015/11/23 21:21:00	BASE	12.58	12	16.36	32	2.4	77	-1.2	0	0	962.8	NA	0.0000	-PL	9999	7090	0	0	0
2015/11/23 21:22:00	BASE	12.61	4	16.36	32	2.4	77	-1.1	0	0	962.7	NA	0.0000	-PL	9999	7220	0	0	0
2015/11/23 21:23:00	BASE	13.44	4	16.36	32	2.4	77	-1.2	0	0	962.6	NA	0.0000	-PL	9999	7420	0	0	0
2015/11/23 21:24:00	BASE	13.58	10	16.51	36	2.4	77	-1.1	0	0	962.6	NA	0.0000	-PL	9999	7190	0	0	0
2015/11/23 21:25:00	BASE	13.85	13	16.98	13	2.4	77	-1.2	0	0	962.5	NA	0.0000	-PL	9999	7280	7740	0	0
2015/11/23 21:26:00	BASE	14.56	13	16.98	13	2.4	77	-1.2	0	0	962.5	NA	0.0000	-PL	9999	7020	0	0	0
2015/11/23 21:27:00	BASE	14.62	18	16.98	13	2.5	77	-1.2	0	0	962.5	NA	0.0000	-PL	9999	6760	0	0	0
2015/11/23 21:28:00	BASE	14.30	10	16.98	13	2.5	76	-1.3	0	0	962.5	NA	0.0000	-PL	9999	6820	0	0	0
2015/11/23 21:29:00	BASE	14.44	10	17.65	22	2.4	77	-1.3	0	0	962.5	NA	0.0000	-PL	9999	6860	0	0	0
2015/11/23 21:30:00	BASE	15.30	20	18.78	25	2.4	77	-1.3	0	0	962.4	NA	0.0000	-PL	9999	6920	0	0	0
2015/11/23 21:31:00	BASE	15.03	20	18.78	25	2.4	77	-1.2	0	0	962.5	NA	0.0000	-PL	9999	6920	0	0	0
2015/11/23 21:32:00	BASE	14.35	19	18.78	25	2.3	78	-1.2	0	0	962.4	NA	0.0000	-PL	9999	6860	0	0	0
2015/11/23 21:33:00	BASE	14.01	19	18.78	25	2.2	78	-1.1	0	0	962.4	NA	0.0000	-PL	9999	6760	0	0	0
2015/11/23 21:34:00	BASE	14.06	19	18.78	25	2.2	79	-1.1	0	0	962.3	NA	0.0000	-PL	9999	6960	0	0	0
2015/11/23 21:35:00	BASE	14.40	21	18.78	25	2.2	79	-1.1	0	0	962.3	NA	0.0000	-PL	9999	7120	0	0	0
2015/11/23 21:36:00	BASE	14.68	14	18.78	25	2.2	79	-1.1	0	0	962.2	NA	0.0000	-PL	9999	7190	0	0	0
2015/11/23 21:37:00	BASE	14.76	11	18.78	25	2.2	79	-1.1	0	0	962.2	NA	0.0000	-PL	9999	6920	7250	0	0
2015/11/23 21:38:00	BASE	14.55	11	18.78	25	2.2	79	-1.1	0	0	962.2	NA	0.0000	-PL	9999	6690	0	0	0
2015/11/23 21:39:00	BASE	14.66	14	18.78	25	2.2	78	-1.2	0	0	962.2	NA	0.0000	-PL	9999	7050	0	0	0
2015/11/23 21:40:00	BASE	14.97	14	18.47	18	2.2	78	-1.2	0	0	962.1	NA	0.0000	-PL	9999	7380	0	0	0
2015/11/23 21:41:00	BASE	15.24	17	18.47	18	2.2	78	-1.2	0	0	962.1	NA	0.0000	-PL	9999	7910	0	0	0
2015/11/23 21:42:00	BASE	15.13	14	18.47	18	2.2	78	-1.2	0	0	962.1	NA	0.0000	-PL	9999	7840	0	0	0
2015/11/23 21:43:00	BASE	15.40	14	18.47	18	2.2	78	-1.2	0	0	962.1	NA	0.0000	-PL	9999	7940	0	0	0
2015/11/23 21:44:00	BASE	15.48	20	18.47	18	2.2	78	-1.2	0	0	962.1	NA	0.0000	-PL	9999	8370	0	0	0
2015/11/23 21:45:00	BASE	15.59	23	18.47	18	2.2	78	-1.3	0	0	962.1	NA	0.0000	-PL	9000	8400	0	0	0
2015/11/23 21:46:00	BASE	15.68	9	18.42	31	2.2	78	-1.3	0	0	962.1	NA	0.0000	-PL	9000	8460	0	0	0
2015/11/23 21:47:00	BASE	15.55	9	18.42	31	2.1	78	-1.3	0	0	962.1	NA	0.0000	-PL	6000	8530	0	0	0
2015/11/23 21:48:00	BASE	15.18	19	18.42	31	2.1	78	-1.4	0	0	962.1	NA	0.0000	-PL	8000	7970	8600	0	0
2015/11/23 21:49:00	BASE	14.57	17	18.42	31	2.1	78	-1.4	0	0	962.0	NA	0.0000	-PL	9000	8460	0	0	0
2015/11/23 21:50:00	BASE	14.84	17	19.29	24	2.0	78	-1.4	0	0	962.0	NA	0.0000	-PL	9000	8630	0	0	0
2015/11/23 21:51:00	BASE	15.28	14	19.29	24	2.0	78	-1.4	0	0	961.9	NA	0.0000	-PL	7000	8760	0	0	0
2015/11/23 21:52:00	BASE	15.31	14	19.29	24	2.0	78	-1.4	0	0	962.0	NA	0.0000	-PL	6000	8730	0	0	0
2015/11/23 21:53:00	BASE	15.36	12	19.29	24	1.9	79	-1.4	0	0	961.9	NA	0.0000	-PL	7000	8830	0	0	0
2015/11/23 21:54:00	BASE	15.71	12	19.29	24	1.9	79	-1.4	0	0	961.9	NA	0.0000	-PL	7000	8830	0	0	0
2015/11/23 21:55:00	BASE	15.35	11	19.29	24	1.9	79	-1.4	0	0	961.9	NA	0.0000	-PL	7000	8040	8690	0	0
2015/11/23 21:56:00	BASE	15.17	11	19.29	24	1.9	79	-1.3	0	0	961.9	NA	0.0000	-PL	7000	8100	8730	0	0
2015/11/23 21:57:00	BASE	15.31	11	19.29	24	1.9	79	-1.3	0	0	961.8	NA	0.0000	-PL	9000	8070	0	0	0
2015/11/23 21:58:00	BASE	14.87	11	19.29	24	1.8	80	-1.3	0	0	961.9	NA	0.0000	-PL	9000	8170	0	0	0
2015/11/23 21:59:00	BASE	14.98	19	19.29	24	1.8	80	-1.3	0	0	961.8	NA	0.0000	-PL	8000	8200	0	0	0
2015/11/23 22:00:00	BASE	15.28	19	18.62	14	1.8	80	-1.3	0	0	961.8	NA	0.0000	-PL	6000	8330	22970	0	0
2015/11/23 22:01:00	BASE	15.38	22	17.85	17	1.8	80	-1.2	0	0	961.8	NA	0.0000	-PL	6000	8460	0	0	0
2015/11/23 22:02:00	BASE	16.05	20	19.29	25	1.9	80	-1.3	0	0	961.8	NA	0.0000	-PL	6000	8630	0	0	0
2015/11/23 22:03:00	BASE	15.98	20	19.29	25	1.9	79	-1.3	0	0	961.9	NA	0.0000	-PL	6000	8530	0	0	0
2015/11/23 22:04:00	BASE	15.20	15	19.29	25	1.9	79	-1.4	0	0	961.9	NA	0.0000	-PL	8000	8500	0	0	0
2015/11/23 22:05:00	BASE	15.11	15	19.29	25	1.9	79	-1.4	0	0	961.9	NA	0.0000	-PL	6000	8460	0	0	0
2015/11/23 22:06:00	BASE	15.13	17	19.29	25	1.9	78	-1.5	0	0	961.9	NA	0.0000	-PL	5000	8630	0	0	0
2015/11/23 22:07:00	BASE	15.25	18	19.29	25	1.9	78	-1.5	0	0	961.9	NA	0.0000	-PL	5000	9290	0	0	0
2015/11/23 22:08:00	BASE	14.77	20	19.29	25	1.9	78	-1.4	0	0	962.0	NA	0.0000	-PL	5000	8270	9380	0	0
2015/11/23 22:09:00	BASE	14.72	17	19.29	25	1.9	79	-1.4	0	0	961.9	NA	0.0000	-PL	5000	8040	0	0	0
2015/11/23 22:10:00	BASE	15.24	9	19.29	25	1.9	78	-1.4	0	0	961.8	NA	0.0000	-PL	5000	8330	0	0	0
2015/11/23 22:11:00	BASE	15.82	9	19.50	23	1.9	78	-1.4	0	0	961.7	NA	0.0000	-PL	5000	8430	0	0	0
2015/11/23 22:12:00	BASE	15.48	11	19.50	23	1.9	78	-1.4	0	0	961.7	NA	0.0000	-PL	5000	8530	0	0	0
2015/11/23 22:13:00	BASE	14.53	14	19.50	23	1.9	78	-1.4	0	0	961.6	NA	0.0000	-PL	5000	8830	0	0	0
2015/11/23 22:14:00	BASE	15.44	9	19.50	23	1.9	78	-1.4	0	0	961.5	NA	0.0000	-PL	5000	9020	0	0	0
2015/11/23 22:15:00	BASE	16.74	8	19.50	23	1.9	79	-1.4	0	0	961.3	NA	0.0000	-PL	5000	9150	0	0	0
2015/11/23 22:16:00	BASE	16.91	8	19.50	23	1.9	79	-1.4	0	0	961.3	NA	0.0000	-PL	5000	9420	0	0	0
2015/11/23 22:17:00	BASE	16.46	8	19.50	23	1.9	79	-1.4	0	0	961.3	NA	0.0000	-PL	5000	9220	0	0	0
2015/11/23 22:18:00	BASE	16.97	8	19.96	24	1.9	79	-1.3	0	0	961.1	NA	0.0000	-PL	5000	9380	0	0	0
2015/11/23 22:19:00	BASE	17.56	9	19.96	24	1.9	79	-1.3	0	0	960.8	NA	0.0000	-PL	6000	9610	0	0	0
2015/11/23 22:20:00	BASE	18.03	7	21.25	7	1.9	79	-1.3	0	0	960.9	NA	0.0000	-PL	9000	10170	0	0	0
2015/11/23 22:21:00	BASE	18.38	7	21.25	7	1.9	79	-1.3	0	0	960.9	NA	0.0000	-PL	9000	9840	0	0	0
2015/11/23 22:22:00	BASE	18.54	5	22.28	5	1.9	79	-1.3	0	0	960.8	NA	0.0000	-PL	9000	10110	0	0	0
2015/11/23 22:23:00	BASE	18.43	5	22.28	5	1.9	79	-1.3	0	0	960.8	NA	0.0000	-PL	9000	10300	0	0	0
2015/11/23 22:24:00	BASE	18.80	10	22.28	5	1.9	79	-1.3	0	0	960.6	NA	0.0000	-PL	9000	10400	0	0	0
2015/11/23 22:25:00	BASE	19.35	2	22.28	5	1.9	80	-1.3	0	0	960.6	NA	0.0000	-PL	9000	10370	0	0	0
2015/11/23 22:26:00	BASE	19.48	2	22.84	19	1.8	80	-1.3	0	0	960.5	NA	0.0000	-PL	9999	10530	0	0	0
2015/11/23 22:27:01	BASE	19.92	8	22.84	19	1.8	80	-1.2	0	0	960.5	NA	0.0000	-PL	9999	10730	0	0	0
2015/11/23 22:28:00	BASE	20.05	9	23.25	24	1.8	81	-1.2	0	0	960.5	NA	0.0000	-PL	9999	10730	0	0	0
2015/11/23 22:29:00	BASE	20.20	7	23.25	24	1.8	81	-1.2	0	0	960.4	NA	0.0000	-PL	9999	10600	0	0	0
2015/11/23 22:30:00	BASE	19.64	7	23.25	24	1.8	81	-1.2	0	0	960.5	NA	0.0000	-PL	9999	10830	0	0	0
2015/11/23 22:31:00	BASE	19.63	11	23.25	24	1.8	80	-1.2	0	0	960.4	NA	0.0000	-PL	9999	10630	0	0	0
2015/11/23 22:32:00	BASE	19.81	7	23.25	24	1.8	80	-1.2	0	0	960.4	NA	0.0000	-PL	9999	10960	0	0	0
2015/11/23 22:33:00	BASE	20.42	7	23.72	10	1.8	80	-1.3	0	0	960.2	NA	0.0000	-PL	9999	10960	0	0	0
2015/11/23 22:34:00	BASE	21.11	7	23.72	15	1.8	80	-1.3	0	0	960.3	NA	0.0000	-PL	9999	10860	0	0	0
2015/11/23 22:35:00	BASE	20.75	7	23.72	15	1.8	80	-1.3	0	0	960.3	NA	0.0000	-PL	9999	10730	0	0	0
2015/11/23 22:36:00	BASE	20.16	10	23.72	15	1.8	80	-1.3	0	0	960.3	NA	0.0000	-PL	9999	10700	0	0	0
2015/11/23 22:37:00	BASE	20.05	10	23.72	15	1.8	80	-1.3	0	0	960.3	NA	0.0000	-PL	9999	10300	0	0	0
2015/11/23 22:38:00	BASE	20.92	8	23.72	15	1.7	80	-1.3	0	0	960.3	NA	0.0000	-PL	9999	11350	0	0	0
2015/11/23 22:39:00	BASE	21.26	8	23.72	15	1.7	80	-1.3	0	0	960.3	NA	0.0000	-PL	9999	0	0	0	9510
2015/11/23 22:40:00	BASE	20.55	11	23.72	15	1.7	80	-1.3	0	0	960.4	NA	0.0000	-PL	9000	0	0	0	9510
2015/11/23 22:41:00	BASE	20.05	6	23.72	15	1.7	80	-1.3	0	0	960.4	NA	0.0000	-PL	9999	0	0	0	9510
2015/11/23 22:42:00	BASE	20.41	6	23.72	15	1.7	80	-1.4	0	0	960.4	NA	0.0000	-PL	9000	0	0	0	9510
2015/11/23 22:43:00	BASE	20.39	6	23.72	15	1.8	79	-1.4	0	0	960.4	NA	0.0000	-PL	9999	0	0	0	9510
2015/11/23 22:44:00	BASE	20.13	6	23.66	17	1.8	79	-1.5	0	0	960.4	NA	0.0000	-PL	9999	0	0	0	9510
2015/11/23 22:45:00	BASE	19.80	7	23.66	17	1.8	79	-1.5	0	0	960.5	NA	0.0000	-PL	8000	0	0	0	1710
2015/11/23 22:46:00	BASE	19.44	7	23.66	17	1.8	79	-1.5	0	0	960.4	NA	0.0000	-PL	7000	0	0	0	9510
2015/11/23 22:47:00	BASE	18.85	7	23.66	17	1.8	79	-1.4	0	0	960.5	NA	0.0000	-PL	9000	0	0	0	9510
2015/11/23 22:48:00	BASE	19.47	8	23.66	17	1.8	79	-1.4	0	0	960.3	NA	0.0000	-PL	9999	0	0	0	9090
2015/11/23 22:49:00	BASE	20.19	11	23.61	22	1.8	79	-1.4	0	0	960.3	NA	0.0000	-PL	9999	0	0	0	9510
2015/11/23 22:50:00	BASE	20.23	12	23.61	22	1.8	79	-1.4	0	0	960.3	NA	0.0000	-PL	9999	0	0	0	9510
2015/11/23 22:51:00	BASE	20.31	11	23.61	22	1.8	79	-1.5	0	0	960.3	NA	0.0000	-PL	9000	0	0	0	9510
2015/11/23 22:52:00	BASE	20.28	7	23.61	22	1.8	79	-1.5	0	0	960.2	NA	0.0000	-PL	9999	0	0	0	9510
2015/11/23 22:53:00	BASE	20.68	7	23.61	22	1.8	79	-1.5	0	0	960.2	NA	0.0000	-PL	9000	10890	0	0	0
2015/11/23 22:54:00	BASE	20.16	8	23.61	22	1.8	79	-1.5	0	0	960.2	NA	0.0000	-PL	9000	0	0	0	9510
2015/11/23 22:55:00	BASE	19.88	9	23.61	22	1.8	79	-1.5	0	0	960.2	NA	0.0000	-PL	7000	0	0	0	9510
2015/11/23 22:56:00	BASE	20.19	8	23.61	22	1.8	79	-1.5	0	0	960.1	NA	0.0000	-PL	9000	0	0	0	8200
2015/11/23 22:57:00	BASE	20.19	8	23.61	22	1.8	79	-1.5	0	0	960.1	NA	0.0000	-PL	9000	0	0	0	8040
2015/11/23 22:58:00	BASE	19.84	11	23.20	24	1.8	79	-1.4	0	0	960.1	NA	0.0000	-PL	8000	0	0	0	8040
2015/11/23 22:59:00	BASE	19.98	12	23.20	24	1.8	79	-1.4	0	0	960.0	NA	0.0000	-PL	6000	0	0	0	1150
2015/11/23 23:00:00	BASE	20.60	11	23.20	24	1.8	80	-1.4	0	0	960.0	NA	0.0000	-PL	6000	0	0	0	1180
2015/11/23 23:01:00	BASE	20.83	11	23.46	27	1.8	80	-1.3	0	0	959.9	NA	0.0000	-PL	6000	0	0	0	1120
2015/11/23 23:02:00	BASE	20.76	11	23.46	27	1.8	80	-1.3	0	0	960.0	NA	0.0000	-PL	5000	0	0	0	1180
2015/11/23 23:03:00	BASE	20.15	14	23.46	27	1.8	80	-1.3	0	0	960.0	NA	0.0000	-PL	3000	0	0	0	1250
2015/11/23 23:04:00	BASE	20.40	8	23.46	27	1.8	80	-1.3	0	0	959.9	NA	0.0000	-PL	3000	0	0	0	1210
2015/11/23 23:05:00	BASE	21.41	8	24.44	20	1.7	80	-1.3	0	0	959.9	NA	0.0000	-PL	2400	0	0	0	1150
2015/11/23 23:06:00	BASE	21.58	5	25.16	11	1.7	80	-1.3	0	0	959.9	NA	0.0000	-PL	3000	0	0	0	1050
2015/11/23 23:07:00	BASE	21.21	5	25.16	11	1.7	81	-1.3	0	0	959.9	NA	0.0000	-PL	2600	0	0	0	1020
2015/11/23 23:08:00	BASE	21.62	12	25.16	11	1.7	81	-1.2	0	0	959.8	NA	0.0000	-PL	2400	0	0	0	1080
2015/11/23 23:09:00	BASE	22.24	6	25.16	11	1.7	81	-1.2	0	0	959.8	NA	0.0000	-PL	2300	0	0	0	1080
2015/11/23 23:10:00	BASE	21.61	6	25.16	11	1.7	81	-1.2	0	0	959.9	NA	0.0000	-PL	2400	0	0	0	1180
2015/11/23 23:11:00	BASE	20.51	11	25.16	11	1.7	81	-1.2	0	0	959.9	NA	0.0000	-SN	2300	0	0	0	1250
2015/11/23 23:12:00	BASE	20.75	11	25.16	11	1.7	81	-1.2	0	0	959.7	NA	0.0000	-SN	2100	0	0	0	1250
2015/11/23 23:13:00	BASE	22.18	14	25.16	11	1.7	81	-1.2	0	0	959.6	NA	0.0000	-SN	2100	0	0	0	1380
2015/11/23 23:14:00	BASE	22.61	11	25.57	18	1.7	81	-1.2	0	0	959.7	NA	0.0000	-SN	2200	0	0	0	1250
2015/11/23 23:15:00	BASE	22.10	11	25.57	18	1.7	81	-1.2	0	0	959.7	NA	0.0000	-SN	2300	0	0	0	1180
2015/11/23 23:16:00	BASE	21.34	9	25.57	18	1.7	81	-1.2	0	0	959.8	NA	0.0000	-SN	2100	0	0	0	1310
2015/11/23 23:17:00	BASE	20.59	8	25.57	18	1.7	81	-1.2	0	0	959.9	NA	0.0000	-SN	2100	0	0	0	850
2015/11/23 23:18:00	BASE	20.60	8	25.57	18	1.7	81	-1.2	0	0	959.7	NA	0.0000	-SN	2200	0	0	0	890
2015/11/23 23:19:00	BASE	21.45	11	25.57	18	1.6	82	-1.2	0	0	959.6	NA	0.0000	-SN	2000	0	0	0	1020
2015/11/23 23:20:00	BASE	20.65	5	25.57	18	1.6	82	-1.1	0	0	959.9	NA	0.0000	-SN	2700	0	0	0	950
2015/11/23 23:21:00	BASE	20.01	5	25.57	18	1.6	82	-1.1	0	0	959.8	NA	0.0000	-SN	2700	0	0	0	980
2015/11/23 23:22:00	BASE	20.83	9	25.57	18	1.6	82	-1.1	0	0	959.7	NA	0.0000	-SN	2400	0	0	0	1050
2015/11/23 23:23:00	BASE	20.55	9	25.57	18	1.6	82	-1.1	0	0	959.8	NA	0.0000	-SN	2400	0	0	0	920
2015/11/23 23:24:00	BASE	20.64	10	24.59	19	1.6	82	-1.1	0	0	959.7	NA	0.0000	-SN	2900	0	0	0	850
2015/11/23 23:25:00	BASE	20.90	7	24.59	19	1.6	82	-1.1	0	0	959.7	NA	0.0000	-SN	3000	0	0	0	920
2015/11/23 23:26:00	BASE	21.15	7	24.59	19	1.6	82	-1.1	0	0	959.7	NA	0.0000	-SN	7000	0	0	0	980
2015/11/23 23:27:00	BASE	20.55	6	24.59	19	1.6	82	-1.1	0	0	959.9	NA	0.0000	-SN	5000	0	0	0	1080
2015/11/23 23:28:00	BASE	19.97	2	24.59	19	1.6	82	-1.1	0	0	959.8	NA	0.0000	-SN	9999	0	0	0	950
2015/11/23 23:29:00	BASE	21.14	2	23.87	22	1.6	82	-1.1	0	0	959.7	NA	0.0000	-PL	9999	0	0	0	1670
2015/11/23 23:30:00	BASE	21.74	5	23.97	22	1.6	82	-1.1	0	0	959.7	NA	0.0000	-PL	9999	0	0	0	1080
2015/11/23 23:31:00	BASE	21.49	6	23.97	9	1.6	82	-1.1	0	0	959.6	NA	0.0000	-PL	9999	0	0	0	920
2015/11/23 23:32:00	BASE	21.51	6	24.28	22	1.6	82	-1.1	0	0	959.6	NA	0.0000	-PL	9999	0	0	0	980
2015/11/23 23:33:00	BASE	21.49	6	24.28	22	1.6	82	-1.1	0	0	959.7	NA	0.0000	-PL	9999	0	0	0	1120
2015/11/23 23:34:00	BASE	20.92	6	24.28	22	1.6	82	-1.1	0	0	959.7	NA	0.0000	-PL	8000	0	0	0	1050
2015/11/23 23:35:00	BASE	20.42	9	24.33	19	1.6	82	-1.1	0	0	959.8	NA	0.0000	-PL	5000	0	0	0	850
2015/11/23 23:36:00	BASE	21.14	9	24.69	29	1.6	82	-1.1	0	0	959.6	NA	0.0000	-PL	4300	0	0	0	950
2015/11/23 23:37:00	BASE	20.97	9	24.69	29	1.6	82	-1.1	0	0	959.8	NA	0.0000	-PL	5000	0	0	0	1080
2015/11/23 23:38:00	BASE	20.54	16	24.69	29	1.6	82	-1.1	0	0	959.7	NA	0.0000	-PL	6000	0	0	0	1180
2015/11/23 23:39:00	BASE	21.44	11	24.69	29	1.6	82	-1.1	0	0	959.6	NA	0.0000	-PL	5000	0	0	0	7870
2015/11/23 23:40:00	BASE	21.50	11	24.69	29	1.6	82	-1.1	0	0	959.7	NA	0.0000	-PL	6000	0	0	0	6170
2015/11/23 23:41:00	BASE	20.51	5	24.69	29	1.6	82	-1.1	0	0	959.8	NA	0.0000	-PL	4500	0	0	0	5640
2015/11/23 23:42:00	BASE	20.55	4	24.69	29	1.6	82	-1.1	0	0	959.7	NA	0.0000	-PL	4000	0	0	0	4630
2015/11/23 23:43:00	BASE	20.99	4	24.69	29	1.6	82	-1.1	0	0	959.8	NA	0.0000	-SN	4300	0	0	0	6500
2015/11/23 23:44:00	BASE	20.25	10	24.69	29	1.6	82	-1.1	0	0	959.8	NA	0.0000	-SN	4500	0	0	0	6070
2015/11/23 23:45:00	BASE	19.67	7	24.69	29	1.6	82	-1.1	0	0	959.9	NA	0.0000	-SN	4900	0	0	0	5770
2015/11/23 23:46:00	BASE	19.65	7	24.08	23	1.6	82	-1.1	0	0	959.9	NA	0.0000	-SN	4700	0	0	0	5480
2015/11/23 23:47:00	BASE	20.71	12	24.08	23	1.6	83	-1.1	0	0	959.7	NA	0.0000	-SN	6000	0	0	0	3870
2015/11/23 23:48:00	BASE	21.49	11	24.08	23	1.6	83	-1.1	0	0	959.7	NA	0.0000	-SN	3800	0	0	0	3640
2015/11/23 23:49:00	BASE	20.81	11	24.08	23	1.6	83	-1.1	0	0	959.9	NA	0.0000	-SN	2500	0	0	0	3410
2015/11/23 23:50:00	BASE	20.33	11	24.02	18	1.6	83	-1.1	0	0	959.7	NA	0.0000	-SN	2300	0	0	0	3480
2015/11/23 23:51:00	BASE	21.32	10	24.02	18	1.6	83	-1.0	0	0	959.6	NA	0.0000	-SN	2200	0	0	0	3410
2015/11/23 23:52:00	BASE	21.57	10	24.02	18	1.6	83	-1.0	0	0	959.8	NA	0.0000	-SN	1800	0	0	0	4270
2015/11/23 23:53:00	BASE	20.44	6	24.02	18	1.6	83	-1.0	0	0	959.8	NA	0.0000	-SN	2000	0	0	0	3870
2015/11/23 23:54:00	BASE	20.38	6	24.02	18	1.6	83	-1.0	0	0	959.7	NA	0.0000	-SN	2300	0	0	0	4590
2015/11/23 23:55:00	BASE	20.98	8	24.02	18	1.6	83	-1.0	0	0	959.7	NA	0.0000	-SN	2200	0	0	0	5380
2015/11/23 23:56:00	BASE	21.56	14	24.69	19	1.6	83	-1.0	0	0	959.6	NA	0.0000	-SN	1900	0	0	0	4950
2015/11/23 23:57:00	BASE	21.21	11	24.69	19	1.6	83	-1.0	0	0	959.7	NA	0.0000	-SN	1900	0	0	0	4300
2015/11/23 23:58:00	BASE	20.21	11	24.69	19	1.6	83	-1.0	0	0	959.7	NA	0.0000	-SN	2300	0	0	0	4490
2015/11/23 23:59:00	BASE	20.47	10	24.69	19	1.6	83	-0.9	0	0	959.6	NA	0.0000	-SN	2300	0	0	0	4300